[[{"header":{"parameterUnit":"m.s-1","parameterCategory":1,"la1":31.0,"la2":29.5877,"lo1":-88.7671,"lo2":-86.6584,"dx":0.0162,"dy":0.0185,"nx":115,"ny":88,"refTime":"2022-11-05T18:00:00:Z","depth":0,"parameterNumber":2,"parameterNumberName":"U-component_of_WINDS"},"data":[0.0,0.0,0.0,0.0,0.0,0.0,0.0,0.0,0.0,0.0,0.0,0.0,0.0,0.0,0.0,0.0,0.0,0.0,0.0,0.0,0.0,0.0,0.0,0.0,0.0,0.0,0.0,0.0,0.0,0.0,0.0,0.0,0.0,0.0,0.0,0.0,0.0,0.0,0.0,0.0,0.0,0.0,0.0,0.0,0.0,0.0,0.0,0.0,0.0,0.0,0.0,0.0,0.0,0.0,0.0,0.0,0.0,0.0,0.0,0.0,0.0,0.0,0.0,0.0,0.0,0.0,0.0,0.0,0.0,0.0,0.0,0.0,0.0,0.0,0.0,0.0,0.0,0.0,0.0,0.0,0.0,0.0,0.0,0.0,0.0,0.0,0.0,0.0,0.0,0.0,0.0,0.0,0.0,0.0,0.0,0.0,0.0,0.0,0.0,0.0,0.0,0.0,0.0,0.0,0.0,0.0,0.0,0.0,0.0,0.0,0.0,0.0,0.0,0.0,0.0,0.0,0.0,0.0,0.0,0.0,0.0,0.0,0.0,0.0,0.0,0.0,0.0,0.0,0.0,0.0,0.0,0.0,0.0,0.0,0.0,0.0,0.0,0.0,0.0,0.0,0.0,0.0,0.0,0.0,0.0,0.0,0.0,0.0,0.0,0.0,0.0,0.0,0.0,0.0,0.0,0.0,0.0,0.0,0.0,0.0,0.0,0.0,0.0,0.0,0.0,0.0,0.0,0.0,0.0,0.0,0.0,0.0,0.0,0.0,0.0,0.0,0.0,0.0,0.0,0.0,0.0,0.0,0.0,0.0,0.0,0.0,0.0,0.0,0.0,0.0,0.0,0.0,0.0,0.0,0.0,0.0,0.0,0.0,0.0,0.0,0.0,0.0,0.0,0.0,0.0,0.0,0.0,0.0,0.0,0.0,0.0,0.0,0.0,0.0,0.0,0.0,0.0,0.0,0.0,0.0,0.0,0.0,0.0,0.0,0.0,0.0,0.0,0.0,0.0,0.0,0.0,0.0,0.0,0.0,0.0,0.0,0.0,0.0,0.0,0.0,0.0,0.0,0.0,0.0,0.0,0.0,0.0,0.0,0.0,0.0,0.0,0.0,0.0,0.0,0.0,0.0,0.0,0.0,0.0,0.0,0.0,0.0,0.0,0.0,0.0,0.0,0.0,0.0,0.0,0.0,0.0,0.0,0.0,0.0,0.0,0.0,0.0,0.0,0.0,0.0,0.0,0.0,0.0,0.0,0.0,0.0,0.0,0.0,0.0,0.0,0.0,0.0,0.0,0.0,0.0,0.0,0.0,0.0,0.0,0.0,0.0,0.0,0.0,0.0,0.0,0.0,0.0,0.0,0.0,0.0,0.0,0.0,0.0,0.0,0.0,0.0,0.0,0.0,0.0,0.0,0.0,0.0,0.0,0.0,0.0,0.0,0.0,0.0,0.0,0.0,0.0,0.0,0.0,0.0,0.0,0.0,0.0,0.0,0.0,0.0,0.0,0.0,0.0,0.0,0.0,0.0,0.0,0.0,0.0,0.0,0.0,0.0,0.0,0.0,0.0,0.0,0.0,0.0,0.0,0.0,0.0,0.0,0.0,0.0,0.0,0.0,0.0,0.0,0.0,0.0,0.0,0.0,0.0,0.0,0.0,0.0,0.0,0.0,0.0,0.0,0.0,0.0,0.0,0.0,0.0,0.0,0.0,0.0,0.0,0.0,0.0,0.0,0.0,0.0,0.0,0.0,0.0,0.0,0.0,0.0,0.0,0.0,0.0,0.0,0.0,0.0,0.0,0.0,0.0,0.0,0.0,0.0,0.0,0.0,0.0,0.0,0.0,0.0,0.0,0.0,0.0,0.0,0.0,0.0,0.0,0.0,0.0,0.0,0.0,0.0,0.0,0.0,0.0,0.0,0.0,0.0,0.0,0.0,0.0,0.0,0.0,0.0,0.0,0.0,0.0,0.0,0.0,0.0,0.0,0.0,0.0,0.0,0.0,0.0,0.0,0.0,0.0,0.0,0.0,0.0,0.0,0.0,0.0,0.0,0.0,0.0,0.0,0.0,0.0,0.0,0.0,0.0,0.0,0.0,0.0,0.0,0.0,0.0,0.0,0.0,0.0,0.0,0.0,0.0,0.0,0.0,0.0,0.0,0.0,0.0,0.0,0.0,0.0,0.0,0.0,0.0,0.0,0.0,0.0,0.0,0.0,0.0,0.0,0.0,0.0,0.0,0.0,0.0,0.0,0.0,0.0,0.0,0.0,0.0,0.0,0.0,0.0,0.0,0.0,0.0,0.0,0.0,0.0,0.0,0.0,0.0,0.0,0.0,0.0,0.0,0.0,0.0,0.0,0.0,0.0,0.0,0.0,0.0,0.0,0.0,0.0,0.0,0.0,0.0,0.0,0.0,0.0,0.0,0.0,0.0,0.0,0.0,0.0,0.0,0.0,0.0,0.0,0.0,0.0,0.0,0.0,0.0,0.0,0.0,0.0,0.0,0.0,0.0,0.0,0.0,0.0,0.0,0.0,0.0,0.0,0.0,0.0,0.0,0.0,0.0,0.0,0.0,0.0,0.0,0.0,0.0,0.0,0.0,0.0,0.0,0.0,0.0,0.0,0.0,0.0,0.0,0.0,0.0,0.0,0.0,0.0,0.0,0.0,0.0,0.0,0.0,0.0,0.0,0.0,0.0,0.0,0.0,0.0,0.0,0.0,0.0,0.0,0.0,0.0,0.0,0.0,0.0,0.0,0.0,0.0,0.0,0.0,0.0,0.0,0.0,0.0,0.0,0.0,0.0,0.0,0.0,0.0,0.0,0.0,0.0,0.0,0.0,0.0,0.0,0.0,0.0,0.0,0.0,0.0,0.0,0.0,0.0,0.0,0.0,0.0,0.0,0.0,0.0,0.0,0.0,0.0,0.0,0.0,0.0,0.0,0.0,0.0,0.0,0.0,0.0,0.0,0.0,0.0,0.0,0.0,0.0,0.0,0.0,0.0,0.0,0.0,0.0,0.0,0.0,0.0,0.0,0.0,0.0,0.0,0.0,0.0,0.0,0.0,0.0,0.0,0.0,0.0,0.0,0.0,0.0,0.0,0.0,0.0,0.0,0.0,0.0,0.0,0.0,0.0,0.0,0.0,0.0,0.0,0.0,0.0,0.0,0.0,0.0,0.0,0.0,0.0,0.0,0.0,0.0,0.0,0.0,0.0,0.0,0.0,0.0,0.0,0.0,0.0,0.0,0.0,0.0,0.0,0.0,0.0,0.0,0.0,0.0,0.0,0.0,0.0,0.0,0.0,0.0,0.0,0.0,0.0,0.0,0.0,0.0,0.0,0.0,0.0,0.0,0.0,0.0,0.0,0.0,0.0,0.0,0.0,0.0,0.0,0.0,0.0,0.0,0.0,0.0,0.0,0.0,0.0,0.0,0.0,0.0,0.0,0.0,0.0,0.0,0.0,0.0,0.0,0.0,0.0,0.0,0.0,0.0,0.0,0.0,0.0,0.0,0.0,0.0,0.0,0.0,0.0,0.0,0.0,0.0,0.0,0.0,0.0,0.0,0.0,0.0,0.0,0.0,0.0,0.0,0.0,0.0,0.0,0.0,0.0,0.0,0.0,0.0,0.0,0.0,0.0,0.0,0.0,0.0,0.0,0.0,0.0,0.0,0.0,0.0,0.0,0.0,0.0,0.0,0.0,0.0,0.0,0.0,0.0,0.0,0.0,0.0,0.0,0.0,0.0,0.0,0.0,0.0,0.0,0.0,0.0,0.0,0.0,0.0,0.0,0.0,0.0,0.0,0.0,0.0,0.0,0.0,0.0,0.0,0.0,0.0,0.0,0.0,0.0,0.0,0.0,0.0,0.0,0.0,0.0,0.0,0.0,0.0,0.0,0.0,0.0,0.0,0.0,0.0,0.0,0.0,0.0,0.0,0.0,0.0,0.0,0.0,0.0,0.0,0.0,0.0,0.0,0.0,0.0,0.0,0.0,0.0,0.0,0.0,0.0,0.0,0.0,0.0,0.0,0.0,0.0,0.0,0.0,0.0,0.0,0.0,0.0,0.0,0.0,0.0,0.0,0.0,0.0,0.0,0.0,0.0,0.0,0.0,0.0,0.0,0.0,0.0,0.0,0.0,0.0,0.0,0.0,0.0,0.0,0.0,0.0,0.0,0.0,0.0,0.0,0.0,0.0,0.0,0.0,0.0,0.0,0.0,0.0,0.0,0.0,0.0,0.0,0.0,0.0,0.0,1.3581,0.0,0.0,0.0,1.2429,0.0,0.0,0.0,0.0,0.0,0.0,0.0,0.0,0.0,0.0,0.0,0.0,0.0,0.0,0.0,0.0,0.0,0.0,0.0,0.0,0.0,0.0,0.0,0.0,0.0,0.0,0.0,0.0,0.0,0.0,0.0,0.0,0.0,0.0,0.0,0.0,0.0,0.0,0.0,0.0,0.0,0.0,0.0,0.0,0.0,0.0,0.0,0.0,0.0,0.0,0.0,0.0,0.0,0.0,0.0,0.0,0.0,0.0,0.0,0.0,0.0,0.0,0.0,0.0,0.0,0.0,0.0,0.0,0.0,0.0,0.0,0.0,0.0,0.0,0.0,0.0,0.0,0.0,0.0,0.0,0.0,0.0,0.0,0.0,0.0,0.0,0.0,0.0,0.0,0.0,0.0,0.0,0.0,0.0,0.0,0.0,0.0,0.0,0.0,0.0,0.0,0.0,0.0,0.0,0.0,0.0,0.0,0.0,0.0,0.0,1.3771,1.258,1.2976,1.2908,1.2242,0.0,0.0,0.0,0.0,0.0,0.0,0.0,0.0,0.0,0.0,0.0,0.0,0.0,0.0,0.0,0.0,0.0,0.0,0.0,0.0,0.0,0.0,0.0,0.0,0.0,0.0,0.0,0.0,0.0,0.0,0.0,0.0,0.0,0.0,0.0,0.0,0.0,0.0,0.0,0.0,0.0,0.0,0.0,0.0,0.0,0.0,0.0,0.0,0.0,0.0,0.0,0.0,0.0,0.0,0.0,0.0,0.0,0.0,0.0,0.0,0.0,0.0,0.0,0.0,0.0,0.0,0.0,0.0,0.0,0.0,0.0,0.0,0.0,0.0,0.0,0.0,0.0,0.0,0.0,0.0,0.0,0.0,0.0,0.0,0.0,0.0,0.0,0.0,0.0,0.0,0.0,0.0,0.0,0.0,0.0,0.0,0.0,0.0,0.0,0.0,0.0,0.0,0.0,0.0,0.0,0.0,0.0,0.0,0.0,0.0,0.0,0.0,1.2754,1.2776,1.2252,0.0,0.0,0.0,0.0,0.0,0.0,0.0,0.0,0.0,0.0,0.0,0.0,0.0,0.0,0.0,0.0,0.0,0.0,0.0,0.0,0.0,0.0,0.0,0.0,0.0,0.0,0.0,0.0,0.0,0.0,0.0,0.0,0.0,0.0,0.0,0.0,0.0,0.0,0.0,0.0,0.0,0.0,0.0,0.0,0.0,0.0,0.0,0.0,0.0,0.0,0.0,0.0,0.0,0.0,0.0,0.0,0.0,0.0,0.0,0.0,0.0,0.0,0.0,0.0,0.0,0.0,0.0,0.0,0.0,0.0,0.0,0.0,0.0,0.0,0.0,0.0,0.0,0.0,0.0,0.0,0.0,0.0,0.0,0.0,0.0,0.0,0.0,0.0,0.0,0.0,0.0,0.0,0.0,0.0,0.0,0.0,0.0,0.0,0.0,0.0,0.0,0.0,0.0,0.0,0.0,0.0,0.0,0.0,0.0,0.0,1.1918,1.2189,1.189,0.0,1.2145,0.0,0.0,0.0,0.0,0.0,0.0,0.0,0.0,0.0,0.0,0.0,0.0,0.0,0.0,0.0,0.0,0.0,0.0,0.0,0.0,0.0,0.0,0.0,0.0,0.0,0.0,0.0,0.0,0.0,0.0,0.0,0.0,0.0,0.0,0.0,0.0,0.0,0.0,0.0,0.0,0.0,0.0,0.0,0.0,0.0,0.0,0.0,0.0,0.0,0.0,0.0,0.0,0.0,0.0,0.0,0.0,0.0,0.0,0.0,0.0,0.0,0.0,0.0,0.0,0.0,0.0,0.0,0.0,0.0,0.0,0.0,0.0,0.0,0.0,0.0,0.0,0.0,0.0,0.0,0.0,0.0,0.0,0.0,0.0,0.0,0.0,0.0,0.0,0.0,0.0,0.0,0.0,0.0,0.0,0.0,0.0,0.0,0.0,0.0,0.0,0.0,0.0,0.0,0.0,0.0,0.0,0.0,0.0,0.0,0.0,1.3068,1.2468,1.2063,1.2223,0.0,0.0,0.0,0.0,0.0,0.0,0.0,0.0,0.0,0.0,0.0,0.0,0.0,0.0,0.0,0.0,0.0,0.0,0.0,0.0,0.0,0.0,0.0,0.0,0.0,0.0,0.0,0.0,0.0,0.0,0.0,0.0,0.0,0.0,0.0,0.0,0.0,0.0,0.0,0.0,0.0,0.0,0.0,0.0,0.0,0.0,0.0,0.0,0.0,0.0,0.0,0.0,0.0,0.0,0.0,0.0,0.0,0.0,0.0,0.0,0.0,0.0,0.0,0.0,0.0,0.0,0.0,0.0,0.0,0.0,0.0,0.0,0.0,0.0,0.0,0.0,0.0,0.0,0.0,0.0,0.0,0.0,0.0,0.0,0.0,0.0,0.0,0.0,0.0,0.0,0.0,0.0,0.0,0.0,0.0,0.0,0.0,0.0,0.0,0.0,0.0,0.0,0.0,0.0,0.0,0.0,0.0,0.0,0.0,0.0,1.3768,1.3575,1.2632,1.2168,1.2436,1.3452,0.0,0.0,0.0,0.0,0.0,0.0,0.0,0.0,0.0,0.0,0.0,0.0,0.0,0.0,0.0,0.0,0.0,0.0,0.0,0.0,0.0,0.0,0.0,0.0,0.0,0.0,0.0,0.0,0.0,0.0,0.0,0.0,0.0,0.0,0.0,0.0,0.0,0.0,0.0,0.0,0.0,0.0,0.0,0.0,0.0,0.0,0.0,0.0,0.0,0.0,0.0,0.0,0.0,0.0,0.0,0.0,0.0,0.0,0.0,0.0,0.0,0.0,0.0,0.0,0.0,0.0,0.0,0.0,0.0,0.0,0.0,0.0,0.0,0.0,0.0,0.0,0.0,0.0,0.0,0.0,0.0,0.0,0.0,0.0,0.0,0.0,0.0,0.0,0.0,0.0,0.0,0.0,0.0,0.0,0.0,0.0,0.0,0.0,0.0,0.0,0.0,0.0,0.0,0.0,0.0,0.0,0.0,0.0,1.3216,1.2903,1.2692,1.2623,1.1927,1.2153,0.0,0.0,0.0,0.0,0.0,0.0,0.0,0.0,0.0,0.0,0.0,0.0,0.0,0.0,0.0,0.0,0.0,0.0,0.0,0.0,0.0,0.0,0.0,0.0,0.0,0.0,0.0,0.0,0.0,0.0,0.0,0.0,0.0,0.0,0.0,0.0,0.0,0.0,0.0,0.0,0.0,0.0,0.0,0.0,0.0,0.0,0.0,0.0,0.0,0.0,0.0,0.0,0.0,0.0,0.0,0.0,0.0,0.0,0.0,0.0,0.0,0.0,0.0,0.0,0.0,0.0,0.0,0.0,0.0,0.0,0.0,0.0,0.0,0.0,0.0,0.0,0.0,0.0,0.0,0.0,0.0,0.0,0.0,0.0,0.0,0.0,0.0,0.0,0.0,0.0,0.0,0.0,0.0,0.0,0.0,0.0,0.0,0.0,0.0,0.0,0.0,0.0,0.0,0.0,0.0,0.0,0.0,0.0,0.0,1.4106,1.4315,1.4277,1.3877,1.3168,1.314,0.0,0.0,0.0,0.0,0.0,0.0,0.0,0.0,0.0,0.0,0.0,0.0,0.0,0.0,0.0,0.0,0.0,0.0,0.0,0.0,0.0,0.0,0.0,0.0,0.0,0.0,0.0,0.0,0.0,0.0,0.0,0.0,0.0,0.0,0.0,0.0,0.0,0.0,0.0,0.0,0.0,0.0,0.0,0.0,0.0,0.0,0.0,0.0,0.0,0.0,0.0,0.0,0.0,0.0,0.0,0.0,0.0,0.0,0.0,0.0,0.0,0.0,0.0,0.0,0.0,0.0,0.0,0.0,0.0,0.0,0.0,0.0,0.0,0.0,0.0,0.0,0.0,0.0,0.0,0.0,0.0,0.0,0.0,0.0,0.0,0.0,0.0,0.0,0.0,0.0,0.0,0.0,0.0,0.0,0.0,0.0,0.0,0.0,0.0,0.0,0.0,0.0,0.0,0.0,0.0,0.0,0.0,0.0,0.0,1.4872,1.5163,1.517,1.4871,1.3992,1.3689,0.0,0.0,0.0,0.0,0.0,0.0,0.0,0.0,0.0,0.0,0.0,0.0,0.0,0.0,0.0,0.0,0.0,0.0,0.0,0.0,0.0,0.0,0.0,0.0,0.0,0.0,0.0,0.0,0.0,0.0,0.0,0.0,0.0,0.0,0.0,0.0,0.0,0.0,0.0,0.0,0.0,0.0,0.0,0.0,0.0,0.0,0.0,0.0,0.0,0.0,0.0,0.0,0.0,0.0,0.0,0.0,0.0,0.0,0.0,0.0,0.0,0.0,0.0,0.0,0.0,0.0,0.0,0.0,0.0,0.0,0.0,0.0,0.0,0.0,0.0,0.0,0.0,0.0,0.0,0.0,0.0,0.0,0.0,0.0,0.0,0.0,0.0,0.0,0.0,0.0,0.0,0.0,0.0,0.0,0.0,0.0,0.0,0.0,0.0,0.0,0.0,0.0,0.0,0.0,0.0,0.0,0.0,0.0,1.4899,1.5474,1.5152,1.5178,1.5455,1.4209,1.3751,0.0,0.0,0.0,0.0,0.0,0.0,0.0,0.0,0.0,0.0,0.0,0.0,0.0,0.0,0.0,0.0,0.0,0.0,0.0,0.0,0.0,0.0,0.0,0.0,0.0,0.0,0.0,0.0,0.0,0.0,0.0,0.0,0.0,0.0,0.0,0.0,0.0,0.0,0.0,0.0,0.0,0.0,0.0,0.0,0.0,0.0,0.0,0.0,0.0,0.0,0.0,0.0,0.0,0.0,0.0,0.0,0.0,0.0,0.0,0.0,0.0,0.0,0.0,0.0,0.0,0.0,0.0,0.0,0.0,0.0,0.0,0.0,0.0,0.0,0.0,0.0,0.0,0.0,0.0,0.0,0.0,0.0,0.0,0.0,0.0,0.0,0.0,0.0,0.0,0.0,0.0,0.0,0.0,0.0,0.0,0.0,0.0,0.0,0.0,0.0,0.0,0.0,0.0,0.0,0.0,0.0,0.0,0.0,0.0,1.6111,1.6367,1.6367,1.6081,1.4812,1.4157,0.0,0.0,0.0,0.0,0.0,0.0,0.0,0.0,0.0,0.0,0.0,0.0,0.0,0.0,0.0,0.0,0.0,0.0,0.0,0.0,0.0,0.0,0.0,0.0,0.0,0.0,0.0,0.0,0.0,0.0,0.0,0.0,0.0,0.0,0.0,0.0,0.0,0.0,0.0,0.0,0.0,0.0,0.0,0.0,0.0,0.0,0.0,0.0,0.0,0.0,0.0,0.0,0.0,0.0,0.0,0.0,0.0,0.0,0.0,0.0,0.0,0.0,0.0,0.0,0.0,0.0,0.0,0.0,0.0,0.0,0.0,0.0,0.0,0.0,0.0,0.0,0.0,0.0,0.0,0.0,0.0,0.0,0.0,0.0,0.0,0.0,0.0,0.0,0.0,0.0,0.0,0.0,0.0,0.0,0.0,0.0,0.0,0.0,0.0,0.0,0.0,0.0,0.0,0.0,0.0,0.0,0.0,0.0,0.0,1.7016,1.7356,1.7392,1.7042,1.5804,1.4883,1.4273,0.0,0.0,0.0,0.0,0.0,0.0,0.0,0.0,0.0,0.0,0.0,0.0,0.0,0.0,0.0,0.0,0.0,0.0,0.0,0.0,0.0,0.0,0.0,0.0,0.0,0.0,0.0,0.0,0.0,0.0,0.0,0.0,0.0,0.0,0.0,0.0,0.0,0.0,0.0,0.0,0.0,0.0,0.0,0.0,0.0,0.0,0.0,0.0,0.0,0.0,0.0,0.0,0.0,0.0,0.0,0.0,0.0,0.0,0.0,0.0,0.0,0.0,0.0,0.0,0.0,0.0,0.0,0.0,0.0,0.0,0.0,0.0,0.0,0.0,0.0,0.0,0.0,0.0,0.0,0.0,0.0,0.0,0.0,0.0,0.0,0.0,0.0,0.0,0.0,0.0,0.0,0.0,0.0,0.0,0.0,0.0,0.0,0.0,0.0,0.0,0.0,0.0,0.0,0.0,0.0,0.0,0.0,0.0,1.8151,1.8166,1.8166,1.8125,1.7011,1.5782,0.0,0.0,0.0,0.0,0.0,0.0,0.0,0.0,0.0,0.0,0.0,0.0,0.0,0.0,0.0,0.0,0.0,0.0,0.0,0.0,0.0,0.0,0.0,0.0,0.0,0.0,0.0,0.0,0.0,0.0,0.0,0.0,0.0,0.0,0.0,0.0,0.0,0.0,0.0,0.0,0.0,0.0,0.0,0.0,0.0,0.0,0.0,0.0,0.0,0.0,0.0,0.0,0.0,0.0,0.0,0.0,0.0,0.0,0.0,0.0,0.0,0.0,0.0,0.0,0.0,0.0,0.0,0.0,0.0,0.0,0.0,0.0,0.0,0.0,0.0,0.0,0.0,0.0,0.0,0.0,0.0,0.0,0.0,0.0,0.0,0.0,0.0,0.0,0.0,0.0,0.0,0.0,0.0,0.0,0.0,0.0,0.0,0.0,0.0,0.0,0.0,0.0,0.0,0.0,0.0,0.0,0.0,0.0,0.0,1.8662,1.9121,1.9159,1.8677,1.7286,1.62,0.0,0.0,0.0,0.0,0.0,0.0,0.0,0.0,0.0,0.0,0.0,0.0,0.0,0.0,0.0,0.0,0.0,0.0,0.0,0.0,0.0,0.0,0.0,0.0,0.0,0.0,0.0,0.0,0.0,0.0,0.0,0.0,0.0,0.0,0.0,0.0,0.0,0.0,0.0,0.0,0.0,0.0,0.0,0.0,0.0,0.0,0.0,0.0,0.0,0.0,0.0,0.0,0.0,0.0,0.0,0.0,0.0,0.0,0.0,0.0,0.0,0.0,0.0,0.0,0.0,0.0,0.0,0.0,0.0,0.0,0.0,0.0,0.0,0.0,0.0,0.0,0.0,0.0,0.0,0.0,0.0,0.0,0.0,0.0,0.0,0.0,0.0,0.0,0.0,0.0,0.0,0.0,0.0,0.0,0.0,0.0,0.0,0.0,0.0,0.0,0.0,0.0,0.0,0.0,0.0,0.0,0.0,0.0,1.8204,1.8864,1.9669,1.9813,1.9245,1.7928,1.6699,0.0,0.0,0.0,0.0,0.0,0.0,0.0,0.0,0.0,0.0,0.0,0.0,0.0,0.0,0.0,0.0,0.0,0.0,0.0,0.0,0.0,0.0,0.0,0.0,0.0,0.0,0.0,0.0,0.0,0.0,0.0,0.0,0.0,0.0,0.0,0.0,0.0,0.0,0.0,0.0,0.0,0.0,0.0,0.0,0.0,0.0,0.0,0.0,0.0,0.0,0.0,0.0,0.0,0.0,0.0,0.0,0.0,0.0,0.0,0.0,0.0,0.0,0.0,0.0,0.0,0.0,0.0,0.0,0.0,0.0,0.0,0.0,0.0,0.0,0.0,0.0,0.0,0.0,0.0,0.0,0.0,0.0,0.0,0.0,0.0,0.0,0.0,0.0,0.0,0.0,0.0,0.0,0.0,0.0,0.0,0.0,0.0,0.0,0.0,0.0,0.0,0.0,0.0,0.0,0.0,0.0,0.0,0.0,1.9008,1.9021,2.011,2.0447,1.9888,1.8762,1.7284,0.0,0.0,0.0,0.0,0.0,0.0,0.0,0.0,0.0,0.0,0.0,0.0,0.0,0.0,0.0,0.0,0.0,0.0,0.0,0.0,0.0,0.0,0.0,0.0,0.0,0.0,0.0,0.0,0.0,0.0,0.0,0.0,0.0,0.0,0.0,0.0,0.0,0.0,0.0,0.0,0.0,0.0,0.0,0.0,0.0,0.0,0.0,0.0,0.0,0.0,0.0,0.0,0.0,0.0,0.0,0.0,0.0,0.0,0.0,0.0,0.0,0.0,0.0,0.0,0.0,0.0,0.0,0.0,0.0,0.0,0.0,0.0,0.0,0.0,0.0,0.0,0.0,0.0,0.0,0.0,0.0,0.0,0.0,0.0,0.0,0.0,0.0,0.0,0.0,0.0,0.0,0.0,0.0,0.0,0.0,0.0,0.0,0.0,0.0,0.0,0.0,0.0,0.0,0.0,0.0,0.0,0.0,0.0,1.9831,2.0304,2.1393,2.1714,2.1144,1.9497,1.7867,0.0,0.0,0.0,0.0,0.0,0.0,0.0,0.0,0.0,0.0,0.0,0.0,0.0,0.0,0.0,0.0,0.0,0.0,0.0,0.0,0.0,0.0,0.0,0.0,0.0,0.0,0.0,0.0,0.0,0.0,0.0,0.0,0.0,0.0,0.0,0.0,0.0,0.0,0.0,0.0,0.0,0.0,0.0,0.0,0.0,0.0,0.0,0.0,1.5601,0.0,0.0,0.0,0.0,0.0,0.0,0.0,0.0,0.0,0.0,0.0,0.0,0.0,0.0,0.0,0.0,0.0,0.0,0.0,0.0,0.0,0.0,0.0,0.0,0.0,0.0,0.0,0.0,0.0,0.0,0.0,0.0,0.0,0.0,0.0,0.0,0.0,0.0,0.0,0.0,0.0,0.0,0.0,0.0,0.0,0.0,0.0,0.0,0.0,0.0,0.0,0.0,0.0,0.0,0.0,0.0,0.0,0.0,0.0,2.0199,2.1015,2.1886,2.2042,2.1462,2.0536,1.8956,0.0,0.0,0.0,0.0,0.0,0.0,0.0,0.0,0.0,0.0,0.0,0.0,0.0,0.0,0.0,0.0,0.0,0.0,0.0,0.0,0.0,0.0,0.0,0.0,0.0,0.0,0.0,0.0,0.0,0.0,0.0,0.0,0.0,0.0,0.0,0.0,0.0,0.0,0.0,0.0,0.0,0.0,0.0,0.0,0.0,0.0,0.0,0.0,0.0,0.0,0.0,0.0,0.0,0.0,0.0,0.0,0.0,0.0,0.0,0.0,0.0,0.0,0.0,0.0,0.0,0.0,0.0,0.0,0.0,0.0,0.0,0.0,0.0,0.0,0.0,0.0,0.0,0.0,0.0,0.0,0.0,0.0,0.0,0.0,0.0,0.0,0.0,0.0,0.0,0.0,0.0,0.0,0.0,0.0,0.0,0.0,0.0,0.0,0.0,0.0,0.0,0.0,0.0,0.0,0.0,0.0,0.0,1.9081,2.0552,2.177,2.2272,2.2316,2.1967,2.1666,2.0164,1.7301,0.0,0.0,0.0,0.0,0.0,0.0,0.0,0.0,0.0,0.0,0.0,0.0,0.0,0.0,0.0,0.0,0.0,0.0,0.0,0.0,0.0,0.0,0.0,0.0,0.0,0.0,0.0,0.0,0.0,0.0,0.0,0.0,0.0,0.0,0.0,0.0,0.0,0.0,1.4449,1.4925,0.0,0.0,0.0,0.0,0.0,0.0,0.0,0.0,1.7833,0.0,0.0,0.0,0.0,0.0,0.0,0.0,0.0,0.0,0.0,0.0,0.0,0.0,0.0,0.0,0.0,0.0,0.0,0.0,0.0,0.0,0.0,0.0,0.0,0.0,0.0,0.0,0.0,0.0,0.0,0.0,0.0,0.0,0.0,0.0,0.0,0.0,0.0,0.0,0.0,0.0,0.0,0.0,0.0,0.0,0.0,0.0,0.0,0.0,0.0,0.0,0.0,0.0,0.0,0.0,0.0,1.8573,1.9877,2.1564,2.3601,2.3742,2.3972,2.4341,2.2879,2.1045,1.8874,0.0,0.0,0.0,0.0,0.0,0.0,0.0,0.0,0.0,0.0,0.0,0.0,0.0,0.0,0.0,0.0,0.0,0.0,0.0,0.0,0.0,0.0,0.0,0.0,0.0,0.0,0.0,0.0,0.0,0.0,0.0,0.0,0.0,0.0,0.0,0.0,0.0,0.0,0.0,1.587,1.6498,0.0,0.0,0.0,0.0,0.0,0.0,0.0,0.0,1.789,0.0,0.0,0.0,0.0,0.0,0.0,0.0,0.0,0.0,0.0,0.0,0.0,0.0,0.0,0.0,0.0,0.0,0.0,0.0,0.0,0.0,0.0,0.0,0.0,0.0,0.0,0.0,0.0,0.0,0.0,0.0,0.0,0.0,0.0,0.0,0.0,0.0,0.0,0.0,0.0,0.0,0.0,0.0,0.0,0.0,0.0,0.0,0.0,0.0,0.0,0.0,0.0,0.0,0.0,0.0,1.972,2.0661,2.2374,2.4868,2.47,2.4524,2.4453,2.3628,2.1919,0.0,0.0,0.0,0.0,0.0,0.0,0.0,0.0,0.0,0.0,0.0,0.0,0.0,0.0,0.0,0.0,0.0,0.0,0.0,0.0,0.0,0.0,0.0,0.0,0.0,0.0,0.0,0.0,0.0,0.0,0.0,0.0,0.0,0.0,0.0,0.0,0.0,0.0,0.0,0.0,1.6974,1.7755,1.8651,0.0,0.0,0.0,0.0,0.0,0.0,1.9544,1.9172,0.0,0.0,0.0,0.0,0.0,0.0,0.0,0.0,0.0,0.0,0.0,0.0,0.0,0.0,0.0,0.0,0.0,0.0,0.0,0.0,0.0,0.0,0.0,0.0,0.0,0.0,0.0,0.0,0.0,0.0,0.0,0.0,0.0,0.0,0.0,0.0,0.0,0.0,0.0,0.0,0.0,0.0,0.0,0.0,0.0,0.0,0.0,0.0,0.0,0.0,0.0,0.0,0.0,0.0,0.0,2.0608,2.1368,2.3013,2.5652,2.5395,2.4941,2.4538,2.413,2.2444,0.0,0.0,0.0,0.0,0.0,0.0,0.0,0.0,0.0,0.0,0.0,0.0,0.0,0.0,0.0,0.0,0.0,0.0,0.0,0.0,0.0,0.0,0.0,0.0,0.0,0.0,0.0,0.0,0.0,0.0,0.0,0.0,0.0,0.0,0.0,0.0,0.0,0.0,0.0,0.0,0.0,1.8874,1.9782,2.0093,0.0,0.0,0.0,0.0,2.0682,2.0599,0.0,0.0,0.0,0.0,0.0,0.0,0.0,0.0,0.0,0.0,0.0,0.0,0.0,0.0,0.0,0.0,0.0,0.0,0.0,0.0,0.0,0.0,0.0,0.0,0.0,0.0,0.0,0.0,0.0,0.0,0.0,0.0,0.0,0.0,0.0,0.0,0.0,0.0,0.0,0.0,0.0,0.0,0.0,0.0,0.0,0.0,0.0,0.0,0.0,0.0,0.0,0.0,0.0,0.0,0.0,0.0,2.0608,2.176,2.3431,2.5652,2.573,2.5908,2.6345,2.4368,2.2258,0.0,0.0,0.0,0.0,0.0,0.0,0.0,0.0,0.0,0.0,0.0,0.0,0.0,0.0,0.0,0.0,0.0,0.0,0.0,0.0,0.0,0.0,0.0,0.0,0.0,0.0,0.0,0.0,0.0,0.0,0.0,0.0,0.0,0.0,0.0,0.0,0.0,0.0,0.0,0.0,0.0,1.933,2.0206,2.1033,2.159,0.0,0.0,2.1652,2.1631,2.1282,0.0,0.0,0.0,0.0,0.0,0.0,0.0,0.0,0.0,0.0,0.0,0.0,0.0,0.0,0.0,0.0,0.0,0.0,0.0,0.0,0.0,0.0,0.0,0.0,0.0,0.0,0.0,0.0,0.0,0.0,0.0,0.0,0.0,0.0,0.0,0.0,0.0,0.0,0.0,0.0,0.0,0.0,0.0,0.0,0.0,0.0,0.0,0.0,0.0,0.0,0.0,0.0,0.0,0.0,0.0,1.8133,2.0964,2.2229,2.3995,2.6216,2.6295,2.6083,2.5627,2.4375,2.2637,0.0,0.0,0.0,0.0,0.0,0.0,0.0,0.0,0.0,0.0,0.0,0.0,0.0,0.0,0.0,0.0,0.0,0.0,0.0,0.0,0.0,0.0,0.0,0.0,0.0,0.0,0.0,0.0,0.0,0.0,0.0,0.0,0.0,0.0,0.0,0.0,0.0,0.0,0.0,0.0,0.0,0.0,2.1054,2.1757,0.0,0.0,0.0,2.2501,2.2232,0.0,0.0,0.0,0.0,0.0,0.0,0.0,0.0,0.0,0.0,0.0,0.0,0.0,0.0,0.0,0.0,0.0,0.0,0.0,0.0,0.0,0.0,0.0,0.0,0.0,0.0,0.0,0.0,0.0,0.0,0.0,0.0,0.0,0.0,0.0,0.0,0.0,0.0,0.0,0.0,0.0,0.0,0.0,0.0,0.0,0.0,0.0,0.0,0.0,0.0,0.0,0.0,0.0,0.0,0.0,0.0,0.0,2.1108,2.2633,2.4398,2.6389,2.6755,2.6382,2.5313,2.4667,0.0,0.0,0.0,0.0,0.0,0.0,0.0,0.0,0.0,0.0,0.0,0.0,0.0,0.0,0.0,0.0,0.0,0.0,0.0,0.0,0.0,0.0,0.0,0.0,0.0,0.0,0.0,1.1034,0.0,0.0,0.0,0.0,0.0,0.0,0.0,0.0,0.0,0.0,0.0,0.0,0.0,0.0,2.1033,2.188,2.2584,2.3101,0.0,0.0,2.3494,2.2936,2.2936,2.2752,0.0,0.0,0.0,0.0,0.0,0.0,0.0,0.0,0.0,0.0,0.0,0.0,0.0,0.0,0.0,0.0,0.0,0.0,0.0,0.0,0.0,0.0,0.0,0.0,0.0,0.0,0.0,0.0,0.0,0.0,0.0,0.0,0.0,0.0,0.0,0.0,0.0,0.0,0.0,0.0,0.0,0.0,0.0,0.0,0.0,0.0,0.0,0.0,0.0,0.0,0.0,0.0,0.0,0.0,1.8185,2.0726,2.2923,2.4633,2.5861,2.6906,2.715,2.656,2.5511,2.3632,0.0,0.0,0.0,0.0,0.0,0.0,0.0,0.0,0.0,0.0,0.0,0.0,0.0,0.0,0.0,0.0,0.0,0.0,0.0,0.0,0.0,0.0,0.0,0.0,0.0,0.0,0.0,0.0,0.0,0.0,0.0,0.0,0.0,0.0,0.0,0.0,0.0,0.0,0.0,0.0,0.0,2.1881,2.2377,2.3557,2.4239,0.0,2.455,2.4777,2.3929,2.4115,2.3905,2.2655,0.0,0.0,0.0,0.0,0.0,0.0,0.0,0.0,0.0,0.0,0.0,0.0,0.0,0.0,0.0,0.0,0.0,0.0,0.0,0.0,0.0,0.0,0.0,0.0,0.0,0.0,0.0,0.0,0.0,0.0,0.0,0.0,0.0,0.0,0.0,0.0,0.0,0.0,0.0,0.0,0.0,0.0,0.0,0.0,0.0,0.0,0.0,0.0,0.0,0.0,0.0,0.0,0.0,1.8607,2.0927,2.3022,2.4659,2.5767,2.6915,2.7262,2.6719,2.5918,2.465,0.0,0.0,0.0,0.0,0.0,0.0,0.0,0.0,0.0,0.0,0.0,0.0,0.0,0.0,0.0,0.0,0.0,0.0,0.0,0.0,0.0,0.0,0.0,0.0,0.0,0.0,0.0,0.0,1.2896,1.3218,1.3496,0.0,0.0,0.0,0.0,0.0,0.0,0.0,0.0,0.0,0.0,2.2604,2.3598,2.4404,0.0,0.0,2.5585,2.5523,2.5193,2.4873,2.4455,2.3841,2.3507,0.0,0.0,0.0,0.0,0.0,0.0,0.0,0.0,0.0,0.0,0.0,0.0,0.0,0.0,0.0,0.0,0.0,0.0,0.0,0.0,0.0,0.0,0.0,0.0,0.0,0.0,0.0,0.0,0.0,0.0,0.0,0.0,0.0,0.0,0.0,0.0,0.0,0.0,0.0,0.0,0.0,0.0,0.0,0.0,0.0,0.0,0.0,0.0,0.0,0.0,0.0,0.0,1.9162,2.1403,2.3358,2.4936,2.6044,2.701,2.7324,2.6964,2.6373,2.5428,2.405,0.0,0.0,0.0,0.0,0.0,0.0,0.0,0.0,0.0,0.0,0.0,0.0,0.0,0.0,0.0,0.0,0.0,0.0,0.0,0.0,0.0,0.0,0.0,0.0,0.0,0.0,0.0,1.3774,1.425,1.4863,0.0,0.0,0.0,0.0,0.0,0.0,0.0,0.0,0.0,0.0,2.3536,2.4735,2.5439,2.6123,2.6892,2.6851,2.6638,2.6424,2.5997,2.5644,2.5359,0.0,0.0,0.0,0.0,0.0,0.0,0.0,0.0,0.0,0.0,0.0,0.0,0.0,0.0,0.0,0.0,0.0,0.0,0.0,0.0,0.0,0.0,0.0,0.0,0.0,0.0,0.0,0.9466,0.0,0.0,0.948,0.0,0.0,0.0,0.0,0.0,0.0,0.0,0.0,0.0,0.0,0.0,0.0,0.0,0.0,0.0,0.0,0.0,0.0,0.0,0.0,0.0,0.0,1.9767,2.2145,2.3989,2.5515,2.6624,2.7193,2.749,2.7464,2.6948,2.58,2.3904,0.0,0.0,0.0,0.0,0.0,0.0,0.0,0.0,0.0,0.0,0.0,0.0,0.0,0.0,0.0,0.0,0.0,0.0,0.0,0.0,0.0,0.0,0.0,0.0,0.0,0.0,1.3103,1.4167,1.5352,0.0,0.0,0.0,0.0,0.0,0.0,0.0,0.0,0.0,2.2294,2.3619,2.4818,2.5751,2.6664,2.7389,2.7817,2.8231,2.8256,2.7578,2.7643,2.7688,0.0,0.0,0.0,0.0,0.0,0.0,0.0,0.0,0.0,0.0,0.0,0.0,0.0,0.0,0.0,0.0,0.0,0.0,0.0,0.0,0.0,0.0,0.0,0.0,0.0,0.0,0.0,1.0673,1.0845,0.0,0.0,0.0,0.0,0.0,0.0,0.0,0.0,0.0,0.0,0.0,1.8118,1.8073,0.0,0.0,0.0,0.0,0.0,0.0,0.0,0.0,0.0,0.0,0.0,0.0,2.0488,2.2433,2.399,2.5356,2.6482,2.7153,2.749,2.749,2.7324,2.6407,2.4644,0.0,0.0,0.0,0.0,0.0,0.0,0.0,0.0,0.0,0.0,0.0,0.0,0.0,0.0,0.0,0.0,0.0,0.0,0.0,0.0,0.0,0.0,0.0,0.0,0.0,1.5516,0.0,0.0,0.0,0.0,0.0,0.0,0.0,0.0,0.0,0.0,2.0863,2.2295,2.366,2.5026,2.6227,2.7117,2.7759,2.8317,0.0,0.0,0.0,0.0,0.0,0.0,0.0,0.0,0.0,0.0,0.0,0.0,0.0,2.5918,2.5719,2.5329,2.5847,2.6493,2.7019,0.0,0.0,0.0,0.0,0.0,0.0,0.0,0.0,0.0,0.0,0.0,0.0,0.0,0.0,1.2261,1.2473,1.2929,0.0,0.0,0.0,0.0,0.0,0.0,0.0,0.0,1.7644,1.8672,2.0319,2.0051,2.0363,2.1095,2.0407,1.9333,0.0,0.0,0.0,0.0,0.0,0.0,0.0,0.0,2.1448,2.3115,2.4505,2.5762,2.6854,2.7409,2.7823,2.7988,2.7652,2.6746,2.5295,2.3967,2.2048,0.0,0.0,0.0,0.0,0.0,0.0,0.0,0.0,0.0,0.0,0.0,0.0,0.0,0.0,0.0,0.0,0.0,0.0,0.0,0.0,0.0,0.0,0.0,1.7131,0.0,0.0,0.0,0.0,0.0,0.0,0.0,0.0,0.0,2.0718,2.2149,2.3701,2.5046,2.6413,2.7552,2.8272,0.0,0.0,0.0,0.0,0.0,0.0,0.0,2.8712,2.9086,2.8624,2.8267,2.8569,2.8405,2.818,2.8208,0.0,0.0,2.7345,2.754,2.8185,2.8929,2.873,2.8659,2.943,2.9477,2.961,0.0,0.0,0.0,0.0,1.0794,0.0,0.0,0.0,1.3313,1.3687,0.0,1.5069,0.0,0.0,0.0,0.0,1.5911,1.6551,0.0,0.0,2.0156,2.134,2.2819,2.2303,2.2625,2.3598,2.259,2.2157,2.2167,1.9698,1.8343,0.0,0.0,0.0,0.0,0.0,2.2553,2.4177,2.5438,2.6644,2.7729,2.7988,2.8394,2.8938,2.7919,2.6854,2.5836,2.5133,2.3794,2.1696,2.0697,0.0,0.0,0.0,0.0,0.0,0.0,0.0,0.0,0.0,0.0,0.0,0.0,0.0,0.0,0.0,0.0,0.0,0.0,0.0,0.0,1.7452,0.0,0.0,0.0,0.0,0.0,0.0,0.0,0.0,0.0,2.2108,2.2563,2.3722,2.5066,2.6478,0.0,0.0,0.0,0.0,3.0015,3.0015,3.0036,2.9957,2.97,2.9852,3.0049,3.0199,0.0,0.0,2.9359,2.9387,2.9689,3.0273,3.121,3.1333,2.9161,2.8913,2.9182,3.0015,3.0222,3.045,3.1243,3.1533,3.1754,1.6054,0.0,0.0,0.0,0.0,1.3476,1.4014,1.5067,1.526,1.5625,1.6097,1.6496,0.0,0.0,0.0,0.0,0.0,0.0,1.9613,2.1531,2.1701,2.2485,2.3828,2.3553,2.3642,2.405,2.3866,2.3812,2.3835,2.3225,2.192,2.0,0.0,0.0,0.0,0.0,2.3321,2.4611,2.5505,2.6586,2.784,2.8005,2.8447,2.9203,2.8464,2.7928,2.7635,2.6669,2.5473,2.4054,2.2922,0.0,0.0,0.0,0.0,0.0,0.0,0.0,0.0,0.0,0.0,0.0,0.0,0.0,0.0,0.0,0.0,0.0,0.0,0.0,1.8942,1.9404,1.9597,0.0,0.0,0.0,0.0,0.0,0.0,0.0,0.0,0.0,2.4882,2.5276,2.6123,0.0,0.0,2.927,2.9746,3.0201,3.0518,3.0491,3.076,0.0,3.088,3.0588,3.052,3.099,3.1478,3.1717,3.1465,3.1861,3.2207,3.2162,3.2333,3.2346,3.2196,3.232,3.2589,3.2879,3.2892,3.3004,3.3273,3.3584,3.3874,1.9374,1.7527,1.6041,1.5403,1.5424,1.5299,1.588,1.6937,1.7101,1.7443,1.7857,1.8342,1.8162,1.7481,1.775,0.0,0.0,0.0,2.1298,2.3328,2.3078,2.3612,2.4702,2.4472,2.4472,2.4768,2.4869,2.5028,2.5161,2.5037,2.4201,2.2663,0.0,2.216,2.2512,2.3351,2.4214,2.5093,2.6005,2.6958,2.7969,2.859,2.9088,2.9462,2.9142,2.8786,2.8403,2.7723,2.6843,2.5733,2.4769,2.3462,0.0,0.0,0.0,0.0,0.0,0.0,0.0,0.0,0.0,0.0,0.0,1.3198,1.4066,0.0,0.0,0.0,1.8392,1.9574,2.0645,2.0634,0.0,0.0,0.0,0.0,0.0,0.0,0.0,2.2462,2.4384,2.5999,2.6599,2.7013,2.7717,2.9001,2.9725,3.0222,3.0538,0.0,3.1153,3.0988,3.1222,3.1471,3.1609,3.1325,3.1309,3.193,3.2711,3.3152,3.2985,3.3496,3.3882,3.378,3.3878,3.4157,3.45,3.4871,3.4972,3.4475,3.4371,3.4475,3.4806,3.5086,3.5397,2.2409,2.0938,1.7868,1.6585,1.6546,1.671,1.7556,1.8836,1.8866,1.9135,1.9631,2.0375,2.0198,1.9372,1.9524,0.0,2.1728,2.1784,2.2884,2.4767,2.4315,2.4624,2.5522,2.5061,2.5085,2.5571,2.5588,2.5805,2.6094,2.5599,2.5452,2.5586,2.465,2.4139,2.4104,2.4591,2.5134,2.5661,2.6758,2.7587,2.819,2.9492,3.0081,2.9877,2.9862,2.939,2.8586,2.8481,2.7975,2.6886,2.6253,2.5205,2.3667,0.0,0.0,0.0,0.0,0.0,0.0,0.0,0.0,0.0,0.0,0.0,0.0,0.0,0.0,1.9403,2.0528,0.0,2.1877,2.153,0.0,0.0,0.0,2.2357,2.3287,2.4177,2.4693,2.4673,0.0,0.0,2.79,2.8876,2.9642,3.0098,3.0891,3.1408,3.1408,3.1747,3.1933,3.1567,3.1595,3.1754,3.2202,3.2235,3.2349,3.2895,3.3697,3.409,3.4004,3.4503,3.4964,3.5136,3.574,3.6213,3.6377,3.6591,3.6535,3.5428,3.5117,3.5303,3.608,3.6349,3.6639,2.3099,2.2196,2.1588,2.0841,2.003,1.9313,1.9442,2.0155,2.0303,2.0637,2.1096,2.1274,2.1356,2.1386,2.1436,2.2009,2.2977,2.3302,2.3906,2.4779,2.4941,2.5136,2.5353,2.5232,2.5232,2.537,2.5518,2.5641,2.5728,2.5745,2.58,2.581,2.5724,2.5336,2.4666,2.5143,2.5686,2.6298,2.6959,2.7817,2.8923,3.0016,3.0526,3.0491,3.0206,2.9933,2.9683,2.9301,2.8743,2.8037,2.7428,2.6544,2.5262,2.3554,0.0,0.0,0.0,0.0,0.0,0.0,0.0,0.0,0.0,1.6299,1.7333,0.0,1.8954,0.0,2.2429,2.3703,2.3824,2.3727,0.0,0.0,2.3908,2.4094,2.4673,2.5854,2.6498,2.6146,2.7903,2.9125,2.9001,3.0103,3.105,3.1457,3.1443,3.1408,3.1429,3.2036,3.2512,3.245,3.2954,3.348,3.3563,3.3596,3.357,3.348,3.4357,3.5066,3.5036,3.5727,3.6327,3.6394,3.682,3.7165,3.7192,3.7579,3.7881,3.7819,3.7343,3.7011,3.757,3.7943,3.822,2.4325,2.3299,2.3421,2.3115,2.246,2.1314,2.0967,2.1233,2.1355,2.1703,2.2215,2.2255,2.2322,2.2497,2.2519,2.2849,2.3478,2.3728,2.4086,2.4544,2.4921,2.5058,2.5076,2.5235,2.5306,2.5306,2.5671,2.5881,2.597,2.6303,2.6533,2.6605,2.6713,2.6459,2.581,2.5912,2.6155,2.6499,2.7261,2.8227,2.9423,3.0031,3.0247,3.016,2.9943,2.9676,2.9361,2.9065,2.8612,2.802,2.7673,2.7115,2.6216,2.4699,2.3373,0.0,0.0,0.0,0.0,0.0,0.0,0.0,0.0,0.0,0.0,0.0,2.0593,2.2036,2.3962,2.51,2.4998,2.5182,2.5445,2.5866,2.5918,2.6133,2.6662,2.7759,2.8404,2.8156,2.9606,3.0512,3.031,3.1236,3.2064,3.2277,3.2478,3.2527,3.2403,3.2892,3.3327,3.3348,3.377,3.4185,3.4371,3.4714,3.4984,3.5077,3.5748,3.6348,3.6394,3.7088,3.7616,3.734,3.7855,3.8331,3.8218,3.8484,3.8937,3.9213,3.9027,3.8771,3.8737,3.8944,3.9171,2.5581,2.4126,2.4307,2.4235,2.3859,2.2805,2.2218,2.2023,2.2041,2.2388,2.2964,2.2964,2.2983,2.302,2.302,2.3205,2.3519,2.3597,2.3799,2.4146,2.4567,2.4729,2.4747,2.5076,2.5259,2.5331,2.5859,2.6233,2.6451,2.6936,2.7248,2.744,2.7453,2.7324,2.7061,2.6794,2.6666,2.67,2.7695,2.8674,2.9654,2.9642,2.9517,2.9353,2.9383,2.9104,2.8456,2.8473,2.8212,2.7613,2.7594,2.7419,2.6912,2.5892,2.4894,0.0,2.3355,0.0,0.0,0.0,0.0,0.0,0.0,0.0,0.0,2.2014,2.2695,2.3965,2.5405,2.6214,2.613,2.6476,2.7074,2.7889,2.8025,2.8279,2.8902,2.9746,3.0284,3.0346,3.1118,3.1657,3.1699,3.2395,3.2863,3.2946,3.3575,3.3915,3.3687,3.3915,3.4143,3.4214,3.4288,3.464,3.4993,3.5645,3.6287,3.6701,3.7074,3.7555,3.7586,3.8259,3.8629,3.8234,3.887,3.9419,3.9204,3.9433,3.9792,4.0164,4.0185,4.0096,3.9771,3.9688,3.9813,2.5581,2.4217,2.5511,2.4939,2.3235,2.3582,2.3087,2.2106,2.2256,2.2486,2.2759,2.2759,2.2852,2.3001,2.302,2.3057,2.3113,2.3446,2.3629,2.3721,2.4127,2.4309,2.4327,2.4706,2.508,2.5457,2.59,2.6352,2.681,2.6925,2.6973,2.701,2.7173,2.7311,2.7422,0.0,0.0,0.0,2.8448,2.8856,2.9057,2.8816,2.8623,2.8613,2.8784,0.0,2.8674,2.8808,2.862,2.804,2.8143,0.0,2.808,0.0,0.0,0.0,0.0,0.0,0.0,0.0,0.0,0.0,2.3451,2.2742,2.2761,2.4181,2.536,2.6016,2.7414,2.8398,2.8721,2.899,2.9289,2.9586,2.9783,3.014,3.0793,3.1319,3.1767,3.216,3.2664,3.3024,3.3024,3.3522,3.3832,3.3853,3.4309,3.4599,3.4558,3.4599,3.4691,3.4703,3.5211,3.5707,3.5852,3.6308,3.666,3.6846,3.7198,3.762,3.8063,3.8484,3.8985,3.9089,3.966,4.0075,4.0005,4.033,4.0634,4.0773,4.0758,4.0717,4.0655,4.0613,4.069,2.5791,2.4779,2.5564,2.4998,0.0,2.3548,2.2961,2.1968,2.2157,2.2384,2.2553,2.2665,2.2759,2.2871,2.2964,2.302,2.302,2.3224,2.3316,2.3316,2.3703,2.4022,2.4272,2.4862,2.5413,2.5906,2.6603,2.7012,2.7301,2.7565,2.7709,2.7666,2.7782,2.7994,2.83,2.8629,2.8687,2.8505,2.8762,2.9057,2.9327,2.917,2.9132,2.92,2.9293,0.0,0.0,0.0,0.0,0.0,0.0,0.0,0.0,2.8281,2.7941,2.7951,2.7968,2.7902,2.778,2.7297,2.6881,2.6626,2.6141,2.5515,2.4856,2.654,2.7785,2.8048,2.9141,2.995,3.0166,3.0696,3.1011,3.0858,3.1291,3.1683,3.1754,3.2292,3.2789,3.3037,3.346,3.375,3.375,3.4143,3.4413,3.4454,3.4797,3.5169,3.5355,3.5262,3.5179,3.5428,3.5997,3.6432,3.6473,3.6618,3.6908,3.7136,3.7529,3.7984,3.844,3.9047,3.9585,3.9833,4.0241,4.0545,4.0587,4.0939,4.125,4.127,4.1436,4.1581,4.1581,4.1415,4.125,2.6086,2.5224,2.5277,2.4832,2.4054,2.3331,2.2534,2.1816,2.1968,0.0,0.0,2.2515,2.2647,2.2703,2.2871,2.2964,2.302,2.302,2.302,2.302,2.3423,2.382,2.4241,2.5027,2.5704,2.6255,2.7142,2.7641,2.7756,2.8266,2.8522,2.8522,2.8522,2.8745,2.9258,2.9776,2.9816,2.9339,2.9157,2.9333,2.9905,2.9854,2.9856,2.9966,2.996,3.0114,3.0419,2.9951,3.0031,3.0809,2.9928,2.9478,2.9719,2.9274,2.883,2.8473,2.8987,2.9161,2.8824,2.9226,2.9051,2.8034,2.8277,2.8112,2.7195,2.8725,2.9729,2.9753,3.0515,3.1061,3.1149,3.1895,3.2206,3.1668,3.2402,3.2678,3.2376,3.2975,3.3584,3.377,3.4143,3.433,3.4371,3.4682,3.4951,3.5055,3.5314,3.5676,3.6059,3.5883,3.5832,3.6142,3.6618,3.6929,3.6949,3.7053,3.7198,3.757,3.8005,3.844,3.8923,3.9626,4.0185,4.0489,4.0779,4.1022,4.1167,4.1477,4.1705,4.1726,4.2016,4.2285,4.2265,4.2058,4.183,2.628,2.4918,2.5189,2.4832,2.4036,2.3313,2.2534,2.1797,2.1856,2.1949,2.2138,2.2176,2.2365,2.2703,2.2721,2.2833,2.3001,2.302,2.302,2.3023,2.3476,2.3736,2.3821,2.4681,2.5363,2.5913,2.678,2.7415,2.788,2.8295,2.8522,2.8522,2.8522,2.8959,2.9868,3.0575,3.0952,3.1035,3.0111,2.993,3.0482,3.003,2.9824,2.9818,2.9843,2.9856,2.9895,3.0165,3.0323,3.0457,3.0655,3.0936,3.1406,3.1327,3.1529,3.1967,3.2515,3.2435,3.1525,3.2135,3.1958,3.0627,3.0483,3.01,2.9205,3.0057,3.069,3.0712,3.1192,3.1691,3.2136,3.2306,3.2353,3.2163,3.2566,3.2959,3.3165,3.3687,3.4288,3.4941,3.519,3.5159,3.519,3.5273,3.548,3.5811,3.5997,3.6204,3.6577,3.666,3.6639,3.6742,3.7094,3.7363,3.7425,3.7736,3.7943,3.8067,3.846,3.8861,3.9337,3.9895,4.053,4.1214,4.1436,4.1622,4.1954,4.214,4.2203,4.2203,4.2327,4.2389,4.241,4.2555,4.258,2.6576,2.599,2.6572,2.636,2.553,2.4336,2.359,2.3225,2.2758,2.2331,2.197,2.2044,2.2271,2.2534,2.2665,2.2966,2.3375,2.3375,2.3547,2.3809,2.4008,2.4268,2.4548,2.5123,2.5839,2.6575,2.7225,2.7786,2.8219,2.8423,2.8522,2.8522,2.8863,2.948,3.02,3.0795,3.1294,3.1626,3.0999,3.0783,3.1009,3.0783,3.0809,3.1065,3.109,3.1321,3.1746,3.1524,3.1674,3.2389,3.1881,3.1967,3.2711,3.247,3.2548,3.3163,3.3738,3.3976,3.3798,3.3399,3.2546,3.1086,3.0921,3.0843,3.0668,3.104,3.128,3.1302,3.1738,3.2132,3.2372,3.2671,3.2793,3.2599,3.3275,3.3778,3.3859,3.4403,3.4962,3.5304,3.5387,3.549,3.5769,3.5811,3.5945,3.6379,3.666,3.6949,3.7156,3.7384,3.7446,3.7281,3.757,3.7819,3.7881,3.8026,3.8274,3.8448,3.8882,3.9337,3.9813,4.0448,4.1048,4.1519,4.1788,4.2037,4.2306,4.2513,4.258,4.2642,4.2849,4.2952,4.3035,4.318,4.3201,2.7031,2.6766,2.749,2.7255,2.6273,2.5024,2.4379,2.4164,2.3665,2.2988,2.2208,2.2281,2.2454,2.2664,2.271,2.3096,2.3638,2.365,2.3909,2.4385,2.4576,2.4856,2.5204,2.5617,2.621,2.6896,2.7371,2.78,2.8179,2.8323,2.8471,2.8739,2.9479,3.0157,3.0678,3.1156,3.1659,3.2112,3.193,3.1783,3.1783,3.1763,3.2009,3.2365,3.239,3.2701,3.3275,3.2807,3.2971,3.3817,3.3091,3.3033,3.3798,3.3515,3.3555,3.411,3.4685,3.5127,3.5373,3.4047,3.2672,3.152,3.1187,3.1258,3.1717,3.1756,3.1804,3.1822,3.2267,3.2564,3.2676,3.3117,3.3354,3.319,3.3928,3.4386,3.4348,3.4859,3.5314,3.5397,3.55,3.5697,3.6039,3.6308,3.6639,3.7074,3.7508,3.7757,3.7715,3.7984,3.8005,3.7943,3.8026,3.8212,3.8295,3.8336,3.8543,3.8903,3.9358,3.9813,4.0344,4.1048,4.1685,4.1892,4.2223,4.2493,4.2596,4.2828,4.3056,4.306,4.3304,4.3553,4.3532,4.3553,4.3594,2.7757,2.6499,2.6928,2.6121,2.4873,2.4598,2.4127,2.3548,2.4066,2.3904,2.316,2.31,2.32,2.3318,2.2978,2.318,2.376,2.3552,2.3716,2.421,2.4843,2.5162,2.525,2.5684,2.5946,2.6114,2.653,2.7001,2.745,2.782,2.84,2.9251,3.0272,3.0992,3.1479,3.2004,3.2491,3.2972,3.2964,3.2939,3.2939,3.2939,3.2964,3.3014,3.3014,3.304,3.3133,3.3399,3.3526,3.3513,3.3943,3.4355,3.4748,3.4923,3.5286,3.5809,3.641,3.6628,3.6123,3.4341,3.3164,3.2957,3.205,3.176,3.2241,3.2333,3.2328,3.2416,3.277,3.3051,3.3235,3.3621,3.3813,3.373,3.4182,3.4524,3.468,3.4786,3.5013,3.5376,3.578,3.6048,3.6308,3.6929,3.757,3.8005,3.8344,3.851,3.8274,3.8253,3.844,3.8564,3.8481,3.8419,3.8654,3.8758,3.8965,3.9358,3.9813,4.0226,4.0696,4.125,4.1809,4.2348,4.2766,4.2973,4.3263,4.3532,4.3511,4.3449,4.3532,4.3615,4.3615,4.3615,4.3615,2.7759,2.768,2.8348,2.7626,2.6079,2.5473,2.5067,2.476,2.4553,2.4553,2.4656,2.42,2.3805,2.3507,2.3297,2.3565,2.4191,2.4221,2.4514,2.4987,2.5431,2.5621,2.5622,2.5797,2.601,2.6259,2.6693,2.7144,2.7661,2.837,2.9248,3.0182,3.0708,3.1153,3.1663,3.2147,3.2509,3.2705,3.2939,3.3115,3.3115,3.3115,3.3115,3.3115,3.3115,3.3115,3.3162,3.3564,3.385,3.3918,3.4484,3.5006,3.5413,3.5526,3.5917,3.6597,3.7194,3.7177,3.6355,3.4945,3.387,3.325,3.2508,3.2175,3.242,3.2896,3.317,3.2982,3.3106,3.3328,3.3664,3.3799,3.398,3.4182,3.4494,3.4699,3.4795,3.5252,3.5645,3.5821,3.6246,3.6763,3.7322,3.8129,3.873,3.8978,3.913,3.9109,3.8978,3.8978,3.9027,3.9151,3.9047,3.9027,3.9192,3.9233,3.942,3.9771,4.0054,4.0344,4.0897,4.156,4.2161,4.2555,4.2952,4.3287,4.3494,4.3615,4.3615,4.3615,4.3615,4.3615,4.3615,4.3615,4.3615,2.781,2.847,2.8673,2.7951,2.6709,2.609,2.5673,2.5442,2.502,2.5105,2.5337,2.4786,2.4303,2.3971,2.372,2.3927,2.445,2.4634,2.5013,2.5485,2.578,2.5906,2.5906,2.5906,2.6052,2.6342,2.6631,2.7215,2.7956,2.9044,3.0007,3.0807,3.1045,3.1354,3.1757,3.2203,3.2444,3.2506,3.2896,3.3115,3.3115,3.3115,3.3115,3.3115,3.3241,3.3294,3.3341,3.3888,3.4256,3.4366,3.4949,3.5452,3.5807,3.6008,3.6467,3.7172,3.7665,3.7297,3.5976,3.521,3.4285,3.3128,3.2539,3.2424,3.2778,3.3263,3.3599,3.3741,3.3547,3.3584,3.3848,3.4099,3.432,3.4566,3.4803,3.4993,3.52,3.5769,3.6142,3.6308,3.6846,3.7591,3.8564,3.9288,3.9647,3.9668,3.9688,3.9606,3.9523,3.9482,3.9502,3.9668,3.9688,3.9688,3.9688,3.9688,3.993,4.022,4.0406,4.0634,4.1125,4.1933,4.2534,4.287,4.3325,4.3553,4.3594,4.3615,4.3615,4.3615,4.3615,4.3615,4.3615,4.3615,4.3615,2.8231,2.8231,2.6709,2.611,2.5861,2.5777,2.5359,2.4828,2.538,2.5295,2.4742,2.4592,2.4735,2.5026,2.4323,2.4136,2.4511,2.4597,2.487,2.5381,2.5761,2.5928,2.5906,2.5906,2.5949,2.6056,2.6225,2.6886,2.8135,2.9468,3.0423,3.0903,3.1382,3.1757,3.1959,3.2269,3.2484,3.2658,3.2939,3.3115,3.3115,3.3115,3.314,3.319,3.3571,3.3847,3.3944,3.4622,3.4925,3.4675,3.5382,3.5814,3.5955,3.6554,3.7179,3.7746,3.7851,3.6992,3.5283,3.4848,3.4154,3.2738,3.2236,3.2447,3.3372,3.332,3.3555,3.4568,3.4103,3.3899,3.3967,3.4517,3.4921,3.4825,3.5158,3.5562,3.5956,3.6101,3.6328,3.6825,3.7632,3.8605,3.9833,4.0123,4.0206,4.0226,4.0185,4.0102,3.9792,3.9626,3.9771,4.004,4.0164,4.0164,4.0164,4.0164,4.0386,4.0696,4.0924,4.1146,4.1788,4.2389,4.2824,4.3159,4.3428,4.3573,4.3594,4.3615,4.3615,4.3615,4.3615,4.3615,4.3615,4.3615,4.3615,2.8251,2.8371,2.7159,2.6627,2.6504,2.5442,2.5232,2.5744,2.5507,2.5436,2.5422,2.5399,2.5482,2.5627,2.5338,2.5342,2.56,2.5486,2.5744,2.6324,2.6672,2.6802,2.6802,2.6802,2.6606,2.6452,2.695,2.7975,2.9339,3.0259,3.0896,3.1338,3.1597,3.1739,3.1849,3.2201,3.2419,3.2553,3.2874,3.3115,3.3165,3.342,3.3596,3.3621,3.3796,3.4073,3.4424,3.502,3.5321,3.523,3.5833,3.625,3.6426,3.6824,3.7157,3.7364,3.739,3.6758,3.5476,3.4892,3.4181,3.3005,3.2673,3.2693,3.3182,3.3578,3.3919,3.4143,3.4589,3.4604,3.4509,3.475,3.5031,3.5221,3.5583,3.5904,3.6183,3.6618,3.7177,3.7736,3.8709,3.9702,4.0158,4.0717,4.1069,4.1089,4.1069,4.0965,4.0841,4.0593,4.0427,4.0572,4.0634,4.0634,4.0634,4.0634,4.0779,4.111,4.1436,4.1643,4.212,4.2555,4.2952,4.3139,4.3408,4.3594,4.3615,4.3615,4.3615,4.3615,4.3615,4.3615,4.3615,4.3615,4.3615,2.781,2.7284,2.7487,2.7131,2.6416,2.553,2.5571,2.6236,2.5685,2.5606,2.5877,2.5918,2.598,2.6063,2.596,2.6182,2.656,2.6293,2.6364,2.6778,2.7129,2.7151,2.6889,2.6998,2.6911,2.6802,2.7546,2.8697,2.99,3.0459,3.1027,3.1649,3.1717,3.1717,3.1783,3.2069,3.2313,3.2466,3.2788,3.3079,3.3345,3.3696,3.4098,3.4374,3.4402,3.4577,3.4979,3.5481,3.5782,3.5855,3.6227,3.6593,3.6803,3.6896,3.7015,3.7111,3.7264,3.6728,3.5454,3.5048,3.436,3.3135,3.2862,3.2859,3.3303,3.3776,3.4025,3.4316,3.4658,3.5018,3.5054,3.5138,3.5314,3.5645,3.6059,3.6441,3.6763,3.7343,3.8026,3.8792,3.9578,4.022,4.0669,4.1208,4.1581,4.1788,4.1726,4.1602,4.154,4.1229,4.0918,4.0939,4.1063,4.1089,4.1208,4.1291,4.1229,4.1519,4.183,4.2078,4.2368,4.2745,4.2994,4.3159,4.3325,4.3511,4.3615,4.3615,4.3615,4.3615,4.3615,4.3615,4.3615,4.3615,4.3615,2.6958,2.5359,2.7386,2.7279,2.5762,2.6152,2.6257,2.6126,2.5986,2.596,2.6084,2.6001,2.6229,2.6438,2.6254,2.6461,2.6993,2.6808,2.66,2.6628,2.7085,2.6955,2.6343,2.6671,2.6868,2.6867,2.7632,2.8567,2.9616,3.0186,3.0891,3.156,3.1717,3.1717,3.1717,3.1937,3.2181,3.2471,3.2736,3.3174,3.3778,3.3997,3.45,3.5282,3.5408,3.5458,3.5508,3.6056,3.6331,3.6355,3.6545,3.6828,3.6945,3.6902,3.6854,3.7122,3.7528,3.6773,3.5092,3.5084,3.4449,3.3165,3.2629,3.3008,3.3761,3.3809,3.403,3.4775,3.4946,3.4972,3.5397,3.5811,3.6039,3.6111,3.6494,3.7115,3.7777,3.8129,3.8688,3.9709,4.0164,4.0613,4.1291,4.1705,4.1933,4.214,4.2016,4.1788,4.1788,4.1436,4.1042,4.1063,4.1353,4.1602,4.1767,4.1933,4.185,4.1871,4.2161,4.2451,4.2745,4.3097,4.3221,4.3366,4.3428,4.3615,4.3615,4.3615,4.3615,4.3615,4.3615,4.3615,4.3615,4.3615,4.3615,2.6685,2.6851,2.7752,2.7588,2.6647,2.6976,2.7171,2.7199,2.6672,2.6584,2.6809,2.6851,2.6838,2.6873,2.698,2.7087,2.7117,2.7269,2.7404,2.7475,2.7674,2.7807,2.7807,2.7631,2.7762,2.8161,2.8746,2.9352,3.0008,3.0799,3.1427,3.1649,3.1717,3.1717,3.1739,3.2069,3.2482,3.2938,3.3339,3.3831,3.4427,3.4803,3.5205,3.5483,3.5906,3.613,3.613,3.6306,3.6405,3.6405,3.6452,3.6546,3.6644,3.6876,3.7078,3.7129,3.6899,3.6224,3.4948,3.437,3.3709,3.2692,3.2752,3.321,3.3693,3.4117,3.4493,3.4958,3.5085,3.5397,3.5852,3.6308,3.6453,3.6131,3.6804,3.7384,3.7819,3.8316,3.8903,3.9606,4.0303,4.0903,4.1524,4.1979,4.2476,4.2642,4.2538,4.2435,4.2393,4.2021,4.1892,4.1892,4.2058,4.2078,4.2203,4.241,4.2497,4.2472,4.26,4.2787,4.3118,4.3304,4.3428,4.3511,4.3573,4.3615,4.3615,4.3615,4.3615,4.3615,4.3615,4.3615,4.3615,4.3615,4.3615,2.696,2.7641,2.8026,2.7912,2.7567,2.79,2.7918,2.7693,2.7482,2.7348,2.7315,2.7309,2.7235,2.7165,2.7445,2.7408,2.7179,2.7702,2.7993,2.8001,2.798,2.8134,2.8266,2.8112,2.8155,2.8578,2.9173,2.9737,3.0215,3.0982,3.1518,3.1673,3.1717,3.1717,3.1763,3.2242,3.2779,3.3231,3.3764,3.4362,3.4931,3.5332,3.5631,3.5855,3.6205,3.6405,3.6405,3.6405,3.6405,3.6405,3.6405,3.6505,3.6683,3.6833,3.6891,3.6801,3.6472,3.572,3.4494,3.4107,3.3538,3.2837,3.3058,3.3584,3.3915,3.4558,3.4806,3.5055,3.5418,3.5759,3.6121,3.6701,3.6867,3.668,3.7301,3.7777,3.8046,3.8758,3.9482,4.0081,4.0717,4.1338,4.2042,4.2456,4.2956,4.306,4.2977,4.2932,4.2828,4.2555,4.241,4.2368,4.2451,4.2456,4.2538,4.2787,4.3118,4.3139,4.3139,4.3263,4.3449,4.3491,4.3573,4.3573,4.3615,4.3615,4.3615,4.3615,4.3615,4.3615,4.3615,4.3615,4.3615,4.3615,4.3615,2.7537,2.7437,2.8137,2.8209,2.8003,2.8746,2.8425,2.7581,2.8096,2.7955,2.7428,2.7368,2.7354,2.7404,2.766,2.7619,2.7491,2.796,2.8145,2.8021,2.798,2.7871,2.7631,2.7959,2.8177,2.8312,2.9124,2.9783,3.0238,3.0825,3.1183,3.1649,3.1789,3.1789,3.1978,3.2495,3.3081,3.3504,3.4146,3.4846,3.5508,3.5558,3.5807,3.6306,3.638,3.6405,3.6405,3.6405,3.6405,3.6405,3.6405,3.6582,3.6934,3.6707,3.6625,3.6443,3.6334,3.5399,3.4238,3.4035,3.399,3.3376,3.3451,3.3812,3.4537,3.4786,3.5045,3.5438,3.5811,3.6121,3.637,3.6949,3.7384,3.757,3.7839,3.8274,3.8778,3.9523,4.0081,4.0696,4.1332,4.1933,4.2683,4.2911,4.318,4.3366,4.3204,4.3097,4.2994,4.2787,4.2493,4.2575,4.2828,4.2911,4.2994,4.3097,4.3349,4.3387,4.3408,4.3491,4.3573,4.3594,4.3615,4.3615,4.3615,4.3615,4.3615,4.3615,4.3615,4.3615,4.3615,4.3615,4.3615,4.3615,4.3615,2.6926,2.7762,2.8031,2.7886,2.7645,2.8458,2.8269,2.7404,2.757,2.7662,2.7372,2.7614,2.7765,2.7849,2.8238,2.8201,2.7965,2.8039,2.8086,2.8001,2.798,2.7936,2.7937,2.8331,2.8572,2.8733,2.951,3.008,3.0261,3.1072,3.154,3.1719,3.208,3.225,3.2414,3.3189,3.3906,3.4388,3.4906,3.5512,3.6008,3.6155,3.623,3.638,3.6405,3.6405,3.6405,3.6405,3.6405,3.6405,3.6405,3.6431,3.6708,3.7161,3.7122,3.646,3.6224,3.5684,3.4538,3.3912,3.362,3.3497,3.3998,3.4537,3.4744,3.5066,3.5438,3.58,3.608,3.6411,3.697,3.7363,3.7653,3.7964,3.8191,3.8419,3.8799,3.9316,4.0013,4.0814,4.1602,4.229,4.2828,4.3201,4.3449,4.3532,4.3491,4.3366,4.3284,4.3263,4.3052,4.318,4.3387,4.3408,4.3411,4.3473,4.3573,4.3573,4.3553,4.3553,4.3594,4.3615,4.3615,4.3615,4.3615,4.3615,4.3615,4.3615,4.3615,4.3615,4.3615,4.3615,4.3615,4.3615,4.3615,2.7329,2.8195,2.785,2.7789,2.793,2.8491,2.8141,2.7565,2.7926,2.7914,2.7731,2.8028,2.8216,2.8298,2.8773,2.8737,2.8353,2.8521,2.8526,2.8353,2.8353,2.8353,2.8418,2.8705,2.8885,2.9163,2.9852,3.0261,3.06,3.134,3.1793,3.2056,3.2346,3.2611,3.2898,3.3703,3.4303,3.4691,3.5311,3.5917,3.6216,3.6359,3.6405,3.6405,3.6405,3.6405,3.6405,3.6405,3.6405,3.6405,3.643,3.6582,3.7036,3.7265,3.7219,3.6606,3.634,3.5703,3.479,3.4164,3.4006,3.4146,3.4648,3.4827,3.5024,3.5293,3.5573,3.6018,3.6235,3.6763,3.7363,3.7819,3.8253,3.8688,3.875,3.8737,3.8807,3.9585,4.0344,4.1151,4.1938,4.2704,4.3139,4.3449,4.3573,4.3615,4.3615,4.3573,4.3573,4.3615,4.3615,4.3615,4.3615,4.3573,4.3532,4.3594,4.3615,4.3615,4.3615,4.3615,4.3615,4.3615,4.3615,4.3615,4.3615,4.3615,4.3615,4.3615,4.3615,4.3615,4.3615,4.3615,4.3615,4.3615,4.3615,2.8101,2.8468,2.7644,2.7786,2.8421,2.8603,2.8104,2.7738,2.862,2.8691,2.8237,2.8508,2.8774,2.8769,2.9239,2.922,2.8911,2.9083,2.9006,2.8813,2.8749,2.8727,2.8727,2.8749,2.9024,2.9439,2.9966,3.0489,3.1011,3.1548,3.2082,3.2515,3.2683,3.2923,3.3427,3.4121,3.4458,3.477,3.5516,3.5975,3.6169,3.6312,3.6381,3.6405,3.6405,3.6405,3.6405,3.643,3.643,3.6505,3.6457,3.6935,3.764,3.7145,3.6964,3.6879,3.6417,3.5803,3.5055,3.4798,3.4786,3.5011,3.4946,3.5044,3.5345,3.5469,3.5769,3.6225,3.6618,3.7136,3.7715,3.8365,3.8861,3.9254,3.9461,3.9358,3.9316,4.0158,4.1167,4.1664,4.2435,4.3118,4.3449,4.3615,4.3615,4.3615,4.3615,4.3615,4.3615,4.3615,4.3615,4.3615,4.3615,4.3615,4.3594,4.3615,4.3615,4.3615,4.3615,4.3615,4.3615,4.3615,4.3615,4.3615,4.3615,4.3615,4.3615,4.3615,4.3615,4.3615,4.3615,4.3615,4.3615,4.3615,4.3615,2.7489,2.7573,2.7381,2.7428,2.7612,2.7926,2.7973,2.7845,2.8477,2.8735,2.8641,2.9165,2.9577,2.9779,2.9757,2.9753,2.968,2.9354,2.888,2.8836,2.8814,2.8814,2.8836,2.888,2.9115,2.9576,3.0011,3.0696,3.1454,3.2097,3.2587,3.3092,3.3405,3.3742,3.3933,3.4534,3.5113,3.5377,3.5786,3.6074,3.6216,3.6359,3.6405,3.6405,3.6405,3.6405,3.6405,3.6405,3.6607,3.6909,3.7036,3.7165,3.7294,3.7517,3.7387,3.6949,3.6635,3.6128,3.5555,3.5451,3.5383,3.5321,3.5493,3.556,3.5397,3.5769,3.6142,3.6618,3.7094,3.7632,3.8365,3.8675,3.9109,3.9523,3.9854,3.9999,4.0081,4.08,4.156,4.212,4.2807,4.3491,4.3553,4.3553,4.3553,4.3594,4.3615,4.3615,4.3615,4.3615,4.3615,4.3615,4.3615,4.3615,4.3615,4.3615,4.3615,4.3615,4.3615,4.3615,4.3615,4.3615,4.3615,4.3615,4.3615,4.3615,4.3615,4.3615,4.3615,4.3615,4.3615,4.3615,4.3615,4.3615,4.3615,2.7907,2.7928,2.7928,2.7928,2.7945,2.8152,2.821,2.8363,2.8857,2.9094,2.9274,2.9875,3.0291,3.0444,3.0442,3.045,3.0209,2.9768,2.9469,2.9491,2.9491,2.9469,2.9469,2.9496,2.9713,3.0191,3.0445,3.1228,3.2225,3.2738,3.3117,3.3573,3.391,3.4126,3.4366,3.4776,3.5042,3.5211,3.562,3.5884,3.6027,3.6287,3.6405,3.6405,3.6405,3.6405,3.6405,3.6658,3.6837,3.7091,3.7467,3.7692,3.7568,3.7778,3.7702,3.7499,3.7249,3.7,3.6619,3.631,3.6191,3.5979,3.599,3.5923,3.5894,3.6091,3.64,3.697,3.7425,3.7922,3.8965,3.913,3.942,4.0034,4.0365,4.051,4.0634,4.1151,4.1664,4.2037,4.2513,4.2807,4.2994,4.3242,4.3287,4.3284,4.3594,4.3615,4.3615,4.3615,4.3615,4.3615,4.3615,4.3615,4.3615,4.3615,4.3615,4.3615,4.3615,4.3615,4.3615,4.3615,4.3615,4.3615,4.3615,4.3615,4.3615,4.3615,4.3615,4.3615,4.3615,4.3615,4.3615,4.3615,4.3615,2.8479,2.8479,2.8479,2.852,2.8628,2.8669,2.8686,2.8819,2.9437,2.9701,2.9917,3.0524,3.0738,3.0888,3.0995,3.086,3.0481,3.0283,3.0057,3.0057,3.0035,3.0132,3.0202,3.0303,3.0692,3.1227,3.1158,3.1926,3.2981,3.3428,3.3645,3.4054,3.415,3.4366,3.4727,3.4799,3.4872,3.5017,3.5356,3.5596,3.5716,3.6073,3.6287,3.6405,3.6581,3.6582,3.6708,3.6962,3.7217,3.7096,3.794,3.8335,3.84,3.8172,3.8162,3.8382,3.8028,3.7688,3.7495,3.7202,3.692,3.6975,3.656,3.6392,3.6541,3.6623,3.6859,3.7239,3.7736,3.8274,3.9337,3.9585,4.0034,4.0593,4.0841,4.0939,4.1063,4.1332,4.1457,4.1705,4.2182,4.2555,4.2683,4.289,4.2932,4.3018,4.3387,4.3615,4.3615,4.3615,4.3615,4.3615,4.3615,4.3615,4.3615,4.3615,4.3615,4.3615,4.3615,4.3615,4.3615,4.3615,4.3615,4.3615,4.3615,4.3615,4.3615,4.3615,4.3615,4.3615,4.3615,4.3615,4.3615,4.3615,4.3615,2.8003,2.8003,2.8024,2.8231,2.8624,2.9021,2.9187,2.927,2.9746,3.0078,3.0317,3.0655,3.0983,3.1077,3.0969,3.07,3.046,3.0381,3.0294,3.0319,3.0341,3.0488,3.0803,3.0947,3.16,3.2341,3.2226,3.2534,3.3553,3.3934,3.415,3.4559,3.4631,3.4727,3.4751,3.4799,3.4896,3.4993,3.5235,3.5404,3.5644,3.5955,3.6266,3.6458,3.6784,3.6961,3.7114,3.7368,3.7717,3.8114,3.8322,3.8522,3.8618,3.8458,3.8603,3.8817,3.8268,3.7879,3.8045,3.7662,3.7432,3.7425,3.7286,3.7179,3.7287,3.741,3.7487,3.7677,3.8179,3.882,3.942,3.9813,4.0303,4.0737,4.098,4.1104,4.1332,4.1374,4.1332,4.1602,4.2016,4.2327,4.2451,4.2621,4.287,4.3077,4.3428,4.3594,4.3615,4.3615,4.3615,4.3615,4.3615,4.3615,4.3615,4.3615,4.3615,4.3615,4.3615,4.3615,4.3615,4.3615,4.3615,4.3615,4.3615,4.3615,4.3615,4.3615,4.3615,4.3615,4.3615,4.3615,4.3615,4.3615,4.3615,2.8773,2.898,2.8975,2.9125,2.9352,2.9559,2.9741,2.9917,3.0255,3.0568,3.0806,3.109,3.127,3.1359,3.1309,3.1102,3.0949,3.0905,3.0905,3.0952,3.0952,3.1027,3.1359,3.158,3.2283,3.2961,3.3016,3.3334,3.4318,3.4438,3.4534,3.4703,3.4799,3.4799,3.4799,3.4799,3.4872,3.4993,3.5138,3.5332,3.562,3.5979,3.6364,3.6762,3.694,3.7142,3.7493,3.7989,3.8255,3.8442,3.8759,3.9086,3.9141,3.8989,3.8845,3.9023,3.8482,3.8089,3.8313,3.7987,3.7815,3.7857,3.7816,3.7804,3.7805,3.7851,3.7892,3.8204,3.8406,3.9109,3.9813,4.0061,4.0495,4.1069,4.125,4.1457,4.1747,4.1685,4.1622,4.154,4.1519,4.1747,4.2099,4.2352,4.2766,4.3118,4.3449,4.3553,4.3615,4.3615,4.3615,4.3615,4.3615,4.3615,4.3615,4.3615,4.3615,4.3615,4.3615,4.3615,4.3615,4.3615,4.3615,4.3615,4.3615,4.3615,4.3615,4.3615,4.3615,4.3615,4.3615,4.3615,4.3615,4.3615,4.3615,2.9518,2.9849,2.9849,2.9911,3.002,3.0047,3.0183,3.0417,3.0672,3.0931,3.1215,3.1399,3.1527,3.1582,3.1556,3.156,3.1604,3.156,3.1516,3.1546,3.1673,3.179,3.2066,3.2446,3.3055,3.3653,3.3897,3.4384,3.463,3.4727,3.4775,3.4799,3.4799,3.4799,3.4799,3.4799,3.4799,3.4872,3.4993,3.5235,3.5596,3.6055,3.6494,3.6969,3.6973,3.7221,3.7788,3.8138,3.854,3.8766,3.907,3.9451,3.9604,3.9376,3.9175,3.9041,3.8737,3.856,3.8408,3.8376,3.8304,3.8491,3.8206,3.8327,3.8377,3.828,3.815,3.8758,3.913,3.9399,4.0019,4.0303,4.0696,4.1146,4.1415,4.1581,4.183,4.185,4.1643,4.1457,4.1125,4.1374,4.1933,4.2244,4.2642,4.3201,4.3553,4.3573,4.3615,4.3615,4.3615,4.3615,4.3615,4.3615,4.3615,4.3615,4.3615,4.3615,4.3615,4.3615,4.3615,4.3615,4.3615,4.3615,4.3615,4.3615,4.3615,4.3615,4.3615,4.3615,4.3615,4.3615,4.3615,4.3615,4.3615,2.9332,2.9394,2.9394,2.9622,3.0005,3.0235,3.0365,3.0443,3.0724,3.0957,3.1284,3.1292,3.1468,3.1596,3.1604,3.1604,3.1604,3.1604,3.1604,3.1655,3.1964,3.2345,3.2946,3.357,3.3818,3.4237,3.4531,3.4726,3.4799,3.4799,3.4799,3.4799,3.4799,3.4799,3.4799,3.4799,3.4799,3.4799,3.4848,3.5017,3.5357,3.5819,3.6113,3.6504,3.6989,3.7668,3.8097,3.8243,3.8397,3.9176,3.9109,3.9091,3.9186,3.9682,3.9671,3.9515,3.9228,3.8908,3.87,3.8706,3.8818,3.9048,3.898,3.897,3.8927,3.8829,3.8799,3.9337,3.973,4.0034,4.0303,4.0572,4.082,4.1022,4.1208,4.1395,4.1643,4.1954,4.1747,4.154,4.127,4.1622,4.2099,4.2306,4.2575,4.3118,4.3573,4.3594,4.3615,4.3615,4.3615,4.3615,4.3615,4.3615,4.3615,4.3615,4.3615,4.3615,4.3615,4.3615,4.3615,4.3615,4.3615,4.3615,4.3615,4.3615,4.3615,4.3615,4.3615,4.3615,4.3615,4.3615,4.3615,4.3615,4.3615,2.9704,2.9704,2.9684,2.9912,3.0235,3.0339,3.0573,3.0832,3.0983,3.1365,3.1815,3.1884,3.1962,3.1975,3.1756,3.1604,3.1604,3.1604,3.1604,3.1629,3.1913,3.2291,3.2723,3.3296,3.3818,3.436,3.4628,3.475,3.4799,3.4799,3.4799,3.4799,3.4799,3.4799,3.4799,3.4799,3.4799,3.4848,3.4969,3.526,3.56,3.594,3.6425,3.72,3.7268,3.7726,3.8224,3.8367,3.8498,3.9117,3.9041,3.9229,3.9419,3.9621,3.9531,3.9461,3.9606,3.9419,3.9117,3.917,3.9276,3.9314,3.9389,3.9484,3.9395,3.9293,3.9399,3.9854,4.0061,4.0288,4.053,4.0794,4.1042,4.1167,4.1146,4.1457,4.1685,4.1788,4.185,4.1622,4.1498,4.1788,4.2078,4.2285,4.2638,4.3263,4.3594,4.3594,4.3615,4.3615,4.3615,4.3615,4.3615,4.3615,4.3615,4.3615,4.3615,4.3615,4.3615,4.3615,4.3615,4.3615,4.3615,4.3615,4.3615,4.3615,4.3615,4.3615,4.3615,4.3615,4.3615,4.3615,4.3615,4.3615,4.3615,2.9994,2.9994,2.9994,3.0177,3.0417,3.0469,3.0839,3.134,3.1486,3.1902,3.2389,3.2437,3.2372,3.2289,3.1844,3.1604,3.1604,3.1604,3.1604,3.1629,3.191,3.2316,3.2848,3.3296,3.3892,3.4188,3.4628,3.4775,3.4799,3.4799,3.4799,3.4799,3.4799,3.4799,3.4799,3.4799,3.4799,3.4823,3.5114,3.5428,3.5742,3.6224,3.6842,3.7321,3.7534,3.7589,3.8287,3.8051,3.8105,3.8932,3.868,3.8811,3.9346,3.9339,3.9346,3.9459,3.9802,3.997,3.9742,3.9713,3.9606,3.9616,3.9583,3.9825,3.9751,3.9688,3.9854,4.0309,4.0406,4.0613,4.0779,4.0897,4.1022,4.1187,4.1312,4.1643,4.183,4.1685,4.156,4.1353,4.1353,4.1726,4.1995,4.2203,4.27,4.3387,4.3615,4.3615,4.3615,4.3615,4.3615,4.3615,4.3615,4.3615,4.3615,4.3615,4.3615,4.3615,4.3615,4.3615,4.3615,4.3615,4.3615,4.3615,4.3615,4.3615,4.3615,4.3615,4.3615,4.3615,4.3615,4.3615,4.3615,4.3615,4.3615,2.9994,2.9994,3.002,3.0198,3.0438,3.0672,3.1192,3.1918,3.2176,3.2564,3.2967,3.2639,3.2486,3.2311,3.1913,3.1604,3.1604,3.1604,3.1655,3.1986,3.2519,3.2896,3.3346,3.3941,3.4531,3.4653,3.4775,3.4775,3.4799,3.4799,3.4799,3.4799,3.4799,3.4799,3.4823,3.4871,3.4919,3.5039,3.5353,3.554,3.5915,3.6402,3.7032,3.6839,3.733,3.7873,3.8053,3.7466,3.7605,3.8806,3.8315,3.8236,3.8835,3.9032,3.9131,3.939,3.9985,4.0135,4.0057,4.0189,4.0307,4.0268,4.0172,4.0097,4.0151,4.0143,4.0371,4.0696,4.0696,4.0758,4.0897,4.0918,4.098,4.1042,4.1125,4.1187,4.1312,4.1229,4.1104,4.1001,4.1187,4.154,4.1995,4.2223,4.2741,4.3428,4.3615,4.3615,4.3615,4.3615,4.3615,4.3615,4.3615,4.3615,4.3615,4.3615,4.3615,4.3615,4.3615,4.3615,4.3615,4.3615,4.3615,4.3615,4.3615,4.3615,4.3615,4.3615,4.3615,4.3615,4.3615,4.3615,4.3615,4.3615,4.3615,3.0402,3.07,3.0858,3.0969,3.11,3.1363,3.1909,3.2584,3.2782,3.3098,3.3513,3.3076,3.2835,3.2617,3.1931,3.1604,3.1604,3.1604,3.1783,3.2091,3.2547,3.3097,3.3595,3.4065,3.4433,3.4726,3.4799,3.4799,3.4799,3.4799,3.4799,3.4799,3.4823,3.4799,3.4847,3.5087,3.5256,3.5398,3.5706,3.6008,3.6635,3.6507,3.6989,3.7724,3.7135,3.7665,3.7931,3.7549,3.7872,3.8205,3.8038,3.8199,3.8466,3.8725,3.8931,3.9169,3.9816,4.0036,4.0066,4.0359,4.0749,4.0557,4.0354,4.0277,4.053,4.0613,4.0675,4.082,4.0918,4.0918,4.0918,4.0918,4.0918,4.0918,4.0918,4.0918,4.0918,4.0918,4.0918,4.0939,4.1084,4.1353,4.183,4.2285,4.2866,4.3428,4.3532,4.3615,4.3615,4.3615,4.3615,4.3615,4.3615,4.3615,4.3615,4.3615,4.3615,4.3615,4.3615,4.3615,4.3615,4.3615,4.3615,4.3615,4.3615,4.3615,4.3615,4.3615,4.3615,4.3615,4.3615,4.3615,4.3615,4.3615,4.3615,3.079,3.1158,3.1657,3.1854,3.1881,3.2045,3.2565,3.3224,3.3316,3.3579,3.3967,3.3535,3.3316,3.3076,3.2503,3.2084,3.2062,3.2005,3.2123,3.2367,3.2659,3.3094,3.3645,3.4139,3.4531,3.475,3.4799,3.4799,3.4799,3.4799,3.4799,3.4823,3.4943,3.4991,3.4919,3.5328,3.5639,3.5778,3.6272,3.6481,3.6996,3.7132,3.6979,3.7966,3.7599,3.7616,3.7797,3.7572,3.7686,3.7965,3.8034,3.8077,3.832,3.8556,3.874,3.9034,3.9399,3.9702,3.9806,4.0159,4.0798,4.0717,4.0421,4.0522,4.0743,4.0811,4.0683,4.0897,4.0918,4.0918,4.0918,4.0918,4.0918,4.0918,4.0918,4.0918,4.0918,4.0918,4.0918,4.0918,4.1084,4.127,4.2037,4.2575,4.3035,4.3491,4.3553,4.3615,4.3615,4.3615,4.3615,4.3615,4.3615,4.3615,4.3615,4.3615,4.3615,4.3615,4.3615,4.3615,4.3615,4.3615,4.3615,4.3615,4.3615,4.3615,4.3615,4.3615,4.3615,4.3615,4.3615,4.3615,4.3615,4.3615,4.3615,3.1131,3.1226,3.226,3.2669,3.2712,3.2696,3.3117,3.3748,3.3792,3.401,3.431,3.3923,3.3726,3.36,3.3054,3.2835,3.2743,3.2503,3.2503,3.2675,3.315,3.3307,3.3784,3.4375,3.5013,3.4847,3.4895,3.4943,3.4871,3.4823,3.4823,3.5015,3.5254,3.5375,3.4919,3.5376,3.5755,3.6125,3.6946,3.6931,3.6925,3.7485,3.753,3.7666,3.7657,3.7687,3.7746,3.752,3.7665,3.7984,3.7823,3.7893,3.8208,3.8381,3.856,3.881,3.9321,3.956,3.9651,4.0024,4.03,4.0604,4.0289,4.0407,4.0647,4.0632,4.0561,4.0847,4.0918,4.0918,4.0918,4.0918,4.0918,4.0918,4.0918,4.0918,4.0918,4.0918,4.0918,4.0918,4.1001,4.127,4.2182,4.289,4.3325,4.3594,4.3615,4.3615,4.3615,4.3615,4.3615,4.3615,4.3615,4.3615,4.3615,4.3615,4.3615,4.3615,4.3615,4.3615,4.3615,4.3615,4.3615,4.3615,4.3615,4.3615,4.3615,4.3615,4.3615,4.3615,4.3615,4.3615,4.3615,4.3615,4.3615,3.2005,3.2384,3.3106,3.3612,3.3829,3.3546,3.3781,3.4201,3.4294,3.4332,3.4376,3.401,3.3814,3.3639,3.3404,3.3163,3.3098,3.3059,3.2937,3.3416,3.3922,3.446,3.4873,3.526,3.5784,3.5761,3.5617,3.5328,3.5352,3.5111,3.5111,3.5327,3.5754,3.5825,3.6044,3.6422,3.6854,3.6873,3.7321,3.7566,3.74,3.7394,3.748,3.764,3.7638,3.7654,3.7816,3.7575,3.7698,3.8066,3.7875,3.7865,3.8081,3.8241,3.8425,3.854,3.8859,3.9457,3.9513,3.9712,3.9717,3.991,4.0074,4.013,4.0382,4.0382,4.0525,4.0775,4.0882,4.0918,4.0918,4.0918,4.0918,4.0918,4.0918,4.0918,4.0918,4.0918,4.0918,4.0918,4.0959,4.1436,4.2182,4.2952,4.347,4.3615,4.3615,4.3615,4.3615,4.3615,4.3615,4.3615,4.3615,4.3615,4.3615,4.3615,4.3615,4.3615,4.3615,4.3615,4.3615,4.3615,4.3615,4.3615,4.3615,4.3615,4.3615,4.3615,4.3615,4.3615,4.3615,4.3615,4.3615,4.3615,4.3615,3.2691,3.3155,3.3796,3.4229,3.4419,3.4157,3.4229,3.4463,3.4507,3.4507,3.4419,3.4185,3.4076,3.3967,3.3748,3.3573,3.3551,3.3404,3.3392,3.3955,3.452,3.4823,3.5315,3.605,3.6216,3.6314,3.6097,3.5856,3.5856,3.552,3.5757,3.6229,3.6435,3.6756,3.6941,3.7153,3.7153,3.725,3.7671,3.7746,3.7598,3.7508,3.7501,3.7696,3.773,3.7645,3.7877,3.7931,3.7872,3.8125,3.8145,3.7992,3.8125,3.8264,3.8413,3.8442,3.8613,3.91,3.9172,3.9172,3.9152,3.9281,3.9498,3.9858,4.0202,4.031,4.0561,4.0775,4.0882,4.0918,4.0918,4.0918,4.0918,4.0918,4.0918,4.0918,4.0918,4.0918,4.0918,4.0918,4.1063,4.1581,4.2161,4.2928,4.3594,4.3615,4.3615,4.3615,4.3615,4.3615,4.3615,4.3615,4.3615,4.3615,4.3615,4.3615,4.3615,4.3615,4.3615,4.3615,4.3615,4.3615,4.3615,4.3615,4.3615,4.3615,4.3615,4.3615,4.3635,4.3615,4.3615,4.3615,4.3615,4.3635,4.3677,3.3121,3.3516,3.4199,3.4485,3.4485,3.4441,3.4485,3.4507,3.4507,3.4507,3.4485,3.4463,3.4397,3.4441,3.4419,3.4376,3.4316,3.3967,3.3885,3.4058,3.4637,3.4853,3.5309,3.5982,3.6439,3.6475,3.6408,3.6435,3.6435,3.6525,3.6898,3.7308,3.7473,3.7817,3.792,3.7548,3.7379,3.7571,3.7947,3.7896,3.7631,3.7693,3.7734,3.7838,3.7811,3.7913,3.8045,3.8119,3.8219,3.8317,3.8365,3.8402,3.8517,3.8557,3.8605,3.8611,3.8627,3.8683,3.872,3.872,3.872,3.8902,3.9317,3.9806,4.013,4.0274,4.0525,4.074,4.0918,4.0918,4.0918,4.0918,4.0918,4.0918,4.0918,4.0918,4.0918,4.0918,4.0918,4.0959,4.1104,4.156,4.2244,4.2969,4.3615,4.3615,4.3615,4.3615,4.3615,4.3615,4.3615,4.3615,4.3615,4.3615,4.3615,4.3615,4.3615,4.3615,4.3615,4.3615,4.3615,4.3615,4.3615,4.3615,4.3615,4.3615,4.3615,4.3635,4.3656,4.3656,4.3801,4.3801,4.3863,4.3801,4.3801,3.3787,3.3948,3.4329,3.4507,3.4507,3.4507,3.4507,3.4507,3.4507,3.4507,3.4507,3.4507,3.4507,3.4507,3.4485,3.4507,3.4441,3.4376,3.431,3.4516,3.4858,3.512,3.5584,3.6234,3.6729,3.6877,3.692,3.6984,3.7176,3.7431,3.7822,3.8065,3.8447,3.8937,3.8759,3.8223,3.7896,3.7806,3.8194,3.8055,3.7725,3.7667,3.7814,3.7948,3.7868,3.7995,3.8227,3.8105,3.8187,3.841,3.8228,3.8207,3.8563,3.8588,3.8611,3.8611,3.8611,3.8611,3.8611,3.8611,3.8611,3.8683,3.9119,3.9445,3.9806,4.0166,4.0453,4.074,4.0882,4.0918,4.0918,4.0918,4.0918,4.0918,4.0918,4.0918,4.0918,4.0918,4.0918,4.1022,4.1167,4.1726,4.241,4.3073,4.3615,4.3615,4.3615,4.3615,4.3615,4.3615,4.3615,4.3615,4.3615,4.3615,4.3615,4.3615,4.3615,4.3615,4.3615,4.3615,4.3615,4.3615,4.3615,4.3615,4.3615,4.3615,4.3615,4.3677,4.3801,4.4029,4.4153,4.4132,4.4091,4.4112,4.4174,3.4171,3.4283,3.4423,3.4507,3.4528,3.4681,3.4797,3.4747,3.4572,3.4507,3.4507,3.4507,3.4507,3.4507,3.4507,3.4507,3.4485,3.4463,3.4441,3.4608,3.5146,3.5283,3.5767,3.6305,3.678,3.7005,3.7299,3.7517,3.8051,3.8796,3.9243,3.9049,3.942,3.9431,3.9254,3.8847,3.8395,3.8184,3.8145,3.8167,3.7971,3.7737,3.7955,3.8064,3.7956,3.8148,3.8357,3.814,3.8272,3.8501,3.8256,3.8317,3.8591,3.8611,3.8611,3.8611,3.8611,3.8611,3.8611,3.8611,3.8611,3.872,3.9083,3.9482,3.977,4.0094,4.0453,4.0811,4.0847,4.0918,4.0918,4.0918,4.0918,4.0918,4.0918,4.0918,4.0918,4.0918,4.098,4.1027,4.1457,4.2016,4.2638,4.3221,4.3615,4.3615,4.3615,4.3615,4.3615,4.3615,4.3615,4.3615,4.3615,4.3615,4.3615,4.3615,4.3615,4.3615,4.3615,4.3615,4.3615,4.3615,4.3615,4.3615,4.3615,4.3677,4.3822,4.3925,4.4049,4.4319,4.4629,4.4691,4.4691,4.467,4.4753,3.4283,3.4507,3.4507,3.4507,3.455,3.4899,3.5102,3.5124,3.4725,3.455,3.4572,3.4507,3.4507,3.4507,3.4507,3.4507,3.4507,3.4507,3.4485,3.4556,3.5091,3.5341,3.5535,3.5995,3.6598,3.6963,3.7456,3.8204,3.9475,3.9997,4.0082,4.0051,3.9985,3.9817,3.9411,3.9228,3.8812,3.8378,3.8204,3.8142,3.8182,3.8173,3.8259,3.8381,3.8382,3.8422,3.8478,3.8533,3.8544,3.8583,3.8591,3.8591,3.8611,3.8611,3.8611,3.8611,3.8611,3.8611,3.8611,3.8611,3.8611,3.8793,3.9228,3.9462,3.9714,4.0202,4.0632,4.0811,4.0882,4.0918,4.0918,4.0918,4.0918,4.0918,4.0918,4.0918,4.0918,4.0939,4.1022,4.1208,4.1705,4.2244,4.2658,4.3221,4.3615,4.3615,4.3615,4.3615,4.3615,4.3615,4.3615,4.3615,4.3615,4.3615,4.3615,4.3615,4.3615,4.3615,4.3615,4.3615,4.3615,4.3615,4.3615,4.3656,4.3718,4.3946,4.4091,4.4236,4.4484,4.4857,4.5126,4.5291,4.5312,4.5271,4.5333,3.4451,3.4507,3.4507,3.4507,3.4507,3.4616,3.4709,3.4703,3.4971,3.5059,3.4993,3.4681,3.4528,3.455,3.4507,3.4507,3.4507,3.4572,3.4507,3.4681,3.5115,3.5404,3.5404,3.591,3.6463,3.7132,3.7924,3.9014,4.0067,4.0544,4.0684,4.0487,4.0329,3.9981,3.9659,3.9499,3.8867,3.8534,3.8393,3.8292,3.8332,3.8344,3.8397,3.8471,3.8473,3.8489,3.855,3.8599,3.8566,3.8611,3.8611,3.8611,3.8611,3.8611,3.8611,3.8611,3.8611,3.8611,3.8611,3.8611,3.8611,3.8611,3.8902,3.9208,3.9678,4.0346,4.074,4.0847,4.0918,4.0918,4.0918,4.0918,4.0918,4.0918,4.0918,4.0918,4.0918,4.098,4.1063,4.1477,4.1954,4.2368,4.2725,4.3097,4.347,4.3615,4.3615,4.3615,4.3615,4.3615,4.3615,4.3615,4.3615,4.3615,4.3615,4.3615,4.3615,4.3656,4.3677,4.3656,4.3656,4.3801,4.3946,4.3822,4.3863,4.4215,4.4505,4.467,4.494,4.5354,4.554,4.5685,4.5831,4.5852,4.5934,3.3875,3.3924,3.4317,3.4507,3.4572,3.4971,3.5037,3.4971,3.5561,3.5736,3.5496,3.5081,3.479,3.4725,3.4594,3.4507,3.455,3.4747,3.4812,3.4943,3.5277,3.5531,3.574,3.5963,3.6569,3.7343,3.9024,4.0241,4.0668,4.1168,4.1333,4.0671,4.0355,4.0088,3.9774,3.913,3.8824,3.8708,3.8561,3.8529,3.8509,3.8478,3.8521,3.8563,3.857,3.858,3.8583,3.8611,3.8611,3.8611,3.8611,3.8611,3.8611,3.8611,3.8611,3.8611,3.8611,3.8611,3.8611,3.8611,3.8611,3.8611,3.8829,3.9264,3.9373,3.9986,4.0504,4.0612,4.0882,4.0918,4.0918,4.0918,4.0918,4.0918,4.0918,4.0918,4.0918,4.0939,4.1146,4.1519,4.1975,4.243,4.2807,4.3242,4.3553,4.3615,4.3615,4.3615,4.3615,4.3615,4.3615,4.3615,4.3615,4.3615,4.3615,4.3615,4.3615,4.3656,4.3739,4.4049,4.4236,4.4256,4.4277,4.4256,4.4381,4.4691,4.494,4.5126,4.5457,4.581,4.5934,4.6017,4.6203,4.6307,4.6245,3.3148,3.3254,3.4121,3.4401,3.4475,3.5358,3.5517,3.5364,3.6151,3.6399,3.6049,3.5517,3.5321,3.5059,3.4703,3.4616,3.4681,3.4943,3.5096,3.543,3.5852,3.6027,3.6093,3.6202,3.6956,3.8149,3.9795,4.0486,4.0921,4.1293,4.1138,4.0476,4.0087,3.9715,3.9124,3.8862,3.8817,3.8656,3.8554,3.8605,3.8591,3.8611,3.8588,3.8608,3.8611,3.8611,3.8611,3.8611,3.8611,3.8611,3.8611,3.8611,3.8611,3.8611,3.8611,3.8611,3.8611,3.8611,3.8611,3.8611,3.8611,3.8683,3.8994,3.9139,3.9228,3.9554,4.0074,4.0469,4.0704,4.0847,4.0847,4.0918,4.0918,4.0918,4.0918,4.0918,4.0918,4.0939,4.1229,4.156,4.2037,4.2456,4.2973,4.3408,4.3532,4.3594,4.3615,4.3615,4.3615,4.3615,4.3615,4.3615,4.3615,4.3615,4.3615,4.3615,4.3615,4.3739,4.3884,4.4422,4.4774,4.467,4.4691,4.4836,4.5002,4.5188,4.5416,4.5602,4.5975,4.6183,4.6183,4.6162,4.6224,4.6307,4.6307,3.3119,3.3176,3.4121,3.4065,3.3607,3.4415,3.4949,3.5277,3.5867,3.6268,3.6347,3.6049,3.5655,3.519,3.4703,3.4687,3.5124,3.5321,3.5561,3.5874,3.6355,3.65,3.6645,3.6864,3.7637,3.8808,4.0059,4.1003,4.0933,4.0901,4.0902,4.0712,3.9534,3.9191,3.907,3.8866,3.8727,3.8675,3.8739,3.873,3.8708,3.8689,3.863,3.8611,3.8611,3.8611,3.8611,3.8611,3.8611,3.8611,3.8611,3.8611,3.8611,3.8611,3.8611,3.8611,3.8611,3.8611,3.8611,3.8611,3.8611,3.8611,3.8849,3.8921,3.9067,3.9248,3.9734,4.0238,4.0453,4.0668,4.074,4.0882,4.0918,4.0918,4.0918,4.0918,4.0918,4.1022,4.1229,4.1685,4.2182,4.2741,4.3325,4.3573,4.3573,4.3615,4.3615,4.3615,4.3615,4.3615,4.3615,4.3615,4.3615,4.3615,4.3615,4.3615,4.3635,4.376,4.3987,4.4463,4.4795,4.494,4.5022,4.5147,4.5374,4.5581,4.5809,4.5975,4.6079,4.6265,4.6265,4.6286,4.6307,4.6307,4.6307]},{"header":{"parameterUnit":"m.s-1","parameterCategory":1,"la1":31.0,"la2":29.5877,"lo1":-88.7671,"lo2":-86.6584,"dx":0.0162,"dy":0.0185,"nx":115,"ny":88,"refTime":"2022-11-05T18:00:00:Z","depth":0,"parameterNumber":3,"parameterNumberName":"V-component_of_WINDS"},"data":[0.0,0.0,0.0,0.0,0.0,0.0,0.0,0.0,0.0,0.0,0.0,0.0,0.0,0.0,0.0,0.0,0.0,0.0,0.0,0.0,0.0,0.0,0.0,0.0,0.0,0.0,0.0,0.0,0.0,0.0,0.0,0.0,0.0,0.0,0.0,0.0,0.0,0.0,0.0,0.0,0.0,0.0,0.0,0.0,0.0,0.0,0.0,0.0,0.0,0.0,0.0,0.0,0.0,0.0,0.0,0.0,0.0,0.0,0.0,0.0,0.0,0.0,0.0,0.0,0.0,0.0,0.0,0.0,0.0,0.0,0.0,0.0,0.0,0.0,0.0,0.0,0.0,0.0,0.0,0.0,0.0,0.0,0.0,0.0,0.0,0.0,0.0,0.0,0.0,0.0,0.0,0.0,0.0,0.0,0.0,0.0,0.0,0.0,0.0,0.0,0.0,0.0,0.0,0.0,0.0,0.0,0.0,0.0,0.0,0.0,0.0,0.0,0.0,0.0,0.0,0.0,0.0,0.0,0.0,0.0,0.0,0.0,0.0,0.0,0.0,0.0,0.0,0.0,0.0,0.0,0.0,0.0,0.0,0.0,0.0,0.0,0.0,0.0,0.0,0.0,0.0,0.0,0.0,0.0,0.0,0.0,0.0,0.0,0.0,0.0,0.0,0.0,0.0,0.0,0.0,0.0,0.0,0.0,0.0,0.0,0.0,0.0,0.0,0.0,0.0,0.0,0.0,0.0,0.0,0.0,0.0,0.0,0.0,0.0,0.0,0.0,0.0,0.0,0.0,0.0,0.0,0.0,0.0,0.0,0.0,0.0,0.0,0.0,0.0,0.0,0.0,0.0,0.0,0.0,0.0,0.0,0.0,0.0,0.0,0.0,0.0,0.0,0.0,0.0,0.0,0.0,0.0,0.0,0.0,0.0,0.0,0.0,0.0,0.0,0.0,0.0,0.0,0.0,0.0,0.0,0.0,0.0,0.0,0.0,0.0,0.0,0.0,0.0,0.0,0.0,0.0,0.0,0.0,0.0,0.0,0.0,0.0,0.0,0.0,0.0,0.0,0.0,0.0,0.0,0.0,0.0,0.0,0.0,0.0,0.0,0.0,0.0,0.0,0.0,0.0,0.0,0.0,0.0,0.0,0.0,0.0,0.0,0.0,0.0,0.0,0.0,0.0,0.0,0.0,0.0,0.0,0.0,0.0,0.0,0.0,0.0,0.0,0.0,0.0,0.0,0.0,0.0,0.0,0.0,0.0,0.0,0.0,0.0,0.0,0.0,0.0,0.0,0.0,0.0,0.0,0.0,0.0,0.0,0.0,0.0,0.0,0.0,0.0,0.0,0.0,0.0,0.0,0.0,0.0,0.0,0.0,0.0,0.0,0.0,0.0,0.0,0.0,0.0,0.0,0.0,0.0,0.0,0.0,0.0,0.0,0.0,0.0,0.0,0.0,0.0,0.0,0.0,0.0,0.0,0.0,0.0,0.0,0.0,0.0,0.0,0.0,0.0,0.0,0.0,0.0,0.0,0.0,0.0,0.0,0.0,0.0,0.0,0.0,0.0,0.0,0.0,0.0,0.0,0.0,0.0,0.0,0.0,0.0,0.0,0.0,0.0,0.0,0.0,0.0,0.0,0.0,0.0,0.0,0.0,0.0,0.0,0.0,0.0,0.0,0.0,0.0,0.0,0.0,0.0,0.0,0.0,0.0,0.0,0.0,0.0,0.0,0.0,0.0,0.0,0.0,0.0,0.0,0.0,0.0,0.0,0.0,0.0,0.0,0.0,0.0,0.0,0.0,0.0,0.0,0.0,0.0,0.0,0.0,0.0,0.0,0.0,0.0,0.0,0.0,0.0,0.0,0.0,0.0,0.0,0.0,0.0,0.0,0.0,0.0,0.0,0.0,0.0,0.0,0.0,0.0,0.0,0.0,0.0,0.0,0.0,0.0,0.0,0.0,0.0,0.0,0.0,0.0,0.0,0.0,0.0,0.0,0.0,0.0,0.0,0.0,0.0,0.0,0.0,0.0,0.0,0.0,0.0,0.0,0.0,0.0,0.0,0.0,0.0,0.0,0.0,0.0,0.0,0.0,0.0,0.0,0.0,0.0,0.0,0.0,0.0,0.0,0.0,0.0,0.0,0.0,0.0,0.0,0.0,0.0,0.0,0.0,0.0,0.0,0.0,0.0,0.0,0.0,0.0,0.0,0.0,0.0,0.0,0.0,0.0,0.0,0.0,0.0,0.0,0.0,0.0,0.0,0.0,0.0,0.0,0.0,0.0,0.0,0.0,0.0,0.0,0.0,0.0,0.0,0.0,0.0,0.0,0.0,0.0,0.0,0.0,0.0,0.0,0.0,0.0,0.0,0.0,0.0,0.0,0.0,0.0,0.0,0.0,0.0,0.0,0.0,0.0,0.0,0.0,0.0,0.0,0.0,0.0,0.0,0.0,0.0,0.0,0.0,0.0,0.0,0.0,0.0,0.0,0.0,0.0,0.0,0.0,0.0,0.0,0.0,0.0,0.0,0.0,0.0,0.0,0.0,0.0,0.0,0.0,0.0,0.0,0.0,0.0,0.0,0.0,0.0,0.0,0.0,0.0,0.0,0.0,0.0,0.0,0.0,0.0,0.0,0.0,0.0,0.0,0.0,0.0,0.0,0.0,0.0,0.0,0.0,0.0,0.0,0.0,0.0,0.0,0.0,0.0,0.0,0.0,0.0,0.0,0.0,0.0,0.0,0.0,0.0,0.0,0.0,0.0,0.0,0.0,0.0,0.0,0.0,0.0,0.0,0.0,0.0,0.0,0.0,0.0,0.0,0.0,0.0,0.0,0.0,0.0,0.0,0.0,0.0,0.0,0.0,0.0,0.0,0.0,0.0,0.0,0.0,0.0,0.0,0.0,0.0,0.0,0.0,0.0,0.0,0.0,0.0,0.0,0.0,0.0,0.0,0.0,0.0,0.0,0.0,0.0,0.0,0.0,0.0,0.0,0.0,0.0,0.0,0.0,0.0,0.0,0.0,0.0,0.0,0.0,0.0,0.0,0.0,0.0,0.0,0.0,0.0,0.0,0.0,0.0,0.0,0.0,0.0,0.0,0.0,0.0,0.0,0.0,0.0,0.0,0.0,0.0,0.0,0.0,0.0,0.0,0.0,0.0,0.0,0.0,0.0,0.0,0.0,0.0,0.0,0.0,0.0,0.0,0.0,0.0,0.0,0.0,0.0,0.0,0.0,0.0,0.0,0.0,0.0,0.0,0.0,0.0,0.0,0.0,0.0,0.0,0.0,0.0,0.0,0.0,0.0,0.0,0.0,0.0,0.0,0.0,0.0,0.0,0.0,0.0,0.0,0.0,0.0,0.0,0.0,0.0,0.0,0.0,0.0,0.0,0.0,0.0,0.0,0.0,0.0,0.0,0.0,0.0,0.0,0.0,0.0,0.0,0.0,0.0,0.0,0.0,0.0,0.0,0.0,0.0,0.0,0.0,0.0,0.0,0.0,0.0,0.0,0.0,0.0,0.0,0.0,0.0,0.0,0.0,0.0,0.0,0.0,0.0,0.0,0.0,0.0,0.0,0.0,0.0,0.0,0.0,0.0,0.0,0.0,0.0,0.0,0.0,0.0,0.0,0.0,0.0,0.0,0.0,0.0,0.0,0.0,0.0,0.0,0.0,0.0,0.0,0.0,0.0,0.0,0.0,0.0,0.0,0.0,0.0,0.0,0.0,0.0,0.0,0.0,0.0,0.0,0.0,0.0,0.0,0.0,0.0,0.0,0.0,0.0,0.0,0.0,0.0,0.0,0.0,0.0,0.0,0.0,0.0,0.0,0.0,0.0,0.0,0.0,0.0,0.0,0.0,0.0,0.0,0.0,0.0,0.0,0.0,0.0,0.0,0.0,0.0,0.0,0.0,0.0,0.0,0.0,0.0,0.0,0.0,0.0,0.0,0.0,0.0,0.0,0.0,0.0,0.0,0.0,0.0,0.0,0.0,0.0,0.0,0.0,0.0,0.0,0.0,0.0,0.0,0.0,0.0,0.0,0.0,0.0,0.0,0.0,0.0,0.0,0.0,0.0,0.0,0.0,0.0,0.0,0.0,0.0,0.0,0.0,0.0,0.0,0.0,0.0,0.0,0.0,0.0,0.0,0.0,0.0,0.0,0.0,0.0,0.0,0.0,0.0,0.0,0.0,0.0,0.0,0.0,0.0,0.0,0.0,0.0,0.0,0.0,0.0,0.0,0.0,0.0,0.0,0.0,1.8909,0.0,0.0,0.0,1.8427,0.0,0.0,0.0,0.0,0.0,0.0,0.0,0.0,0.0,0.0,0.0,0.0,0.0,0.0,0.0,0.0,0.0,0.0,0.0,0.0,0.0,0.0,0.0,0.0,0.0,0.0,0.0,0.0,0.0,0.0,0.0,0.0,0.0,0.0,0.0,0.0,0.0,0.0,0.0,0.0,0.0,0.0,0.0,0.0,0.0,0.0,0.0,0.0,0.0,0.0,0.0,0.0,0.0,0.0,0.0,0.0,0.0,0.0,0.0,0.0,0.0,0.0,0.0,0.0,0.0,0.0,0.0,0.0,0.0,0.0,0.0,0.0,0.0,0.0,0.0,0.0,0.0,0.0,0.0,0.0,0.0,0.0,0.0,0.0,0.0,0.0,0.0,0.0,0.0,0.0,0.0,0.0,0.0,0.0,0.0,0.0,0.0,0.0,0.0,0.0,0.0,0.0,0.0,0.0,0.0,0.0,0.0,0.0,0.0,0.0,1.8868,1.8607,1.8858,1.8715,1.8128,0.0,0.0,0.0,0.0,0.0,0.0,0.0,0.0,0.0,0.0,0.0,0.0,0.0,0.0,0.0,0.0,0.0,0.0,0.0,0.0,0.0,0.0,0.0,0.0,0.0,0.0,0.0,0.0,0.0,0.0,0.0,0.0,0.0,0.0,0.0,0.0,0.0,0.0,0.0,0.0,0.0,0.0,0.0,0.0,0.0,0.0,0.0,0.0,0.0,0.0,0.0,0.0,0.0,0.0,0.0,0.0,0.0,0.0,0.0,0.0,0.0,0.0,0.0,0.0,0.0,0.0,0.0,0.0,0.0,0.0,0.0,0.0,0.0,0.0,0.0,0.0,0.0,0.0,0.0,0.0,0.0,0.0,0.0,0.0,0.0,0.0,0.0,0.0,0.0,0.0,0.0,0.0,0.0,0.0,0.0,0.0,0.0,0.0,0.0,0.0,0.0,0.0,0.0,0.0,0.0,0.0,0.0,0.0,0.0,0.0,0.0,0.0,1.8299,1.8331,1.8122,0.0,0.0,0.0,0.0,0.0,0.0,0.0,0.0,0.0,0.0,0.0,0.0,0.0,0.0,0.0,0.0,0.0,0.0,0.0,0.0,0.0,0.0,0.0,0.0,0.0,0.0,0.0,0.0,0.0,0.0,0.0,0.0,0.0,0.0,0.0,0.0,0.0,0.0,0.0,0.0,0.0,0.0,0.0,0.0,0.0,0.0,0.0,0.0,0.0,0.0,0.0,0.0,0.0,0.0,0.0,0.0,0.0,0.0,0.0,0.0,0.0,0.0,0.0,0.0,0.0,0.0,0.0,0.0,0.0,0.0,0.0,0.0,0.0,0.0,0.0,0.0,0.0,0.0,0.0,0.0,0.0,0.0,0.0,0.0,0.0,0.0,0.0,0.0,0.0,0.0,0.0,0.0,0.0,0.0,0.0,0.0,0.0,0.0,0.0,0.0,0.0,0.0,0.0,0.0,0.0,0.0,0.0,0.0,0.0,0.0,1.7546,1.807,1.7565,0.0,1.8006,0.0,0.0,0.0,0.0,0.0,0.0,0.0,0.0,0.0,0.0,0.0,0.0,0.0,0.0,0.0,0.0,0.0,0.0,0.0,0.0,0.0,0.0,0.0,0.0,0.0,0.0,0.0,0.0,0.0,0.0,0.0,0.0,0.0,0.0,0.0,0.0,0.0,0.0,0.0,0.0,0.0,0.0,0.0,0.0,0.0,0.0,0.0,0.0,0.0,0.0,0.0,0.0,0.0,0.0,0.0,0.0,0.0,0.0,0.0,0.0,0.0,0.0,0.0,0.0,0.0,0.0,0.0,0.0,0.0,0.0,0.0,0.0,0.0,0.0,0.0,0.0,0.0,0.0,0.0,0.0,0.0,0.0,0.0,0.0,0.0,0.0,0.0,0.0,0.0,0.0,0.0,0.0,0.0,0.0,0.0,0.0,0.0,0.0,0.0,0.0,0.0,0.0,0.0,0.0,0.0,0.0,0.0,0.0,0.0,0.0,1.6707,1.6966,1.6873,1.7335,0.0,0.0,0.0,0.0,0.0,0.0,0.0,0.0,0.0,0.0,0.0,0.0,0.0,0.0,0.0,0.0,0.0,0.0,0.0,0.0,0.0,0.0,0.0,0.0,0.0,0.0,0.0,0.0,0.0,0.0,0.0,0.0,0.0,0.0,0.0,0.0,0.0,0.0,0.0,0.0,0.0,0.0,0.0,0.0,0.0,0.0,0.0,0.0,0.0,0.0,0.0,0.0,0.0,0.0,0.0,0.0,0.0,0.0,0.0,0.0,0.0,0.0,0.0,0.0,0.0,0.0,0.0,0.0,0.0,0.0,0.0,0.0,0.0,0.0,0.0,0.0,0.0,0.0,0.0,0.0,0.0,0.0,0.0,0.0,0.0,0.0,0.0,0.0,0.0,0.0,0.0,0.0,0.0,0.0,0.0,0.0,0.0,0.0,0.0,0.0,0.0,0.0,0.0,0.0,0.0,0.0,0.0,0.0,0.0,0.0,1.6032,1.6196,1.6205,1.6557,1.7375,1.8665,0.0,0.0,0.0,0.0,0.0,0.0,0.0,0.0,0.0,0.0,0.0,0.0,0.0,0.0,0.0,0.0,0.0,0.0,0.0,0.0,0.0,0.0,0.0,0.0,0.0,0.0,0.0,0.0,0.0,0.0,0.0,0.0,0.0,0.0,0.0,0.0,0.0,0.0,0.0,0.0,0.0,0.0,0.0,0.0,0.0,0.0,0.0,0.0,0.0,0.0,0.0,0.0,0.0,0.0,0.0,0.0,0.0,0.0,0.0,0.0,0.0,0.0,0.0,0.0,0.0,0.0,0.0,0.0,0.0,0.0,0.0,0.0,0.0,0.0,0.0,0.0,0.0,0.0,0.0,0.0,0.0,0.0,0.0,0.0,0.0,0.0,0.0,0.0,0.0,0.0,0.0,0.0,0.0,0.0,0.0,0.0,0.0,0.0,0.0,0.0,0.0,0.0,0.0,0.0,0.0,0.0,0.0,0.0,1.5733,1.6041,1.6208,1.6212,1.6779,1.7622,0.0,0.0,0.0,0.0,0.0,0.0,0.0,0.0,0.0,0.0,0.0,0.0,0.0,0.0,0.0,0.0,0.0,0.0,0.0,0.0,0.0,0.0,0.0,0.0,0.0,0.0,0.0,0.0,0.0,0.0,0.0,0.0,0.0,0.0,0.0,0.0,0.0,0.0,0.0,0.0,0.0,0.0,0.0,0.0,0.0,0.0,0.0,0.0,0.0,0.0,0.0,0.0,0.0,0.0,0.0,0.0,0.0,0.0,0.0,0.0,0.0,0.0,0.0,0.0,0.0,0.0,0.0,0.0,0.0,0.0,0.0,0.0,0.0,0.0,0.0,0.0,0.0,0.0,0.0,0.0,0.0,0.0,0.0,0.0,0.0,0.0,0.0,0.0,0.0,0.0,0.0,0.0,0.0,0.0,0.0,0.0,0.0,0.0,0.0,0.0,0.0,0.0,0.0,0.0,0.0,0.0,0.0,0.0,0.0,1.6049,1.6541,1.6625,1.6248,1.6778,1.7537,0.0,0.0,0.0,0.0,0.0,0.0,0.0,0.0,0.0,0.0,0.0,0.0,0.0,0.0,0.0,0.0,0.0,0.0,0.0,0.0,0.0,0.0,0.0,0.0,0.0,0.0,0.0,0.0,0.0,0.0,0.0,0.0,0.0,0.0,0.0,0.0,0.0,0.0,0.0,0.0,0.0,0.0,0.0,0.0,0.0,0.0,0.0,0.0,0.0,0.0,0.0,0.0,0.0,0.0,0.0,0.0,0.0,0.0,0.0,0.0,0.0,0.0,0.0,0.0,0.0,0.0,0.0,0.0,0.0,0.0,0.0,0.0,0.0,0.0,0.0,0.0,0.0,0.0,0.0,0.0,0.0,0.0,0.0,0.0,0.0,0.0,0.0,0.0,0.0,0.0,0.0,0.0,0.0,0.0,0.0,0.0,0.0,0.0,0.0,0.0,0.0,0.0,0.0,0.0,0.0,0.0,0.0,0.0,0.0,1.6518,1.7044,1.709,1.6571,1.6917,1.7462,0.0,0.0,0.0,0.0,0.0,0.0,0.0,0.0,0.0,0.0,0.0,0.0,0.0,0.0,0.0,0.0,0.0,0.0,0.0,0.0,0.0,0.0,0.0,0.0,0.0,0.0,0.0,0.0,0.0,0.0,0.0,0.0,0.0,0.0,0.0,0.0,0.0,0.0,0.0,0.0,0.0,0.0,0.0,0.0,0.0,0.0,0.0,0.0,0.0,0.0,0.0,0.0,0.0,0.0,0.0,0.0,0.0,0.0,0.0,0.0,0.0,0.0,0.0,0.0,0.0,0.0,0.0,0.0,0.0,0.0,0.0,0.0,0.0,0.0,0.0,0.0,0.0,0.0,0.0,0.0,0.0,0.0,0.0,0.0,0.0,0.0,0.0,0.0,0.0,0.0,0.0,0.0,0.0,0.0,0.0,0.0,0.0,0.0,0.0,0.0,0.0,0.0,0.0,0.0,0.0,0.0,0.0,0.0,1.6547,1.7185,1.7469,1.7499,1.7202,1.7142,1.7462,0.0,0.0,0.0,0.0,0.0,0.0,0.0,0.0,0.0,0.0,0.0,0.0,0.0,0.0,0.0,0.0,0.0,0.0,0.0,0.0,0.0,0.0,0.0,0.0,0.0,0.0,0.0,0.0,0.0,0.0,0.0,0.0,0.0,0.0,0.0,0.0,0.0,0.0,0.0,0.0,0.0,0.0,0.0,0.0,0.0,0.0,0.0,0.0,0.0,0.0,0.0,0.0,0.0,0.0,0.0,0.0,0.0,0.0,0.0,0.0,0.0,0.0,0.0,0.0,0.0,0.0,0.0,0.0,0.0,0.0,0.0,0.0,0.0,0.0,0.0,0.0,0.0,0.0,0.0,0.0,0.0,0.0,0.0,0.0,0.0,0.0,0.0,0.0,0.0,0.0,0.0,0.0,0.0,0.0,0.0,0.0,0.0,0.0,0.0,0.0,0.0,0.0,0.0,0.0,0.0,0.0,0.0,0.0,0.0,1.7873,1.8378,1.8378,1.7899,1.7809,1.7938,0.0,0.0,0.0,0.0,0.0,0.0,0.0,0.0,0.0,0.0,0.0,0.0,0.0,0.0,0.0,0.0,0.0,0.0,0.0,0.0,0.0,0.0,0.0,0.0,0.0,0.0,0.0,0.0,0.0,0.0,0.0,0.0,0.0,0.0,0.0,0.0,0.0,0.0,0.0,0.0,0.0,0.0,0.0,0.0,0.0,0.0,0.0,0.0,0.0,0.0,0.0,0.0,0.0,0.0,0.0,0.0,0.0,0.0,0.0,0.0,0.0,0.0,0.0,0.0,0.0,0.0,0.0,0.0,0.0,0.0,0.0,0.0,0.0,0.0,0.0,0.0,0.0,0.0,0.0,0.0,0.0,0.0,0.0,0.0,0.0,0.0,0.0,0.0,0.0,0.0,0.0,0.0,0.0,0.0,0.0,0.0,0.0,0.0,0.0,0.0,0.0,0.0,0.0,0.0,0.0,0.0,0.0,0.0,0.0,1.8898,1.9275,1.9295,1.8927,1.8403,1.8156,1.8145,0.0,0.0,0.0,0.0,0.0,0.0,0.0,0.0,0.0,0.0,0.0,0.0,0.0,0.0,0.0,0.0,0.0,0.0,0.0,0.0,0.0,0.0,0.0,0.0,0.0,0.0,0.0,0.0,0.0,0.0,0.0,0.0,0.0,0.0,0.0,0.0,0.0,0.0,0.0,0.0,0.0,0.0,0.0,0.0,0.0,0.0,0.0,0.0,0.0,0.0,0.0,0.0,0.0,0.0,0.0,0.0,0.0,0.0,0.0,0.0,0.0,0.0,0.0,0.0,0.0,0.0,0.0,0.0,0.0,0.0,0.0,0.0,0.0,0.0,0.0,0.0,0.0,0.0,0.0,0.0,0.0,0.0,0.0,0.0,0.0,0.0,0.0,0.0,0.0,0.0,0.0,0.0,0.0,0.0,0.0,0.0,0.0,0.0,0.0,0.0,0.0,0.0,0.0,0.0,0.0,0.0,0.0,0.0,2.0136,2.0175,2.0175,2.0107,1.8955,1.8215,0.0,0.0,0.0,0.0,0.0,0.0,0.0,0.0,0.0,0.0,0.0,0.0,0.0,0.0,0.0,0.0,0.0,0.0,0.0,0.0,0.0,0.0,0.0,0.0,0.0,0.0,0.0,0.0,0.0,0.0,0.0,0.0,0.0,0.0,0.0,0.0,0.0,0.0,0.0,0.0,0.0,0.0,0.0,0.0,0.0,0.0,0.0,0.0,0.0,0.0,0.0,0.0,0.0,0.0,0.0,0.0,0.0,0.0,0.0,0.0,0.0,0.0,0.0,0.0,0.0,0.0,0.0,0.0,0.0,0.0,0.0,0.0,0.0,0.0,0.0,0.0,0.0,0.0,0.0,0.0,0.0,0.0,0.0,0.0,0.0,0.0,0.0,0.0,0.0,0.0,0.0,0.0,0.0,0.0,0.0,0.0,0.0,0.0,0.0,0.0,0.0,0.0,0.0,0.0,0.0,0.0,0.0,0.0,0.0,2.0727,2.126,2.1278,2.0766,1.9755,1.8989,0.0,0.0,0.0,0.0,0.0,0.0,0.0,0.0,0.0,0.0,0.0,0.0,0.0,0.0,0.0,0.0,0.0,0.0,0.0,0.0,0.0,0.0,0.0,0.0,0.0,0.0,0.0,0.0,0.0,0.0,0.0,0.0,0.0,0.0,0.0,0.0,0.0,0.0,0.0,0.0,0.0,0.0,0.0,0.0,0.0,0.0,0.0,0.0,0.0,0.0,0.0,0.0,0.0,0.0,0.0,0.0,0.0,0.0,0.0,0.0,0.0,0.0,0.0,0.0,0.0,0.0,0.0,0.0,0.0,0.0,0.0,0.0,0.0,0.0,0.0,0.0,0.0,0.0,0.0,0.0,0.0,0.0,0.0,0.0,0.0,0.0,0.0,0.0,0.0,0.0,0.0,0.0,0.0,0.0,0.0,0.0,0.0,0.0,0.0,0.0,0.0,0.0,0.0,0.0,0.0,0.0,0.0,0.0,2.0508,2.1748,2.2652,2.3044,2.2809,2.0853,1.9488,0.0,0.0,0.0,0.0,0.0,0.0,0.0,0.0,0.0,0.0,0.0,0.0,0.0,0.0,0.0,0.0,0.0,0.0,0.0,0.0,0.0,0.0,0.0,0.0,0.0,0.0,0.0,0.0,0.0,0.0,0.0,0.0,0.0,0.0,0.0,0.0,0.0,0.0,0.0,0.0,0.0,0.0,0.0,0.0,0.0,0.0,0.0,0.0,0.0,0.0,0.0,0.0,0.0,0.0,0.0,0.0,0.0,0.0,0.0,0.0,0.0,0.0,0.0,0.0,0.0,0.0,0.0,0.0,0.0,0.0,0.0,0.0,0.0,0.0,0.0,0.0,0.0,0.0,0.0,0.0,0.0,0.0,0.0,0.0,0.0,0.0,0.0,0.0,0.0,0.0,0.0,0.0,0.0,0.0,0.0,0.0,0.0,0.0,0.0,0.0,0.0,0.0,0.0,0.0,0.0,0.0,0.0,0.0,2.1674,2.2794,2.4073,2.4859,2.5059,2.2041,2.0015,0.0,0.0,0.0,0.0,0.0,0.0,0.0,0.0,0.0,0.0,0.0,0.0,0.0,0.0,0.0,0.0,0.0,0.0,0.0,0.0,0.0,0.0,0.0,0.0,0.0,0.0,0.0,0.0,0.0,0.0,0.0,0.0,0.0,0.0,0.0,0.0,0.0,0.0,0.0,0.0,0.0,0.0,0.0,0.0,0.0,0.0,0.0,0.0,0.0,0.0,0.0,0.0,0.0,0.0,0.0,0.0,0.0,0.0,0.0,0.0,0.0,0.0,0.0,0.0,0.0,0.0,0.0,0.0,0.0,0.0,0.0,0.0,0.0,0.0,0.0,0.0,0.0,0.0,0.0,0.0,0.0,0.0,0.0,0.0,0.0,0.0,0.0,0.0,0.0,0.0,0.0,0.0,0.0,0.0,0.0,0.0,0.0,0.0,0.0,0.0,0.0,0.0,0.0,0.0,0.0,0.0,0.0,0.0,2.2145,2.2874,2.4154,2.4652,2.4217,2.2903,2.1771,0.0,0.0,0.0,0.0,0.0,0.0,0.0,0.0,0.0,0.0,0.0,0.0,0.0,0.0,0.0,0.0,0.0,0.0,0.0,0.0,0.0,0.0,0.0,0.0,0.0,0.0,0.0,0.0,0.0,0.0,0.0,0.0,0.0,0.0,0.0,0.0,0.0,0.0,0.0,0.0,0.0,0.0,0.0,0.0,0.0,0.0,0.0,0.0,2.4936,0.0,0.0,0.0,0.0,0.0,0.0,0.0,0.0,0.0,0.0,0.0,0.0,0.0,0.0,0.0,0.0,0.0,0.0,0.0,0.0,0.0,0.0,0.0,0.0,0.0,0.0,0.0,0.0,0.0,0.0,0.0,0.0,0.0,0.0,0.0,0.0,0.0,0.0,0.0,0.0,0.0,0.0,0.0,0.0,0.0,0.0,0.0,0.0,0.0,0.0,0.0,0.0,0.0,0.0,0.0,0.0,0.0,0.0,0.0,2.2706,2.4122,2.5177,2.5609,2.5436,2.4582,2.3201,0.0,0.0,0.0,0.0,0.0,0.0,0.0,0.0,0.0,0.0,0.0,0.0,0.0,0.0,0.0,0.0,0.0,0.0,0.0,0.0,0.0,0.0,0.0,0.0,0.0,0.0,0.0,0.0,0.0,0.0,0.0,0.0,0.0,0.0,0.0,0.0,0.0,0.0,0.0,0.0,0.0,0.0,0.0,0.0,0.0,0.0,0.0,0.0,0.0,0.0,0.0,0.0,0.0,0.0,0.0,0.0,0.0,0.0,0.0,0.0,0.0,0.0,0.0,0.0,0.0,0.0,0.0,0.0,0.0,0.0,0.0,0.0,0.0,0.0,0.0,0.0,0.0,0.0,0.0,0.0,0.0,0.0,0.0,0.0,0.0,0.0,0.0,0.0,0.0,0.0,0.0,0.0,0.0,0.0,0.0,0.0,0.0,0.0,0.0,0.0,0.0,0.0,0.0,0.0,0.0,0.0,0.0,2.1191,2.3333,2.5688,2.6338,2.6862,2.7248,2.6283,2.4434,2.1677,0.0,0.0,0.0,0.0,0.0,0.0,0.0,0.0,0.0,0.0,0.0,0.0,0.0,0.0,0.0,0.0,0.0,0.0,0.0,0.0,0.0,0.0,0.0,0.0,0.0,0.0,0.0,0.0,0.0,0.0,0.0,0.0,0.0,0.0,0.0,0.0,0.0,0.0,2.3123,2.3884,0.0,0.0,0.0,0.0,0.0,0.0,0.0,0.0,2.8608,0.0,0.0,0.0,0.0,0.0,0.0,0.0,0.0,0.0,0.0,0.0,0.0,0.0,0.0,0.0,0.0,0.0,0.0,0.0,0.0,0.0,0.0,0.0,0.0,0.0,0.0,0.0,0.0,0.0,0.0,0.0,0.0,0.0,0.0,0.0,0.0,0.0,0.0,0.0,0.0,0.0,0.0,0.0,0.0,0.0,0.0,0.0,0.0,0.0,0.0,0.0,0.0,0.0,0.0,0.0,0.0,2.065,2.2051,2.4002,2.6529,2.6718,2.7036,2.7543,2.6847,2.553,2.3569,0.0,0.0,0.0,0.0,0.0,0.0,0.0,0.0,0.0,0.0,0.0,0.0,0.0,0.0,0.0,0.0,0.0,0.0,0.0,0.0,0.0,0.0,0.0,0.0,0.0,0.0,0.0,0.0,0.0,0.0,0.0,0.0,0.0,0.0,0.0,0.0,0.0,0.0,0.0,2.5366,2.6402,0.0,0.0,0.0,0.0,0.0,0.0,0.0,0.0,2.8664,0.0,0.0,0.0,0.0,0.0,0.0,0.0,0.0,0.0,0.0,0.0,0.0,0.0,0.0,0.0,0.0,0.0,0.0,0.0,0.0,0.0,0.0,0.0,0.0,0.0,0.0,0.0,0.0,0.0,0.0,0.0,0.0,0.0,0.0,0.0,0.0,0.0,0.0,0.0,0.0,0.0,0.0,0.0,0.0,0.0,0.0,0.0,0.0,0.0,0.0,0.0,0.0,0.0,0.0,0.0,2.1877,2.2922,2.4849,2.7649,2.7432,2.7538,2.8069,2.7181,2.592,0.0,0.0,0.0,0.0,0.0,0.0,0.0,0.0,0.0,0.0,0.0,0.0,0.0,0.0,0.0,0.0,0.0,0.0,0.0,0.0,0.0,0.0,0.0,0.0,0.0,0.0,0.0,0.0,0.0,0.0,0.0,0.0,0.0,0.0,0.0,0.0,0.0,0.0,0.0,0.0,2.7164,2.838,2.9847,0.0,0.0,0.0,0.0,0.0,0.0,3.1315,3.0719,0.0,0.0,0.0,0.0,0.0,0.0,0.0,0.0,0.0,0.0,0.0,0.0,0.0,0.0,0.0,0.0,0.0,0.0,0.0,0.0,0.0,0.0,0.0,0.0,0.0,0.0,0.0,0.0,0.0,0.0,0.0,0.0,0.0,0.0,0.0,0.0,0.0,0.0,0.0,0.0,0.0,0.0,0.0,0.0,0.0,0.0,0.0,0.0,0.0,0.0,0.0,0.0,0.0,0.0,0.0,2.2812,2.3705,2.5587,2.852,2.8173,2.816,2.8667,2.7365,2.5933,0.0,0.0,0.0,0.0,0.0,0.0,0.0,0.0,0.0,0.0,0.0,0.0,0.0,0.0,0.0,0.0,0.0,0.0,0.0,0.0,0.0,0.0,0.0,0.0,0.0,0.0,0.0,0.0,0.0,0.0,0.0,0.0,0.0,0.0,0.0,0.0,0.0,0.0,0.0,0.0,0.0,3.0168,3.1581,3.2078,0.0,0.0,0.0,0.0,3.3138,3.3006,0.0,0.0,0.0,0.0,0.0,0.0,0.0,0.0,0.0,0.0,0.0,0.0,0.0,0.0,0.0,0.0,0.0,0.0,0.0,0.0,0.0,0.0,0.0,0.0,0.0,0.0,0.0,0.0,0.0,0.0,0.0,0.0,0.0,0.0,0.0,0.0,0.0,0.0,0.0,0.0,0.0,0.0,0.0,0.0,0.0,0.0,0.0,0.0,0.0,0.0,0.0,0.0,0.0,0.0,0.0,0.0,2.2812,2.414,2.6052,2.852,2.8608,2.8868,2.942,2.7153,2.5577,0.0,0.0,0.0,0.0,0.0,0.0,0.0,0.0,0.0,0.0,0.0,0.0,0.0,0.0,0.0,0.0,0.0,0.0,0.0,0.0,0.0,0.0,0.0,0.0,0.0,0.0,0.0,0.0,0.0,0.0,0.0,0.0,0.0,0.0,0.0,0.0,0.0,0.0,0.0,0.0,0.0,3.0897,3.2376,3.3701,3.4551,0.0,0.0,3.4651,3.4618,3.4099,0.0,0.0,0.0,0.0,0.0,0.0,0.0,0.0,0.0,0.0,0.0,0.0,0.0,0.0,0.0,0.0,0.0,0.0,0.0,0.0,0.0,0.0,0.0,0.0,0.0,0.0,0.0,0.0,0.0,0.0,0.0,0.0,0.0,0.0,0.0,0.0,0.0,0.0,0.0,0.0,0.0,0.0,0.0,0.0,0.0,0.0,0.0,0.0,0.0,0.0,0.0,0.0,0.0,0.0,0.0,2.0361,2.3437,2.4769,2.6649,2.9116,2.9203,2.9288,2.9481,2.7461,2.5869,0.0,0.0,0.0,0.0,0.0,0.0,0.0,0.0,0.0,0.0,0.0,0.0,0.0,0.0,0.0,0.0,0.0,0.0,0.0,0.0,0.0,0.0,0.0,0.0,0.0,0.0,0.0,0.0,0.0,0.0,0.0,0.0,0.0,0.0,0.0,0.0,0.0,0.0,0.0,0.0,0.0,0.0,3.3735,3.4861,0.0,0.0,0.0,3.6009,3.5578,0.0,0.0,0.0,0.0,0.0,0.0,0.0,0.0,0.0,0.0,0.0,0.0,0.0,0.0,0.0,0.0,0.0,0.0,0.0,0.0,0.0,0.0,0.0,0.0,0.0,0.0,0.0,0.0,0.0,0.0,0.0,0.0,0.0,0.0,0.0,0.0,0.0,0.0,0.0,0.0,0.0,0.0,0.0,0.0,0.0,0.0,0.0,0.0,0.0,0.0,0.0,0.0,0.0,0.0,0.0,0.0,0.0,2.3675,2.5247,2.7126,2.9276,2.9682,2.9754,2.9442,2.7881,0.0,0.0,0.0,0.0,0.0,0.0,0.0,0.0,0.0,0.0,0.0,0.0,0.0,0.0,0.0,0.0,0.0,0.0,0.0,0.0,0.0,0.0,0.0,0.0,0.0,0.0,0.0,1.7702,0.0,0.0,0.0,0.0,0.0,0.0,0.0,0.0,0.0,0.0,0.0,0.0,0.0,0.0,3.3701,3.5015,3.6141,3.697,0.0,0.0,3.7599,3.6704,3.6704,3.6543,0.0,0.0,0.0,0.0,0.0,0.0,0.0,0.0,0.0,0.0,0.0,0.0,0.0,0.0,0.0,0.0,0.0,0.0,0.0,0.0,0.0,0.0,0.0,0.0,0.0,0.0,0.0,0.0,0.0,0.0,0.0,0.0,0.0,0.0,0.0,0.0,0.0,0.0,0.0,0.0,0.0,0.0,0.0,0.0,0.0,0.0,0.0,0.0,0.0,0.0,0.0,0.0,0.0,0.0,2.0577,2.2968,2.5458,2.7388,2.8753,2.9915,3.022,2.9595,2.8332,2.7126,0.0,0.0,0.0,0.0,0.0,0.0,0.0,0.0,0.0,0.0,0.0,0.0,0.0,0.0,0.0,0.0,0.0,0.0,0.0,0.0,0.0,0.0,0.0,0.0,0.0,0.0,0.0,0.0,0.0,0.0,0.0,0.0,0.0,0.0,0.0,0.0,0.0,0.0,0.0,0.0,0.0,3.506,3.581,3.7744,3.8838,0.0,3.9288,3.9699,3.8295,3.8639,3.8677,3.7519,0.0,0.0,0.0,0.0,0.0,0.0,0.0,0.0,0.0,0.0,0.0,0.0,0.0,0.0,0.0,0.0,0.0,0.0,0.0,0.0,0.0,0.0,0.0,0.0,0.0,0.0,0.0,0.0,0.0,0.0,0.0,0.0,0.0,0.0,0.0,0.0,0.0,0.0,0.0,0.0,0.0,0.0,0.0,0.0,0.0,0.0,0.0,0.0,0.0,0.0,0.0,0.0,0.0,2.1194,2.368,2.5737,2.7417,2.868,2.9958,3.0277,2.961,2.8754,2.774,0.0,0.0,0.0,0.0,0.0,0.0,0.0,0.0,0.0,0.0,0.0,0.0,0.0,0.0,0.0,0.0,0.0,0.0,0.0,0.0,0.0,0.0,0.0,0.0,0.0,0.0,0.0,0.0,2.0638,2.1128,2.1599,0.0,0.0,0.0,0.0,0.0,0.0,0.0,0.0,0.0,0.0,3.6174,3.7811,3.9149,0.0,0.0,4.0945,4.0845,4.0268,4.0146,3.9761,3.8763,3.8738,0.0,0.0,0.0,0.0,0.0,0.0,0.0,0.0,0.0,0.0,0.0,0.0,0.0,0.0,0.0,0.0,0.0,0.0,0.0,0.0,0.0,0.0,0.0,0.0,0.0,0.0,0.0,0.0,0.0,0.0,0.0,0.0,0.0,0.0,0.0,0.0,0.0,0.0,0.0,0.0,0.0,0.0,0.0,0.0,0.0,0.0,0.0,0.0,0.0,0.0,0.0,0.0,2.185,2.4405,2.617,2.7694,2.8956,3.0031,3.0379,2.9914,2.929,2.8615,2.785,0.0,0.0,0.0,0.0,0.0,0.0,0.0,0.0,0.0,0.0,0.0,0.0,0.0,0.0,0.0,0.0,0.0,0.0,0.0,0.0,0.0,0.0,0.0,0.0,0.0,0.0,0.0,2.207,2.2832,2.3785,0.0,0.0,0.0,0.0,0.0,0.0,0.0,0.0,0.0,0.0,3.7711,3.9633,4.076,4.1806,4.2984,4.2918,4.2682,4.2493,4.2114,4.1643,4.1131,0.0,0.0,0.0,0.0,0.0,0.0,0.0,0.0,0.0,0.0,0.0,0.0,0.0,0.0,0.0,0.0,0.0,0.0,0.0,0.0,0.0,0.0,0.0,0.0,0.0,0.0,0.0,1.2185,0.0,0.0,1.2174,0.0,0.0,0.0,0.0,0.0,0.0,0.0,0.0,0.0,0.0,0.0,0.0,0.0,0.0,0.0,0.0,0.0,0.0,0.0,0.0,0.0,0.0,2.2515,2.4948,2.6759,2.8275,2.9537,3.0234,3.0598,3.0569,2.9929,2.9745,3.0051,0.0,0.0,0.0,0.0,0.0,0.0,0.0,0.0,0.0,0.0,0.0,0.0,0.0,0.0,0.0,0.0,0.0,0.0,0.0,0.0,0.0,0.0,0.0,0.0,0.0,0.0,2.0969,2.27,2.4539,0.0,0.0,0.0,0.0,0.0,0.0,0.0,0.0,0.0,3.5678,3.7844,3.9766,4.121,4.262,4.3779,4.4571,4.5233,4.5494,4.4948,4.4725,4.4743,0.0,0.0,0.0,0.0,0.0,0.0,0.0,0.0,0.0,0.0,0.0,0.0,0.0,0.0,0.0,0.0,0.0,0.0,0.0,0.0,0.0,0.0,0.0,0.0,0.0,0.0,0.0,1.4163,1.4376,0.0,0.0,0.0,0.0,0.0,0.0,0.0,0.0,0.0,0.0,0.0,2.1664,2.1803,0.0,0.0,0.0,0.0,0.0,0.0,0.0,0.0,0.0,0.0,0.0,0.0,2.3803,2.5891,2.7176,2.8471,2.9769,3.0322,3.0598,3.0598,3.0379,3.0045,2.9599,0.0,0.0,0.0,0.0,0.0,0.0,0.0,0.0,0.0,0.0,0.0,0.0,0.0,0.0,0.0,0.0,0.0,0.0,0.0,0.0,0.0,0.0,0.0,0.0,0.0,2.4064,0.0,0.0,0.0,0.0,0.0,0.0,0.0,0.0,0.0,0.0,3.3347,3.5723,3.791,4.005,4.1972,4.3396,4.4423,4.5317,0.0,0.0,0.0,0.0,0.0,0.0,0.0,0.0,0.0,0.0,0.0,0.0,0.0,4.2346,4.146,4.1333,4.2023,4.2864,4.3503,0.0,0.0,0.0,0.0,0.0,0.0,0.0,0.0,0.0,0.0,0.0,0.0,0.0,0.0,1.6779,1.7011,1.7061,0.0,0.0,0.0,0.0,0.0,0.0,0.0,0.0,2.1499,2.2626,2.4458,2.4324,2.4675,2.5336,2.4537,2.3194,0.0,0.0,0.0,0.0,0.0,0.0,0.0,0.0,2.5141,2.7005,2.8127,2.9311,3.0588,3.0879,3.1138,3.1358,3.129,3.0734,2.9715,2.828,2.6627,0.0,0.0,0.0,0.0,0.0,0.0,0.0,0.0,0.0,0.0,0.0,0.0,0.0,0.0,0.0,0.0,0.0,0.0,0.0,0.0,0.0,0.0,0.0,2.6602,0.0,0.0,0.0,0.0,0.0,0.0,0.0,0.0,0.0,3.3116,3.5446,3.7976,4.013,4.227,4.4092,4.53,0.0,0.0,0.0,0.0,0.0,0.0,0.0,4.6911,4.7002,4.7056,4.7044,4.6907,4.6183,4.5817,4.6486,0.0,0.0,4.4082,4.4559,4.5492,4.6409,4.6257,4.6255,4.7155,4.7403,4.7733,0.0,0.0,0.0,0.0,1.6231,0.0,0.0,0.0,1.9147,1.9457,0.0,2.0435,0.0,0.0,0.0,0.0,2.0434,2.0925,0.0,0.0,2.4642,2.5945,2.7713,2.7176,2.7569,2.869,2.7496,2.679,2.6477,2.3501,2.1884,0.0,0.0,0.0,0.0,0.0,2.6406,2.8307,2.949,3.0719,3.1898,3.1879,3.2094,3.2708,3.2508,3.1722,3.0485,2.9853,2.8832,2.7215,2.4803,0.0,0.0,0.0,0.0,0.0,0.0,0.0,0.0,0.0,0.0,0.0,0.0,0.0,0.0,0.0,0.0,0.0,0.0,0.0,0.0,2.6906,0.0,0.0,0.0,0.0,0.0,0.0,0.0,0.0,0.0,3.5379,3.6108,3.8009,4.0163,4.2322,0.0,0.0,0.0,0.0,4.8034,4.8034,4.8067,4.8116,4.8229,4.8181,4.8381,4.916,0.0,0.0,4.862,4.778,4.7685,4.9161,5.0373,5.0204,4.6725,4.6327,4.6758,4.8034,4.8365,4.873,4.9938,5.0402,5.0817,2.1113,0.0,0.0,0.0,0.0,1.9699,2.0703,2.2207,2.2075,2.2392,2.3015,2.302,0.0,0.0,0.0,0.0,0.0,0.0,2.4629,2.6947,2.7161,2.7984,2.936,2.9281,2.9359,2.9633,2.9178,2.8919,2.885,2.7832,2.6123,2.3808,0.0,0.0,0.0,0.0,2.7701,2.9168,2.9895,3.0821,3.1956,3.1864,3.2047,3.2576,3.2032,3.1567,3.1201,3.0178,2.9304,2.8667,2.6398,0.0,0.0,0.0,0.0,0.0,0.0,0.0,0.0,0.0,0.0,0.0,0.0,0.0,0.0,0.0,0.0,0.0,0.0,0.0,2.8216,2.9597,3.0357,0.0,0.0,0.0,0.0,0.0,0.0,0.0,0.0,0.0,3.9772,4.0401,4.1806,0.0,0.0,4.6841,4.7603,4.8332,4.8779,4.8796,4.9226,0.0,4.9658,4.9793,4.9926,4.9958,5.062,5.1254,5.1409,5.1486,5.1731,5.2356,5.225,5.1828,5.1461,5.166,5.2091,5.2554,5.2638,5.2753,5.3184,5.368,5.4144,2.4966,2.3768,2.2385,2.2023,2.2389,2.2522,2.3543,2.5139,2.5028,2.5409,2.6073,2.6164,2.567,2.4764,2.4572,0.0,0.0,0.0,2.723,2.936,2.911,2.9684,3.0813,3.0697,3.0697,3.086,3.0779,3.07,3.0591,3.0238,2.9002,2.6979,0.0,2.638,2.6799,2.7829,2.8889,2.9937,3.0752,3.1634,3.2568,3.2961,3.3096,3.2974,3.2579,3.2111,3.151,3.0756,3.0075,2.944,2.7843,2.6548,0.0,0.0,0.0,0.0,0.0,0.0,0.0,0.0,0.0,0.0,0.0,1.9226,1.9811,0.0,0.0,0.0,2.7267,2.9156,3.1118,3.1547,0.0,0.0,0.0,0.0,0.0,0.0,0.0,3.6033,3.907,4.1607,4.2568,4.323,4.4357,4.6411,4.757,4.8365,4.8812,0.0,4.9856,4.9591,4.9905,5.0302,5.0585,5.0807,5.1092,5.1535,5.2475,5.3443,5.3959,5.4195,5.4553,5.5259,5.5015,5.4796,5.5549,5.6008,5.5899,5.5104,5.4939,5.5104,5.5634,5.615,5.6647,2.8394,2.8919,2.54,2.4387,2.5118,2.5009,2.6088,2.7958,2.7937,2.8369,2.907,2.9508,2.9013,2.7827,2.7625,0.0,2.9065,2.9072,2.9856,3.1311,3.0672,3.1025,3.2158,3.1576,3.1607,3.2219,3.2205,3.2081,3.1796,3.1192,3.0807,3.0594,2.9442,2.88,2.8727,2.9338,2.9953,3.0582,3.1854,3.2841,3.3559,3.4607,3.4719,3.3807,3.3716,3.3038,3.1713,3.1597,3.1002,2.9827,2.9188,2.8396,2.7406,0.0,0.0,0.0,0.0,0.0,0.0,0.0,0.0,0.0,0.0,0.0,0.0,0.0,0.0,2.88,3.0398,0.0,3.3487,3.3154,0.0,0.0,0.0,3.5822,3.7222,3.8738,3.9613,3.958,0.0,0.0,4.4703,4.6212,4.7438,4.8166,4.9375,5.0203,5.0203,5.0867,5.1165,5.0518,5.0501,5.0817,5.1596,5.1713,5.2148,5.3418,5.4254,5.5022,5.5899,5.6098,5.664,5.8045,5.818,5.8164,5.9073,5.8986,5.8469,5.6628,5.6131,5.6429,5.774,5.8171,5.8634,3.0035,3.0516,2.9509,2.8652,2.7984,2.8531,2.9338,3.0271,3.0172,3.0559,3.1239,3.1355,3.1109,3.0613,3.0578,3.0891,3.1445,3.1205,3.1581,3.2439,3.2067,3.2064,3.2341,3.2187,3.2187,3.2327,3.2261,3.2163,3.2093,3.1828,3.1683,3.1625,3.1241,3.0497,2.9428,2.9997,3.0612,3.1271,3.2093,3.3005,3.4014,3.4568,3.4693,3.4464,3.388,3.3391,3.3038,3.2542,3.1887,3.1104,3.0495,2.961,2.8397,2.6623,0.0,0.0,0.0,0.0,0.0,0.0,0.0,0.0,0.0,2.3826,2.4582,0.0,2.8067,0.0,3.3214,3.5182,3.5571,3.6104,0.0,0.0,3.7892,3.8606,3.9534,4.1375,4.2355,4.1792,4.4655,4.6609,4.6411,4.8117,4.969,5.0403,5.032,5.0203,5.0236,5.1331,5.2093,5.1994,5.2738,5.3515,5.3647,5.3765,5.3919,5.4434,5.5453,5.6254,5.6549,5.7454,5.8277,5.8741,5.9212,5.9549,5.9809,6.0212,6.0622,6.0523,5.9761,5.9231,6.0125,6.0721,6.1239,3.131,3.2032,3.1943,3.1489,3.0807,3.0759,3.1232,3.2041,3.196,3.229,3.2935,3.2955,3.2862,3.2695,3.2727,3.2784,3.2914,3.2734,3.2812,3.3056,3.2773,3.2619,3.2605,3.2482,3.2427,3.2427,3.2637,3.272,3.2649,3.2883,3.2949,3.2891,3.2804,3.2204,3.1068,3.0983,3.1136,3.1511,3.2452,3.3528,3.4717,3.4968,3.4833,3.4391,3.3957,3.3359,3.2645,3.228,3.1742,3.1119,3.0801,3.0147,2.9116,2.7643,2.6418,0.0,0.0,0.0,0.0,0.0,0.0,0.0,0.0,0.0,0.0,0.0,3.0495,3.2631,3.5525,3.7256,3.7324,3.8046,3.8995,4.0165,4.0781,4.1569,4.2667,4.4423,4.5401,4.5004,4.7322,4.8829,4.8448,4.9988,5.1313,5.1779,5.1976,5.1991,5.1793,5.2638,5.3334,5.3367,5.3978,5.4641,5.4939,5.5554,5.6122,5.6616,5.7487,5.831,5.8741,5.9643,6.0419,6.0636,6.1098,6.1492,6.1609,6.1811,6.2312,6.283,6.2532,6.2047,6.2068,6.2399,6.2764,3.216,3.3169,3.3037,3.309,3.3218,3.2194,3.2365,3.3391,3.3379,3.3665,3.4126,3.4126,3.4113,3.4088,3.4088,3.3962,3.3745,3.3739,3.3597,3.3348,3.3087,3.2966,3.2953,3.2605,3.2513,3.2605,3.3135,3.3388,3.3365,3.3977,3.4179,3.4075,3.4015,3.3667,3.2974,3.2181,3.1779,3.175,3.3006,3.4173,3.534,3.5248,3.479,3.3954,3.3876,3.3187,3.1777,3.1657,3.1367,3.0802,3.0714,3.0451,2.9856,2.8725,2.8045,0.0,2.6486,0.0,0.0,0.0,0.0,0.0,0.0,0.0,0.0,3.2599,3.3647,3.5571,3.7709,3.9001,3.9245,3.9859,4.1197,4.3462,4.3885,4.4603,4.6196,4.7603,4.8465,4.8564,4.9739,5.06,5.0667,5.1843,5.2656,5.2789,5.3732,5.421,5.3846,5.421,5.4574,5.4622,5.4806,5.5369,5.5932,5.7044,5.8071,5.8734,5.933,6.0319,6.1035,6.1675,6.2273,6.2699,6.3043,6.3391,6.3663,6.3567,6.3758,6.4354,6.4387,6.4167,6.3725,6.3592,6.3791,3.216,3.3103,3.2216,3.2612,3.3847,3.3176,3.3475,3.4409,3.4312,3.4256,3.4263,3.4263,3.4201,3.4101,3.4088,3.4063,3.4025,3.3797,3.3668,3.3604,3.3361,3.3229,3.3216,3.2935,3.3094,3.3592,3.345,3.3691,3.4276,3.4384,3.4446,3.4417,3.4238,3.4028,3.3788,0.0,0.0,0.0,3.3903,3.4428,3.4667,3.4002,3.3551,3.3354,3.3258,0.0,3.2732,3.2562,3.2207,3.1624,3.1428,0.0,3.1118,0.0,0.0,0.0,0.0,0.0,0.0,0.0,0.0,0.0,3.3221,3.3757,3.3744,3.5849,3.7598,3.857,4.0548,4.2052,4.2681,4.3489,4.4462,4.5668,4.647,4.7539,4.916,5.0121,5.09,5.153,5.2274,5.2786,5.2786,5.3581,5.4078,5.4111,5.4839,5.5303,5.5237,5.5303,5.5383,5.5468,5.6349,5.7144,5.7376,5.8104,5.8668,5.8966,5.9529,6.0278,6.1061,6.1811,6.2465,6.3091,6.3702,6.4133,6.4177,6.4619,6.5028,6.5171,6.5227,6.516,6.5061,6.4995,6.5039,3.1992,3.2734,3.2174,3.2615,0.0,3.363,3.4081,3.4775,3.4655,3.4509,3.4399,3.4325,3.4263,3.4188,3.4126,3.4088,3.4088,3.3949,3.3886,3.3886,3.3617,3.3678,3.4027,3.3599,3.3724,3.4379,3.4436,3.4613,3.4983,3.5322,3.5506,3.5491,3.54,3.5233,3.4987,3.4769,3.4416,3.4009,3.4354,3.4667,3.4951,3.4572,3.4298,3.4188,3.4109,0.0,0.0,0.0,0.0,0.0,0.0,0.0,0.0,3.1409,3.1032,3.1076,3.1061,3.133,3.1957,3.2931,3.4021,3.5254,3.7203,3.7917,3.6807,3.9347,4.1145,4.1534,4.3152,4.435,4.4723,4.5778,4.6742,4.7404,4.8473,4.9613,5.0632,5.1678,5.2473,5.287,5.3482,5.3945,5.3945,5.4574,5.5005,5.5071,5.5686,5.6282,5.6581,5.6363,5.623,5.6628,5.7608,5.8303,5.8369,5.8601,5.9065,5.9429,6.0059,6.0788,6.1516,6.2565,6.3426,6.3824,6.4399,6.4807,6.4873,6.5436,6.5933,6.5966,6.6231,6.6463,6.6463,6.6198,6.5933,3.2106,3.2688,3.2499,3.2693,3.3222,3.3828,3.4411,3.4871,3.4775,0.0,0.0,3.4423,3.4337,3.43,3.4188,3.4126,3.4088,3.4088,3.4088,3.4088,3.4002,3.4297,3.4861,3.4446,3.4579,3.524,3.5452,3.5659,3.5767,3.6261,3.6507,3.6507,3.6507,3.6382,3.6171,3.6001,3.5612,3.5043,3.4787,3.4997,3.5639,3.5579,3.5424,3.528,3.5234,3.5103,3.4839,3.4417,3.4244,3.4442,3.3605,3.3064,3.3006,3.2513,3.2019,3.1657,3.2193,3.3033,3.42,3.4985,3.6238,3.8103,4.0761,4.1726,4.0271,4.2537,4.4075,4.4059,4.5241,4.605,4.618,4.7231,4.8199,4.8648,4.9894,5.0925,5.1625,5.2771,5.368,5.3978,5.4574,5.4872,5.4939,5.5435,5.5866,5.6031,5.6514,5.7163,5.7707,5.7495,5.7342,5.7839,5.8601,5.9098,5.9131,5.9297,5.9529,6.0125,6.0821,6.1516,6.2366,6.3493,6.4387,6.4796,6.526,6.5569,6.5801,6.6297,6.6662,6.6695,6.7158,6.7589,6.7556,6.7224,6.686,3.3002,3.3945,3.2863,3.2693,3.3235,3.3841,3.4411,3.4883,3.4892,3.4787,3.4667,3.4643,3.4521,3.43,3.4288,3.4213,3.4101,3.4088,3.4088,3.4133,3.4723,3.5066,3.515,3.5412,3.5887,3.6455,3.6067,3.6176,3.6706,3.6585,3.6507,3.6507,3.6507,3.6611,3.6884,3.7215,3.7258,3.6985,3.5925,3.5669,3.6327,3.5789,3.5503,3.5457,3.5487,3.5424,3.5392,3.5008,3.4767,3.4806,3.4422,3.4433,3.4956,3.4869,3.5055,3.5503,3.6112,3.6863,3.7695,3.8255,3.9464,4.1627,4.389,4.4625,4.3298,4.4561,4.55,4.5532,4.6245,4.7039,4.7587,4.7896,4.8477,4.935,5.0207,5.1302,5.2882,5.3846,5.4806,5.5918,5.6316,5.6335,5.6316,5.6448,5.6779,5.7309,5.7608,5.7939,5.8535,5.8668,5.8634,5.88,5.9363,5.9794,5.9893,6.039,6.0721,6.092,6.155,6.2266,6.3029,6.3923,6.4862,6.5955,6.6231,6.6529,6.7059,6.7357,6.7456,6.7456,6.7655,6.7754,6.7787,6.8019,6.8142,3.3863,3.4217,3.3369,3.3288,3.388,3.4795,3.5305,3.5593,3.5939,3.5608,3.482,3.4727,3.4582,3.4411,3.4325,3.4453,3.4696,3.4696,3.491,3.5299,3.5636,3.5979,3.6308,3.6341,3.6603,3.7086,3.6709,3.6581,3.6693,3.6585,3.6507,3.6507,3.6736,3.7145,3.767,3.7691,3.7837,3.8069,3.7066,3.6686,3.6956,3.6686,3.6716,3.7062,3.7092,3.7204,3.7459,3.7032,3.6801,3.6852,3.6154,3.5974,3.6409,3.6101,3.6188,3.6791,3.7429,3.8108,3.8837,4.0202,4.1939,4.4088,4.5201,4.5726,4.5467,4.6018,4.6374,4.6407,4.7054,4.7637,4.7993,4.8781,4.9544,5.0139,5.1609,5.2957,5.3923,5.5057,5.5951,5.6567,5.6699,5.6865,5.7243,5.7309,5.7594,5.829,5.8668,5.9131,5.9463,5.9827,5.9926,5.9661,6.0125,6.0523,6.0622,6.0854,6.1251,6.1604,6.23,6.3029,6.3791,6.473,6.569,6.6363,6.6794,6.7191,6.7622,6.7953,6.8142,6.8241,6.8572,6.8738,6.8871,6.9103,6.9136,3.4599,3.4804,3.3985,3.4073,3.4787,3.5696,3.6186,3.6378,3.6704,3.6302,3.5455,3.527,3.5161,3.5025,3.4763,3.4977,3.5461,3.5312,3.5656,3.6324,3.6478,3.6807,3.7279,3.7186,3.7345,3.7577,3.7329,3.706,3.6723,3.6662,3.6646,3.6784,3.7394,3.7955,3.8438,3.8304,3.8448,3.8782,3.8222,3.7836,3.7836,3.7853,3.8105,3.8571,3.8601,3.8799,3.9133,3.871,3.8519,3.8561,3.7691,3.7378,3.7743,3.7263,3.7226,3.7883,3.8522,3.9227,4.0158,4.2045,4.3952,4.5595,4.5965,4.6342,4.7022,4.7136,4.7151,4.7234,4.7781,4.8335,4.873,4.9798,5.0812,5.1292,5.3,5.4237,5.4769,5.5786,5.6514,5.6647,5.6812,5.7196,5.7674,5.8104,5.8634,5.933,6.0026,6.0423,6.0357,6.0788,6.0821,6.0721,6.0854,6.1152,6.1285,6.1351,6.1682,6.2333,6.3062,6.3791,6.4564,6.569,6.6628,6.696,6.7489,6.792,6.8085,6.8539,6.8904,6.8993,6.9301,6.9699,6.9666,6.9699,6.9765,3.5171,3.5934,3.4778,3.4901,3.5896,3.6085,3.6496,3.6918,3.6489,3.6502,3.684,3.6878,3.6769,3.6602,3.5938,3.5994,3.6456,3.5752,3.5831,3.6534,3.7005,3.7261,3.739,3.7945,3.8286,3.8219,3.7932,3.755,3.7223,3.7045,3.7095,3.7524,3.8659,3.9137,3.9047,3.9477,3.9634,3.9338,3.9242,3.9212,3.9212,3.9212,3.9242,3.9302,3.9302,3.9331,3.9355,3.8976,3.8866,3.898,3.845,3.845,3.9146,3.9042,3.9189,3.977,4.0437,4.1447,4.2812,4.4452,4.5385,4.5728,4.6416,4.7087,4.7799,4.7879,4.7929,4.8058,4.8526,4.9231,5.0095,5.0917,5.1819,5.2756,5.3719,5.4519,5.5298,5.5601,5.5965,5.6614,5.7329,5.776,5.8104,5.9098,6.0125,6.0821,6.1438,6.1703,6.1251,6.1218,6.1516,6.1715,6.1583,6.1483,6.1935,6.2101,6.2432,6.3062,6.3791,6.4454,6.5127,6.5933,6.6827,6.7688,6.844,6.8771,6.9235,6.9666,6.9633,6.9533,6.9666,6.9798,6.9798,6.9798,6.9798,3.6258,3.6318,3.54,3.572,3.6816,3.7238,3.756,3.781,3.7944,3.7944,3.7877,3.8216,3.7865,3.6898,3.6569,3.6768,3.7295,3.6855,3.7036,3.7707,3.788,3.794,3.7987,3.8246,3.829,3.8073,3.777,3.7447,3.7212,3.7266,3.7774,3.8631,3.9261,3.9607,3.9851,3.9964,3.9922,3.9762,3.9517,3.9421,3.9421,3.9421,3.9421,3.9421,3.9421,3.9421,3.9433,3.9604,3.9721,3.9713,3.9845,3.996,4.0071,4.0023,4.0197,4.069,4.1308,4.216,4.323,4.4377,4.5203,4.566,4.6859,4.7702,4.8008,4.8771,4.9293,4.9419,4.9664,5.0174,5.0982,5.1921,5.2828,5.3719,5.4538,5.5194,5.5549,5.6415,5.7044,5.7395,5.8005,5.8833,5.9728,6.102,6.198,6.2378,6.2697,6.2664,6.2378,6.2378,6.2532,6.273,6.2565,6.2532,6.2797,6.2863,6.3161,6.3725,6.41,6.4564,6.537,6.643,6.739,6.8019,6.8738,6.9358,6.9689,6.9798,6.9798,6.9798,6.9798,6.9798,6.9798,6.9798,6.9798,3.6906,3.6399,3.629,3.6799,3.7662,3.8094,3.8423,3.8576,3.8898,3.8843,3.8645,3.9094,3.8798,3.7899,3.7457,3.7603,3.8103,3.7752,3.797,3.8595,3.8492,3.8408,3.8408,3.8408,3.8262,3.8015,3.7813,3.7588,3.748,3.798,3.8668,3.9431,3.9691,3.9996,4.0374,4.0169,3.9975,3.9874,3.9553,3.9421,3.9421,3.9421,3.9421,3.9421,3.9571,3.9679,3.969,4.0252,4.0554,4.0461,4.0785,4.0918,4.092,4.0744,4.0858,4.1329,4.1831,4.2576,4.3545,4.4167,4.5036,4.6231,4.7455,4.8241,4.8709,4.9606,5.0463,5.0978,5.1106,5.1408,5.1936,5.3076,5.4001,5.4585,5.536,5.5932,5.6263,5.7243,5.7839,5.8104,5.8966,6.0158,6.1715,6.2875,6.3526,6.3559,6.3592,6.3459,6.3327,6.3261,6.3294,6.3559,6.3592,6.3592,6.3592,6.3592,6.3902,6.4365,6.4664,6.5028,6.5734,6.7026,6.7986,6.8606,6.9334,6.9699,6.9765,6.9798,6.9798,6.9798,6.9798,6.9798,6.9798,6.9798,6.9798,3.6585,3.6585,3.7662,3.808,3.825,3.8306,3.8678,3.916,3.8711,3.872,3.926,3.9355,3.968,4.005,3.8831,3.858,3.9036,3.8241,3.8204,3.885,3.8599,3.844,3.8408,3.8408,3.8426,3.8448,3.8427,3.8398,3.8416,3.9373,3.9827,3.9554,4.0122,4.0374,4.0314,4.0117,3.9892,3.975,3.9517,3.9421,3.9421,3.9421,3.9451,3.9511,4.0008,4.0337,4.0408,4.0807,4.1164,4.1324,4.0928,4.1018,4.1774,4.1408,4.1427,4.1968,4.2084,4.2789,4.4109,4.4503,4.5478,4.7412,4.8132,4.879,4.9769,5.046,5.1241,5.2351,5.2702,5.3019,5.3253,5.4246,5.5146,5.553,5.6197,5.6912,5.7541,5.7773,5.8138,5.8933,6.0225,6.1781,6.3824,6.4288,6.442,6.4454,6.4387,6.4255,6.3758,6.3493,6.3725,6.4155,6.4354,6.4354,6.4354,6.4354,6.463,6.5127,6.5492,6.5767,6.6794,6.7754,6.845,6.9069,6.95,6.9732,6.9765,6.9798,6.9798,6.9798,6.9798,6.9798,6.9798,6.9798,6.9798,3.6569,3.6477,3.7339,3.772,3.7807,3.8576,3.9087,3.9406,3.956,4.0023,4.0586,4.0647,4.0779,4.1011,4.05,4.036,4.0427,3.9527,3.9453,3.996,3.9823,3.9735,3.9735,3.9735,3.9491,3.917,3.9304,3.9446,3.9469,3.9657,3.9857,4.0156,4.0351,4.0487,4.0401,4.0121,3.9945,3.9887,3.9571,3.9421,3.9481,3.9828,4.0038,4.0068,4.0277,4.0606,4.1025,4.1596,4.1955,4.2032,4.2187,4.2397,4.2555,4.2314,4.223,4.2465,4.2494,4.299,4.4054,4.5063,4.614,4.7465,4.9014,4.9984,5.0551,5.1459,5.2356,5.2955,5.3968,5.4515,5.476,5.5208,5.5723,5.6296,5.6945,5.7528,5.7906,5.8601,5.9496,6.039,6.1947,6.3537,6.4266,6.516,6.5724,6.5757,6.5724,6.5558,6.5359,6.4962,6.4697,6.4929,6.5028,6.5028,6.5028,6.5028,6.526,6.579,6.6231,6.6562,6.7324,6.8019,6.8738,6.9036,6.9467,6.9765,6.9798,6.9798,6.9798,6.9798,6.9798,6.9798,6.9798,6.9798,6.9798,3.6906,3.7296,3.7147,3.7601,3.8391,3.9033,3.9612,4.0064,4.0512,4.0978,4.1361,4.1428,4.1527,4.1659,4.1494,4.1446,4.1391,4.0633,4.0308,4.0362,4.0457,4.0254,3.9912,4.0074,3.9944,3.9688,4.0221,4.0419,4.0269,4.0192,4.0299,4.0509,4.0505,4.0505,4.0453,4.0226,4.0081,3.9958,3.9643,3.9553,3.9738,4.0157,4.0636,4.0965,4.1044,4.1254,4.1733,4.2331,4.269,4.2731,4.3031,4.313,4.29,4.282,4.2769,4.2738,4.2915,4.3529,4.4572,4.583,4.7076,4.8325,4.9826,5.0901,5.1405,5.2448,5.3216,5.3865,5.4665,5.5501,5.5894,5.6164,5.6514,5.7044,5.7707,5.8389,5.8833,5.9761,6.0854,6.208,6.3338,6.4365,6.5006,6.5867,6.6463,6.6794,6.6695,6.6496,6.6397,6.59,6.5403,6.5436,6.5635,6.5757,6.5867,6.5999,6.59,6.6363,6.686,6.7258,6.7721,6.8407,6.8804,6.9069,6.9334,6.9633,6.9798,6.9798,6.9798,6.9798,6.9798,6.9798,6.9798,6.9798,6.9798,3.7533,3.8771,3.7222,3.8024,3.9907,3.9652,4.0191,4.1158,4.1385,4.1494,4.1692,4.156,4.1924,4.2208,4.1863,4.1686,4.1716,4.1231,4.062,4.0087,4.0392,3.9962,3.9055,3.9588,3.988,3.9833,4.0919,4.1131,4.0624,4.0981,4.104,4.0578,4.0505,4.0505,4.0505,4.0331,4.0187,4.0054,3.9888,3.9932,4.0344,4.0516,4.1115,4.2141,4.2291,4.2351,4.241,4.297,4.325,4.323,4.312,4.293,4.283,4.2969,4.296,4.2987,4.341,4.4559,4.5992,4.6929,4.8407,5.0048,5.091,5.1688,5.255,5.3261,5.4,5.4915,5.5454,5.5899,5.6647,5.7309,5.7674,5.7859,5.8403,5.9396,6.0456,6.102,6.1914,6.3625,6.4354,6.4995,6.5999,6.6662,6.7026,6.7357,6.7158,6.6794,6.6794,6.6231,6.5602,6.5635,6.6099,6.6496,6.6761,6.7026,6.6893,6.6926,6.739,6.7854,6.8407,6.897,6.9169,6.9401,6.95,6.9798,6.9798,6.9798,6.9798,6.9798,6.9798,6.9798,6.9798,6.9798,6.9798,3.811,3.866,3.8067,3.8811,4.0355,4.0183,4.0664,4.1535,4.1968,4.244,4.2851,4.2918,4.2741,4.2488,4.2606,4.2213,4.1262,4.1395,4.1354,4.1071,4.1173,4.1225,4.1178,4.1013,4.1208,4.1457,4.1054,4.1008,4.116,4.1012,4.0681,4.0509,4.0505,4.0505,4.0487,4.0226,4.0246,4.063,4.0353,4.0452,4.1074,4.1523,4.2002,4.2381,4.2791,4.301,4.301,4.322,4.329,4.329,4.325,4.317,4.319,4.3608,4.3846,4.3956,4.5012,4.6105,4.7176,4.8464,4.9683,5.1009,5.2035,5.2762,5.3335,5.4268,5.5,5.5539,5.6012,5.6647,5.7376,5.8104,5.8336,5.7892,5.8899,5.9827,6.0523,6.1318,6.2333,6.3459,6.4498,6.5459,6.6452,6.7181,6.7976,6.8241,6.8076,6.791,6.7844,6.7247,6.696,6.696,6.7224,6.7258,6.7456,6.7787,6.8009,6.7887,6.8175,6.8473,6.9003,6.9301,6.95,6.9633,6.9732,6.9798,6.9798,6.9798,6.9798,6.9798,6.9798,6.9798,6.9798,6.9798,6.9798,3.8727,3.9156,3.893,3.9586,4.0774,4.0595,4.1197,4.2239,4.247,4.2927,4.3502,4.3598,4.3322,4.295,4.3236,4.261,4.1455,4.1952,4.1994,4.166,4.1579,4.1711,4.1857,4.1726,4.1791,4.2071,4.147,4.126,4.154,4.1021,4.066,4.0539,4.0505,4.0505,4.0518,4.0488,4.0659,4.0946,4.0914,4.1179,4.1722,4.2201,4.2511,4.2731,4.31,4.329,4.329,4.329,4.329,4.329,4.329,4.3409,4.3668,4.3848,4.4258,4.5193,4.6058,4.7134,4.8471,4.9742,5.0972,5.1981,5.2904,5.368,5.421,5.5237,5.5634,5.6031,5.668,5.7296,5.7806,5.8734,5.8999,5.8701,5.9694,6.0456,6.0887,6.2101,6.3261,6.4222,6.516,6.6154,6.7281,6.7943,6.8828,6.8993,6.8861,6.8705,6.8539,6.8019,6.7787,6.7721,6.7854,6.7943,6.8076,6.8473,6.9003,6.9036,6.9036,6.9235,6.9533,6.9599,6.9732,6.9732,6.9798,6.9798,6.9798,6.9798,6.9798,6.9798,6.9798,6.9798,6.9798,6.9798,6.9798,3.9373,4.0343,3.9858,4.0428,4.1517,4.1006,4.1797,4.3242,4.2956,4.3047,4.3524,4.3746,4.3616,4.3539,4.3469,4.2939,4.2231,4.2344,4.2221,4.174,4.1579,4.137,4.1013,4.1499,4.1823,4.1827,4.1885,4.1851,4.1572,4.1139,4.0868,4.0509,4.0597,4.0597,4.0747,4.1036,4.1218,4.1328,4.1561,4.1945,4.241,4.247,4.272,4.322,4.326,4.329,4.329,4.329,4.329,4.329,4.329,4.3549,4.3967,4.3648,4.4529,4.628,4.6663,4.8057,4.97,5.0876,5.1843,5.3026,5.3533,5.4045,5.5204,5.5601,5.6084,5.6713,5.7309,5.7806,5.8204,5.9131,5.9827,6.0125,6.0556,6.1251,6.2134,6.3327,6.4222,6.5127,6.6065,6.7026,6.8307,6.8672,6.9103,6.9401,6.9225,6.897,6.8804,6.8473,6.792,6.8052,6.8539,6.8672,6.8804,6.897,6.9457,6.9434,6.9467,6.9599,6.9732,6.9765,6.9798,6.9798,6.9798,6.9798,6.9798,6.9798,6.9798,6.9798,6.9798,6.9798,6.9798,6.9798,6.9798,4.0874,4.1255,4.1073,4.1783,4.2876,4.234,4.2608,4.3539,4.3434,4.3421,4.3698,4.4191,4.4004,4.3348,4.3795,4.3167,4.22,4.1963,4.1885,4.166,4.1579,4.1515,4.1467,4.2002,4.2311,4.2249,4.1901,4.1687,4.1555,4.1001,4.0643,4.0553,4.1014,4.1278,4.1348,4.1631,4.2058,4.2372,4.225,4.2509,4.296,4.304,4.313,4.326,4.329,4.329,4.329,4.329,4.329,4.329,4.329,4.3369,4.3698,4.4287,4.5284,4.6614,4.8125,4.9397,5.0725,5.2034,5.2965,5.3412,5.4343,5.5204,5.5535,5.6117,5.6713,5.7362,5.774,5.827,5.9164,5.9794,6.0258,6.0755,6.1119,6.1483,6.2167,6.2996,6.4034,6.5238,6.6496,6.7678,6.8539,6.9136,6.9533,6.9666,6.9599,6.9401,6.9268,6.9235,6.8814,6.9103,6.9434,6.9467,6.9557,6.9656,6.9732,6.9732,6.9699,6.9699,6.9765,6.9798,6.9798,6.9798,6.9798,6.9798,6.9798,6.9798,6.9798,6.9798,6.9798,6.9798,6.9798,6.9798,6.9798,4.1684,4.2047,4.2276,4.2689,4.3111,4.2741,4.2973,4.353,4.3624,4.3817,4.4164,4.4854,4.4828,4.4313,4.4519,4.3936,4.2786,4.2534,4.2342,4.2035,4.2035,4.2035,4.2132,4.2457,4.2523,4.2333,4.1851,4.1555,4.1306,4.0797,4.0693,4.0984,4.1401,4.174,4.2061,4.2371,4.2741,4.3031,4.2979,4.3138,4.3448,4.3379,4.329,4.329,4.329,4.329,4.329,4.329,4.329,4.329,4.3319,4.3549,4.4137,4.4658,4.586,4.749,4.9111,5.0344,5.1639,5.2988,5.383,5.425,5.518,5.5667,5.6051,5.6481,5.6998,5.7641,5.8058,5.8833,5.9794,6.0523,6.1218,6.1914,6.2013,6.2068,6.2255,6.3426,6.4564,6.5856,6.7115,6.8341,6.9036,6.9533,6.9732,6.9798,6.9798,6.9732,6.9732,6.9798,6.9798,6.9798,6.9798,6.9732,6.9666,6.9765,6.9798,6.9798,6.9798,6.9798,6.9798,6.9798,6.9798,6.9798,6.9798,6.9798,6.9798,6.9798,6.9798,6.9798,6.9798,6.9798,6.9798,6.9798,6.9798,4.2156,4.2757,4.334,4.325,4.2788,4.2808,4.3277,4.3697,4.3966,4.4339,4.4861,4.5567,4.5769,4.5818,4.5241,4.4834,4.4149,4.3474,4.3054,4.2667,4.2522,4.2489,4.2489,4.2522,4.2429,4.2142,4.1769,4.1534,4.1293,4.0883,4.1063,4.1617,4.1832,4.214,4.2688,4.3137,4.3368,4.3419,4.3518,4.3496,4.3537,4.3419,4.3309,4.329,4.329,4.329,4.329,4.3319,4.3319,4.3409,4.3399,4.4018,4.5007,4.491,4.6366,4.8609,4.9781,5.0895,5.2402,5.3648,5.4538,5.5089,5.5454,5.5946,5.6495,5.6832,5.7243,5.7972,5.8601,5.9429,6.0357,6.1471,6.2266,6.2896,6.3227,6.3062,6.2996,6.4266,6.5801,6.6595,6.791,6.9003,6.9533,6.9798,6.9798,6.9798,6.9798,6.9798,6.9798,6.9798,6.9798,6.9798,6.9798,6.9798,6.9765,6.9798,6.9798,6.9798,6.9798,6.9798,6.9798,6.9798,6.9798,6.9798,6.9798,6.9798,6.9798,6.9798,6.9798,6.9798,6.9798,6.9798,6.9798,6.9798,6.9798,4.3254,4.3386,4.3553,4.3524,4.35,4.3994,4.4335,4.4507,4.5079,4.5378,4.5668,4.6169,4.637,4.6241,4.5603,4.4952,4.4578,4.3621,4.2716,4.2651,4.2619,4.2619,4.2651,4.2716,4.2461,4.2141,4.1784,4.1721,4.1741,4.1595,4.1709,4.2355,4.2805,4.3236,4.3433,4.3806,4.3995,4.3883,4.3752,4.3616,4.3448,4.3379,4.329,4.329,4.329,4.329,4.329,4.329,4.3579,4.3938,4.4137,4.4488,4.5041,4.597,4.7426,4.9144,5.054,5.1716,5.3149,5.4201,5.4944,5.5309,5.5847,5.636,5.6647,5.7243,5.7839,5.8601,5.9363,6.0225,6.1471,6.1968,6.2664,6.3327,6.3857,6.4089,6.4222,6.5293,6.643,6.7324,6.8506,6.9599,6.9699,6.9699,6.9699,6.9765,6.9798,6.9798,6.9798,6.9798,6.9798,6.9798,6.9798,6.9798,6.9798,6.9798,6.9798,6.9798,6.9798,6.9798,6.9798,6.9798,6.9798,6.9798,6.9798,6.9798,6.9798,6.9798,6.9798,6.9798,6.9798,6.9798,6.9798,6.9798,6.9798,4.4607,4.464,4.464,4.464,4.4721,4.5052,4.52,4.5335,4.5901,4.6167,4.6285,4.6782,4.698,4.688,4.6322,4.5896,4.5211,4.4237,4.3638,4.367,4.367,4.3638,4.3638,4.3525,4.3283,4.2472,4.2194,4.2202,4.2235,4.2235,4.2435,4.302,4.3451,4.3728,4.4036,4.4311,4.4351,4.4216,4.3988,4.3773,4.3655,4.3389,4.329,4.329,4.329,4.329,4.329,4.3638,4.3998,4.4498,4.5049,4.5421,4.5777,4.6965,4.842,4.9707,5.1446,5.2536,5.3656,5.4664,5.5398,5.5536,5.6087,5.6592,5.7027,5.7549,5.8323,5.9164,5.9893,6.0688,6.2432,6.2697,6.3161,6.4067,6.4597,6.4829,6.5028,6.5856,6.6595,6.7191,6.7953,6.8506,6.8804,6.9202,6.9358,6.9268,6.9765,6.9798,6.9798,6.9798,6.9798,6.9798,6.9798,6.9798,6.9798,6.9798,6.9798,6.9798,6.9798,6.9798,6.9798,6.9798,6.9798,6.9798,6.9798,6.9798,6.9798,6.9798,6.9798,6.9798,6.9798,6.9798,6.9798,6.9798,6.9798,4.5631,4.5631,4.5631,4.5697,4.5814,4.5881,4.5963,4.6064,4.6598,4.6847,4.6848,4.7341,4.7388,4.7337,4.694,4.6514,4.5781,4.5162,4.4561,4.4561,4.4528,4.4463,4.4462,4.4299,4.3935,4.2882,4.2787,4.2803,4.2788,4.2786,4.3113,4.3636,4.3759,4.4036,4.4498,4.4591,4.4534,4.4419,4.42,4.4007,4.391,4.3566,4.3389,4.329,4.3499,4.3549,4.3698,4.4148,4.4699,4.5001,4.6179,4.6815,4.7367,4.815,4.9398,5.0361,5.2281,5.3389,5.4049,5.496,5.5713,5.5864,5.623,5.685,5.7496,5.8045,5.8773,5.9595,6.039,6.1251,6.3029,6.3426,6.4067,6.4962,6.5359,6.5436,6.5635,6.6065,6.6264,6.6662,6.7423,6.8019,6.8307,6.8639,6.8705,6.8927,6.9434,6.9798,6.9798,6.9798,6.9798,6.9798,6.9798,6.9798,6.9798,6.9798,6.9798,6.9798,6.9798,6.9798,6.9798,6.9798,6.9798,6.9798,6.9798,6.9798,6.9798,6.9798,6.9798,6.9798,6.9798,6.9798,6.9798,6.9798,6.9798,4.4869,4.4869,4.4902,4.5233,4.5863,4.6444,4.6709,4.6841,4.7373,4.7671,4.7474,4.7488,4.7369,4.712,4.6348,4.5729,4.5372,4.5095,4.4966,4.4949,4.4982,4.4882,4.4714,4.4662,4.425,4.3906,4.3651,4.3519,4.3432,4.3482,4.3759,4.4283,4.4375,4.4498,4.4529,4.4591,4.4515,4.4438,4.4297,4.4162,4.3968,4.3714,4.3508,4.3449,4.3838,4.4098,4.4378,4.498,4.5704,4.6339,4.7429,4.8321,4.9042,4.9613,5.0537,5.1746,5.2975,5.3971,5.4523,5.512,5.5888,5.6409,5.6735,5.7318,5.8178,5.8934,5.9486,6.015,6.1173,6.22,6.3161,6.3791,6.4498,6.5194,6.5502,6.5701,6.6065,6.6132,6.6065,6.6496,6.7158,6.7655,6.7854,6.8208,6.8606,6.8937,6.95,6.9765,6.9798,6.9798,6.9798,6.9798,6.9798,6.9798,6.9798,6.9798,6.9798,6.9798,6.9798,6.9798,6.9798,6.9798,6.9798,6.9798,6.9798,6.9798,6.9798,6.9798,6.9798,6.9798,6.9798,6.9798,6.9798,6.9798,6.9798,4.6046,4.6378,4.6426,4.6609,4.6974,4.7305,4.7422,4.7358,4.7605,4.7637,4.7437,4.7252,4.7132,4.6932,4.6637,4.6164,4.5938,4.5873,4.5873,4.5888,4.5888,4.5838,4.5469,4.5364,4.5154,4.4953,4.467,4.4286,4.4123,4.4129,4.4302,4.4468,4.4591,4.4591,4.4591,4.4591,4.4534,4.4438,4.4374,4.422,4.3988,4.3695,4.3578,4.3908,4.4268,4.4659,4.5231,4.629,4.7031,4.7684,4.8781,4.9916,5.0665,5.1274,5.1725,5.2616,5.3639,5.4397,5.4907,5.5465,5.6195,5.6591,5.7134,5.7936,5.8774,5.9486,6.02,6.1065,6.1537,6.2664,6.3791,6.4188,6.4884,6.5724,6.5933,6.6264,6.6728,6.6628,6.6529,6.6397,6.6363,6.6728,6.7291,6.7777,6.844,6.9003,6.9533,6.9699,6.9798,6.9798,6.9798,6.9798,6.9798,6.9798,6.9798,6.9798,6.9798,6.9798,6.9798,6.9798,6.9798,6.9798,6.9798,6.9798,6.9798,6.9798,6.9798,6.9798,6.9798,6.9798,6.9798,6.9798,6.9798,6.9798,6.9798,4.7239,4.7769,4.7769,4.7868,4.7984,4.7968,4.7836,4.7688,4.7571,4.7403,4.7216,4.7047,4.6961,4.6877,4.6894,4.6845,4.691,4.6845,4.678,4.6713,4.6627,4.6689,4.6547,4.6283,4.5706,4.517,4.5085,4.4911,4.4574,4.4498,4.456,4.4591,4.4591,4.4591,4.4591,4.4591,4.4591,4.4534,4.4438,4.4247,4.4007,4.3885,4.3928,4.4549,4.4951,4.5607,4.6353,4.7678,4.8506,4.9174,5.0176,5.1413,5.2082,5.2791,5.3184,5.3428,5.437,5.4878,5.5365,5.6099,5.6855,5.72,5.786,5.8668,5.9521,6.0232,6.1053,6.2101,6.2697,6.3128,6.4122,6.4498,6.5127,6.5767,6.6198,6.6463,6.686,6.6893,6.6562,6.6264,6.5734,6.6132,6.7026,6.7523,6.8241,6.9136,6.9699,6.9732,6.9798,6.9798,6.9798,6.9798,6.9798,6.9798,6.9798,6.9798,6.9798,6.9798,6.9798,6.9798,6.9798,6.9798,6.9798,6.9798,6.9798,6.9798,6.9798,6.9798,6.9798,6.9798,6.9798,6.9798,6.9798,6.9798,6.9798,4.6941,4.704,4.704,4.7404,4.7902,4.7803,4.7721,4.7671,4.7537,4.7386,4.7264,4.7165,4.7095,4.7009,4.691,4.691,4.691,4.691,4.691,4.6875,4.6617,4.6354,4.5977,4.5523,4.5339,4.5024,4.4799,4.4648,4.4591,4.4591,4.4591,4.4591,4.4591,4.4591,4.4591,4.4591,4.4591,4.4591,4.4553,4.4469,4.44,4.473,4.4996,4.5533,4.6346,4.7303,4.811,4.9335,5.0153,5.0539,5.1722,5.2468,5.2836,5.412,5.4853,5.5206,5.5506,5.5826,5.6112,5.6914,5.7686,5.8096,5.8753,5.9368,6.0374,6.1318,6.2167,6.3029,6.3658,6.4067,6.4498,6.4929,6.5326,6.5569,6.5867,6.6165,6.6562,6.7059,6.6728,6.6397,6.5966,6.6529,6.7291,6.7622,6.8052,6.9003,6.9732,6.9765,6.9798,6.9798,6.9798,6.9798,6.9798,6.9798,6.9798,6.9798,6.9798,6.9798,6.9798,6.9798,6.9798,6.9798,6.9798,6.9798,6.9798,6.9798,6.9798,6.9798,6.9798,6.9798,6.9798,6.9798,6.9798,6.9798,6.9798,4.7537,4.7537,4.7504,4.7637,4.7803,4.7737,4.7588,4.742,4.7369,4.7444,4.7615,4.7662,4.761,4.746,4.7136,4.691,4.691,4.691,4.691,4.6892,4.6652,4.6439,4.6088,4.5724,4.5339,4.493,4.4723,4.4629,4.4591,4.4591,4.4591,4.4591,4.4591,4.4591,4.4591,4.4591,4.4591,4.4553,4.4507,4.4576,4.4855,4.5233,4.5896,4.6977,4.7916,4.8944,5.004,5.1205,5.179,5.2205,5.3428,5.4305,5.4505,5.5418,5.6391,5.6488,5.6958,5.7088,5.6916,5.7732,5.8367,5.9047,5.9793,6.0945,6.1838,6.2503,6.3128,6.3857,6.4188,6.4553,6.4862,6.5204,6.5602,6.5801,6.5767,6.6264,6.6628,6.6794,6.6893,6.6529,6.633,6.6794,6.7258,6.7589,6.8152,6.9235,6.9765,6.9765,6.9798,6.9798,6.9798,6.9798,6.9798,6.9798,6.9798,6.9798,6.9798,6.9798,6.9798,6.9798,6.9798,6.9798,6.9798,6.9798,6.9798,6.9798,6.9798,6.9798,6.9798,6.9798,6.9798,6.9798,6.9798,6.9798,6.9798,4.8001,4.8001,4.8001,4.7886,4.7688,4.7654,4.7602,4.7461,4.7458,4.7744,4.8076,4.8091,4.7993,4.7814,4.7266,4.691,4.691,4.691,4.691,4.6892,4.6702,4.6421,4.5999,4.5724,4.5284,4.5061,4.4723,4.461,4.4591,4.4591,4.4591,4.4591,4.4591,4.4591,4.4591,4.4591,4.4591,4.4622,4.4692,4.4991,4.544,4.6105,4.7208,4.8419,4.9583,5.0567,5.18,5.2795,5.3237,5.3893,5.4984,5.5751,5.5996,5.6906,5.7517,5.7818,5.8388,5.8841,5.8712,5.9015,5.9275,5.9924,6.088,6.2212,6.323,6.3592,6.3857,6.4586,6.4664,6.4995,6.526,6.537,6.5569,6.5834,6.6032,6.6562,6.686,6.6628,6.643,6.6099,6.6099,6.6695,6.7125,6.7456,6.8251,6.9434,6.9798,6.9798,6.9798,6.9798,6.9798,6.9798,6.9798,6.9798,6.9798,6.9798,6.9798,6.9798,6.9798,6.9798,6.9798,6.9798,6.9798,6.9798,6.9798,6.9798,6.9798,6.9798,6.9798,6.9798,6.9798,6.9798,6.9798,6.9798,6.9798,4.8001,4.8001,4.7984,4.7919,4.7721,4.7571,4.7745,4.8109,4.7984,4.8335,4.8817,4.8332,4.8105,4.7846,4.7313,4.691,4.691,4.691,4.6875,4.6649,4.628,4.6012,4.5687,4.5247,4.4799,4.4704,4.461,4.461,4.4591,4.4591,4.4591,4.4591,4.4591,4.4591,4.4622,4.4683,4.4745,4.4899,4.5199,4.5746,4.6543,4.7548,4.9032,4.9956,5.1146,5.2248,5.3226,5.4069,5.478,5.5421,5.6471,5.7089,5.744,5.8484,5.8981,5.9231,6.0055,6.0565,6.0663,6.0576,6.0825,6.1273,6.2081,6.3243,6.4178,6.4321,6.4686,6.5127,6.5127,6.5227,6.537,6.5403,6.5502,6.5602,6.5734,6.5834,6.6032,6.59,6.5701,6.5536,6.5834,6.6397,6.7125,6.7489,6.8317,6.95,6.9798,6.9798,6.9798,6.9798,6.9798,6.9798,6.9798,6.9798,6.9798,6.9798,6.9798,6.9798,6.9798,6.9798,6.9798,6.9798,6.9798,6.9798,6.9798,6.9798,6.9798,6.9798,6.9798,6.9798,6.9798,6.9798,6.9798,6.9798,6.9798,4.8068,4.848,4.8379,4.8262,4.8177,4.8007,4.8209,4.8651,4.8659,4.9012,4.9627,4.8979,4.8623,4.8299,4.7396,4.691,4.691,4.691,4.6789,4.653,4.6213,4.5868,4.5505,4.5154,4.4874,4.4648,4.4591,4.4591,4.4591,4.4591,4.4591,4.4591,4.4622,4.4591,4.4652,4.496,4.5176,4.5461,4.6063,4.6767,4.796,4.8889,5.0331,5.1922,5.2728,5.3978,5.5125,5.5668,5.6346,5.711,5.8017,5.8472,5.8951,6.0133,6.0743,6.0822,6.1753,6.2169,6.2289,6.2147,6.2078,6.2902,6.3496,6.4145,6.4862,6.4995,6.5094,6.5326,6.5403,6.5403,6.5403,6.5403,6.5403,6.5403,6.5403,6.5403,6.5403,6.5403,6.5403,6.5436,6.5668,6.6099,6.686,6.7589,6.8516,6.95,6.9666,6.9798,6.9798,6.9798,6.9798,6.9798,6.9798,6.9798,6.9798,6.9798,6.9798,6.9798,6.9798,6.9798,6.9798,6.9798,6.9798,6.9798,6.9798,6.9798,6.9798,6.9798,6.9798,6.9798,6.9798,6.9798,6.9798,6.9798,6.9798,4.833,4.879,4.8748,4.8759,4.8742,4.8587,4.8852,4.9256,4.9335,4.9724,5.0357,4.9659,4.9335,4.8979,4.8188,4.7622,4.759,4.7393,4.7124,4.6766,4.6372,4.5918,4.5468,4.5098,4.4799,4.4629,4.4591,4.4591,4.4591,4.4591,4.4591,4.4622,4.4776,4.4837,4.4745,4.5268,4.5719,4.6155,4.7057,4.8029,4.9206,5.0468,5.1545,5.3288,5.4262,5.5246,5.6302,5.6968,5.7687,5.8531,5.9416,6.013,6.0807,6.1628,6.2526,6.2849,6.3128,6.3537,6.3472,6.3342,6.3351,6.4145,6.4608,6.5006,6.5282,6.547,6.5503,6.537,6.5403,6.5403,6.5403,6.5403,6.5403,6.5403,6.5403,6.5403,6.5403,6.5403,6.5403,6.5403,6.5668,6.5966,6.7191,6.8052,6.8871,6.9599,6.9699,6.9798,6.9798,6.9798,6.9798,6.9798,6.9798,6.9798,6.9798,6.9798,6.9798,6.9798,6.9798,6.9798,6.9798,6.9798,6.9798,6.9798,6.9798,6.9798,6.9798,6.9798,6.9798,6.9798,6.9798,6.9798,6.9798,6.9798,6.9798,4.8807,4.8839,4.9147,4.9299,4.9364,4.9281,4.9563,5.0034,5.0098,5.0422,5.0927,5.0293,5.0001,4.9756,4.8947,4.8623,4.8544,4.8188,4.7905,4.7598,4.6743,4.6054,4.5656,4.536,4.5118,4.4702,4.4714,4.4776,4.4683,4.4622,4.4622,4.4918,4.5276,4.538,4.4795,4.533,4.6074,4.6973,4.8312,4.9401,5.0474,5.195,5.3166,5.4358,5.5501,5.6469,5.7368,5.8121,5.891,5.9911,6.075,6.1534,6.2349,6.325,6.3781,6.3721,6.4324,6.4636,6.4626,6.4442,6.473,6.5138,6.5426,6.5537,6.5526,6.5581,6.5625,6.5448,6.5403,6.5403,6.5403,6.5403,6.5403,6.5403,6.5403,6.5403,6.5403,6.5403,6.5403,6.5403,6.5536,6.5966,6.7423,6.8639,6.9334,6.9765,6.9798,6.9798,6.9798,6.9798,6.9798,6.9798,6.9798,6.9798,6.9798,6.9798,6.9798,6.9798,6.9798,6.9798,6.9798,6.9798,6.9798,6.9798,6.9798,6.9798,6.9798,6.9798,6.9798,6.9798,6.9798,6.9798,6.9798,6.9798,6.9798,4.9639,5.0046,4.9899,5.0125,5.045,5.0028,5.02,5.0765,5.0843,5.0959,5.1024,5.0422,5.0131,4.9872,4.9465,4.9109,4.9012,4.8897,4.8602,4.8226,4.7392,4.7051,4.6648,4.616,4.5853,4.5772,4.5588,4.5268,4.5299,4.4991,4.4991,4.5318,4.6125,4.6217,4.6394,4.704,4.8137,4.8711,5.0036,5.1409,5.2252,5.3405,5.4534,5.5607,5.6596,5.7568,5.8581,5.9338,6.0183,6.1289,6.2186,6.2786,6.3613,6.4518,6.4909,6.5022,6.556,6.5749,6.5761,6.5686,6.5775,6.5932,6.5878,6.5889,6.5736,6.5736,6.5647,6.5492,6.5425,6.5403,6.5403,6.5403,6.5403,6.5403,6.5403,6.5403,6.5403,6.5403,6.5403,6.5403,6.5469,6.6231,6.7423,6.8738,6.9566,6.9798,6.9798,6.9798,6.9798,6.9798,6.9798,6.9798,6.9798,6.9798,6.9798,6.9798,6.9798,6.9798,6.9798,6.9798,6.9798,6.9798,6.9798,6.9798,6.9798,6.9798,6.9798,6.9798,6.9798,6.9798,6.9798,6.9798,6.9798,6.9798,6.9798,5.0219,5.0569,5.0519,5.0746,5.1089,5.07,5.0746,5.1153,5.1218,5.1218,5.1089,5.0681,5.0519,5.0357,5.0034,4.9775,4.9742,4.9465,4.9331,4.8946,4.8117,4.7656,4.7293,4.6981,4.6458,4.648,4.6254,4.5946,4.5946,4.5515,4.5973,4.6843,4.7375,4.8064,4.8415,4.9136,4.9528,5.0283,5.1671,5.2917,5.3882,5.4894,5.5795,5.6886,5.7892,5.8737,5.9886,6.0775,6.1501,6.2674,6.3484,6.3939,6.4723,6.5366,6.5867,6.6167,6.6293,6.6461,6.6418,6.6418,6.6385,6.6354,6.6225,6.6009,6.5846,6.578,6.5625,6.5492,6.5425,6.5403,6.5403,6.5403,6.5403,6.5403,6.5403,6.5403,6.5403,6.5403,6.5403,6.5403,6.5635,6.6463,6.739,6.8615,6.9765,6.9798,6.9798,6.9798,6.9798,6.9798,6.9798,6.9798,6.9798,6.9798,6.9798,6.9798,6.9798,6.9798,6.9798,6.9798,6.9798,6.9798,6.9798,6.9798,6.9798,6.9798,6.9798,6.9798,6.9831,6.9798,6.9798,6.9798,6.9798,6.9831,6.9898,5.0638,5.0518,5.1001,5.1186,5.1186,5.1121,5.1186,5.1218,5.1218,5.1218,5.1186,5.1153,5.1056,5.1121,5.1089,5.1024,5.0876,5.0357,5.0177,4.9729,4.8897,4.8358,4.7881,4.7426,4.7274,4.6949,4.6705,4.6634,4.6634,4.696,4.7708,4.8675,4.9335,5.0299,5.0954,5.1326,5.1448,5.237,5.3446,5.4627,5.566,5.6278,5.7282,5.8334,5.928,6.0233,6.1256,6.2129,6.2983,6.3927,6.4808,6.5194,6.5716,6.6281,6.6614,6.6791,6.6736,6.6749,6.6728,6.6728,6.6728,6.6622,6.6333,6.6086,6.5889,6.5802,6.5647,6.5514,6.5403,6.5403,6.5403,6.5403,6.5403,6.5403,6.5403,6.5403,6.5403,6.5403,6.5403,6.5469,6.5701,6.643,6.7523,6.8682,6.9798,6.9798,6.9798,6.9798,6.9798,6.9798,6.9798,6.9798,6.9798,6.9798,6.9798,6.9798,6.9798,6.9798,6.9798,6.9798,6.9798,6.9798,6.9798,6.9798,6.9798,6.9798,6.9798,6.9831,6.9864,6.9864,7.0096,7.0096,7.0196,7.0096,7.0096,5.1228,5.1169,5.1196,5.1218,5.1218,5.1218,5.1218,5.1218,5.1218,5.1218,5.1218,5.1218,5.1218,5.1218,5.1186,5.1218,5.1121,5.1024,5.0927,5.0456,4.984,4.9751,4.9372,4.88,4.8576,4.8168,4.779,4.7444,4.769,4.8234,4.9068,4.9719,5.1487,5.2922,5.3777,5.4398,5.4436,5.4688,5.5702,5.6552,5.7335,5.7933,5.9,6.0072,6.0676,6.17,6.2841,6.3417,6.4187,6.4963,6.5387,6.5761,6.6458,6.6669,6.6791,6.6791,6.6791,6.6791,6.6791,6.6791,6.6791,6.6749,6.6495,6.6302,6.6086,6.5867,6.5692,6.5514,6.5425,6.5403,6.5403,6.5403,6.5403,6.5403,6.5403,6.5403,6.5403,6.5403,6.5403,6.5569,6.5801,6.6695,6.7787,6.8847,6.9798,6.9798,6.9798,6.9798,6.9798,6.9798,6.9798,6.9798,6.9798,6.9798,6.9798,6.9798,6.9798,6.9798,6.9798,6.9798,6.9798,6.9798,6.9798,6.9798,6.9798,6.9798,6.9798,6.9898,7.0096,7.0461,7.0659,7.0626,7.056,7.0593,7.0693,5.1443,5.1368,5.1275,5.1218,5.1251,5.1477,5.1588,5.1575,5.1315,5.1218,5.1218,5.1218,5.1218,5.1218,5.1218,5.1218,5.1186,5.1153,5.1121,5.1008,5.0781,5.0448,5.0202,4.9912,4.9367,4.9052,4.8829,4.8563,4.9088,5.0389,5.1375,5.2353,5.407,5.5026,5.6061,5.7054,5.7734,5.7827,5.8181,5.8772,5.9317,5.9882,6.1036,6.1887,6.232,6.3254,6.4313,6.4669,6.5135,6.5771,6.6094,6.6284,6.6757,6.6791,6.6791,6.6791,6.6791,6.6791,6.6791,6.6791,6.6791,6.6728,6.6516,6.628,6.6107,6.5911,6.5692,6.547,6.5448,6.5403,6.5403,6.5403,6.5403,6.5403,6.5403,6.5403,6.5403,6.5403,6.5502,6.5657,6.6264,6.7158,6.8152,6.9169,6.9798,6.9798,6.9798,6.9798,6.9798,6.9798,6.9798,6.9798,6.9798,6.9798,6.9798,6.9798,6.9798,6.9798,6.9798,6.9798,6.9798,6.9798,6.9798,6.9798,6.9798,6.9898,7.0129,7.0295,7.0494,7.0924,7.1421,7.1521,7.1521,7.1488,7.162,5.1368,5.1218,5.1218,5.1218,5.1283,5.1801,5.2041,5.2074,5.1542,5.1283,5.1315,5.1218,5.1218,5.1218,5.1218,5.1218,5.1218,5.1218,5.1186,5.1232,5.1057,5.0884,5.0749,5.0231,5.0085,4.9669,4.9593,4.9957,5.1098,5.2421,5.3922,5.5253,5.5734,5.6667,5.8087,5.9338,6.0123,6.0679,6.0696,6.0966,6.1401,6.2141,6.305,6.3798,6.4116,6.4502,6.5241,6.5661,6.5927,6.6492,6.6757,6.6757,6.6791,6.6791,6.6791,6.6791,6.6791,6.6791,6.6791,6.6791,6.6791,6.6686,6.643,6.6247,6.6095,6.5846,6.5581,6.547,6.5425,6.5403,6.5403,6.5403,6.5403,6.5403,6.5403,6.5403,6.5403,6.5436,6.5569,6.5867,6.6662,6.7523,6.8185,6.9169,6.9798,6.9798,6.9798,6.9798,6.9798,6.9798,6.9798,6.9798,6.9798,6.9798,6.9798,6.9798,6.9798,6.9798,6.9798,6.9798,6.9798,6.9798,6.9798,6.9864,6.9964,7.0328,7.056,7.0792,7.1189,7.1786,7.2216,7.2481,7.2515,7.2448,7.2548,5.1256,5.1218,5.1218,5.1218,5.1218,5.138,5.1459,5.151,5.1847,5.1977,5.1879,5.1477,5.1251,5.1283,5.1218,5.1218,5.1218,5.1315,5.1218,5.1477,5.1513,5.1695,5.1695,5.1344,5.1001,5.0758,5.0902,5.1598,5.281,5.4357,5.5613,5.6239,5.7263,5.8928,5.999,6.1261,6.2125,6.2882,6.3425,6.3258,6.3325,6.3501,6.4061,6.4745,6.5152,6.5505,6.6104,6.6437,6.6546,6.6791,6.6791,6.6791,6.6791,6.6791,6.6791,6.6791,6.6791,6.6791,6.6791,6.6791,6.6791,6.6791,6.6622,6.6397,6.6117,6.5758,6.5514,6.5448,6.5403,6.5403,6.5403,6.5403,6.5403,6.5403,6.5403,6.5403,6.5403,6.5502,6.5635,6.6297,6.7059,6.7721,6.8374,6.897,6.9566,6.9798,6.9798,6.9798,6.9798,6.9798,6.9798,6.9798,6.9798,6.9798,6.9798,6.9798,6.9798,6.9864,6.9898,6.9864,6.9864,7.0096,7.0328,7.0129,7.0196,7.0759,7.1223,7.1488,7.1918,7.2581,7.2879,7.3111,7.3434,7.3467,7.36,5.1545,5.1559,5.1298,5.1218,5.1315,5.1847,5.1944,5.1847,5.2721,5.2981,5.2624,5.2009,5.1639,5.1542,5.1348,5.1218,5.1283,5.1575,5.1672,5.1866,5.23,5.2553,5.2553,5.2448,5.2409,5.2293,5.3101,5.395,5.4897,5.6082,5.7218,5.7882,5.9618,6.0783,6.1687,6.2697,6.3666,6.4421,6.5463,6.5573,6.5131,6.5241,6.5396,6.596,6.6137,6.6403,6.6492,6.6791,6.6791,6.6791,6.6791,6.6791,6.6791,6.6791,6.6791,6.6791,6.6791,6.6791,6.6791,6.6791,6.6791,6.6791,6.6665,6.6409,6.6345,6.5977,6.5614,6.5548,6.5425,6.5403,6.5403,6.5403,6.5403,6.5403,6.5403,6.5403,6.5403,6.5436,6.5767,6.6363,6.7092,6.7821,6.8506,6.9202,6.9699,6.9798,6.9798,6.9798,6.9798,6.9798,6.9798,6.9798,6.9798,6.9798,6.9798,6.9798,6.9798,6.9864,6.9997,7.0494,7.0792,7.0825,7.0858,7.0825,7.1024,7.1521,7.1918,7.2216,7.2746,7.3401,7.36,7.3732,7.403,7.4196,7.4097,5.1969,5.1948,5.1429,5.1242,5.1474,5.2482,5.2657,5.243,5.3596,5.39,5.3382,5.2657,5.2365,5.1977,5.151,5.138,5.1477,5.1866,5.2093,5.2527,5.3091,5.335,5.3447,5.342,5.3709,5.4545,5.5534,5.6433,5.737,5.8495,5.9508,6.0149,6.0924,6.1818,6.2839,6.3963,6.5084,6.5543,6.6192,6.6614,6.6757,6.6791,6.6669,6.6703,6.6791,6.6791,6.6791,6.6791,6.6791,6.6791,6.6791,6.6791,6.6791,6.6791,6.6791,6.6791,6.6791,6.6791,6.6791,6.6791,6.6791,6.6749,6.6613,6.6528,6.643,6.6237,6.5878,6.5636,6.5537,6.5448,6.5448,6.5403,6.5403,6.5403,6.5403,6.5403,6.5403,6.5436,6.59,6.643,6.7191,6.7943,6.8771,6.9467,6.9666,6.9765,6.9798,6.9798,6.9798,6.9798,6.9798,6.9798,6.9798,6.9798,6.9798,6.9798,6.9798,6.9997,7.0229,7.109,7.1653,7.1488,7.1521,7.1753,7.2018,7.2316,7.268,7.2978,7.3575,7.3997,7.3997,7.3964,7.4064,7.4196,7.4196,5.1987,5.1951,5.1429,5.1466,5.1813,5.175,5.1815,5.23,5.3175,5.3706,5.3887,5.3382,5.2799,5.2171,5.151,5.1426,5.2074,5.2365,5.2721,5.3123,5.3835,5.4114,5.4393,5.4717,5.5278,5.6465,5.788,5.9174,5.9697,6.0852,6.165,6.1729,6.2582,6.3487,6.4385,6.5328,6.591,6.6483,6.6762,6.7083,6.696,6.6927,6.6825,6.6791,6.6791,6.6791,6.6791,6.6791,6.6791,6.6791,6.6791,6.6791,6.6791,6.6791,6.6791,6.6791,6.6791,6.6791,6.6791,6.6791,6.6791,6.6791,6.6698,6.6656,6.6571,6.6464,6.6129,6.5824,6.5692,6.5559,6.5514,6.5425,6.5403,6.5403,6.5403,6.5403,6.5403,6.5569,6.59,6.6628,6.7423,6.8317,6.9334,6.9732,6.9732,6.9798,6.9798,6.9798,6.9798,6.9798,6.9798,6.9798,6.9798,6.9798,6.9798,6.9798,6.9831,7.003,7.0394,7.1156,7.1686,7.1918,7.2051,7.225,7.2614,7.2945,7.331,7.3575,7.3832,7.413,7.413,7.4163,7.4196,7.4196,7.4196]}]]